[[{"header":{"parameterUnit":"m.s-1","parameterCategory":1,"la1":31.0,"la2":29.5877,"lo1":-88.7671,"lo2":-86.6584,"dy":0.0162,"dx":0.0185,"nx":115,"ny":88,"refTime":"2023-10-09T18:00:00:Z","depth":0,"parameterNumber":2,"parameterNumberName":"U-component_of_WINDS"},"data":[0.0,0.0,0.0,0.0,0.0,0.0,0.0,0.0,0.0,0.0,0.0,0.0,0.0,0.0,0.0,0.0,0.0,0.0,0.0,0.0,0.0,0.0,0.0,0.0,0.0,0.0,0.0,0.0,0.0,0.0,0.0,0.0,0.0,0.0,0.0,0.0,0.0,0.0,0.0,0.0,0.0,0.0,0.0,0.0,0.0,0.0,0.0,0.0,0.0,0.0,0.0,0.0,0.0,0.0,0.0,0.0,0.0,0.0,0.0,0.0,0.0,0.0,0.0,0.0,0.0,0.0,0.0,0.0,0.0,0.0,0.0,0.0,0.0,0.0,0.0,0.0,0.0,0.0,0.0,0.0,0.0,0.0,0.0,0.0,0.0,0.0,0.0,0.0,0.0,0.0,0.0,0.0,0.0,0.0,0.0,0.0,0.0,0.0,0.0,0.0,0.0,0.0,0.0,0.0,0.0,0.0,0.0,0.0,0.0,0.0,0.0,0.0,0.0,0.0,0.0,0.0,0.0,0.0,0.0,0.0,0.0,0.0,0.0,0.0,0.0,0.0,0.0,0.0,0.0,0.0,0.0,0.0,0.0,0.0,0.0,0.0,0.0,0.0,0.0,0.0,0.0,0.0,0.0,0.0,0.0,0.0,0.0,0.0,0.0,0.0,0.0,0.0,0.0,0.0,0.0,0.0,0.0,0.0,0.0,0.0,0.0,0.0,0.0,0.0,0.0,0.0,0.0,0.0,0.0,0.0,0.0,0.0,0.0,0.0,0.0,0.0,0.0,0.0,0.0,0.0,0.0,0.0,0.0,0.0,0.0,0.0,0.0,0.0,0.0,0.0,0.0,0.0,0.0,0.0,0.0,0.0,0.0,0.0,0.0,0.0,0.0,0.0,0.0,0.0,0.0,0.0,0.0,0.0,0.0,0.0,0.0,0.0,0.0,0.0,0.0,0.0,0.0,0.0,0.0,0.0,0.0,0.0,0.0,0.0,0.0,0.0,0.0,0.0,0.0,0.0,0.0,0.0,0.0,0.0,0.0,0.0,0.0,0.0,0.0,0.0,0.0,0.0,0.0,0.0,0.0,0.0,0.0,0.0,0.0,0.0,0.0,0.0,0.0,0.0,0.0,0.0,0.0,0.0,0.0,0.0,0.0,0.0,0.0,0.0,0.0,0.0,0.0,0.0,0.0,0.0,0.0,0.0,0.0,0.0,0.0,0.0,0.0,0.0,0.0,0.0,0.0,0.0,0.0,0.0,0.0,0.0,0.0,0.0,0.0,0.0,0.0,0.0,0.0,0.0,0.0,0.0,0.0,0.0,0.0,0.0,0.0,0.0,0.0,0.0,0.0,0.0,0.0,0.0,0.0,0.0,0.0,0.0,0.0,0.0,0.0,0.0,0.0,0.0,0.0,0.0,0.0,0.0,0.0,0.0,0.0,0.0,0.0,0.0,0.0,0.0,0.0,0.0,0.0,0.0,0.0,0.0,0.0,0.0,0.0,0.0,0.0,0.0,0.0,0.0,0.0,0.0,0.0,0.0,0.0,0.0,0.0,0.0,0.0,0.0,0.0,0.0,0.0,0.0,0.0,0.0,0.0,0.0,0.0,0.0,0.0,0.0,0.0,0.0,0.0,0.0,0.0,0.0,0.0,0.0,0.0,0.0,0.0,0.0,0.0,0.0,0.0,0.0,0.0,0.0,0.0,0.0,0.0,0.0,0.0,0.0,0.0,0.0,0.0,0.0,0.0,0.0,0.0,0.0,0.0,0.0,0.0,0.0,0.0,0.0,0.0,0.0,0.0,0.0,0.0,0.0,0.0,0.0,0.0,0.0,0.0,0.0,0.0,0.0,0.0,0.0,0.0,0.0,0.0,0.0,0.0,0.0,0.0,0.0,0.0,0.0,0.0,0.0,0.0,0.0,0.0,0.0,0.0,0.0,0.0,0.0,0.0,0.0,0.0,0.0,0.0,0.0,0.0,0.0,0.0,0.0,0.0,0.0,0.0,0.0,0.0,0.0,0.0,0.0,0.0,0.0,0.0,0.0,0.0,0.0,0.0,0.0,0.0,0.0,0.0,0.0,0.0,0.0,0.0,0.0,0.0,0.0,0.0,0.0,0.0,0.0,0.0,0.0,0.0,0.0,0.0,0.0,0.0,0.0,0.0,0.0,0.0,0.0,0.0,0.0,0.0,0.0,0.0,0.0,0.0,0.0,0.0,0.0,0.0,0.0,0.0,0.0,0.0,0.0,0.0,0.0,0.0,0.0,0.0,0.0,0.0,0.0,0.0,0.0,0.0,0.0,0.0,0.0,0.0,0.0,0.0,0.0,0.0,0.0,0.0,0.0,0.0,0.0,0.0,0.0,0.0,0.0,0.0,0.0,0.0,0.0,0.0,0.0,0.0,0.0,0.0,0.0,0.0,0.0,0.0,0.0,0.0,0.0,0.0,0.0,0.0,0.0,0.0,0.0,0.0,0.0,0.0,0.0,0.0,0.0,0.0,0.0,0.0,0.0,0.0,0.0,0.0,0.0,0.0,0.0,0.0,0.0,0.0,0.0,0.0,0.0,0.0,0.0,0.0,0.0,0.0,0.0,0.0,0.0,0.0,0.0,0.0,0.0,0.0,0.0,0.0,0.0,0.0,0.0,0.0,0.0,0.0,0.0,0.0,0.0,0.0,0.0,0.0,0.0,0.0,0.0,0.0,0.0,0.0,0.0,0.0,0.0,0.0,0.0,0.0,0.0,0.0,0.0,0.0,0.0,0.0,0.0,0.0,0.0,0.0,0.0,0.0,0.0,0.0,0.0,0.0,0.0,0.0,0.0,0.0,0.0,0.0,0.0,0.0,0.0,0.0,0.0,0.0,0.0,0.0,0.0,0.0,0.0,0.0,0.0,0.0,0.0,0.0,0.0,0.0,0.0,0.0,0.0,0.0,0.0,0.0,0.0,0.0,0.0,0.0,0.0,0.0,0.0,0.0,0.0,0.0,0.0,0.0,0.0,0.0,0.0,0.0,0.0,0.0,0.0,0.0,0.0,0.0,0.0,0.0,0.0,0.0,0.0,0.0,0.0,0.0,0.0,0.0,0.0,0.0,0.0,0.0,0.0,0.0,0.0,0.0,0.0,0.0,0.0,0.0,0.0,0.0,0.0,0.0,0.0,0.0,0.0,0.0,0.0,0.0,0.0,0.0,0.0,0.0,0.0,0.0,0.0,0.0,0.0,0.0,0.0,0.0,0.0,0.0,0.0,0.0,0.0,0.0,0.0,0.0,0.0,0.0,0.0,0.0,0.0,0.0,0.0,0.0,0.0,0.0,0.0,0.0,0.0,0.0,0.0,0.0,0.0,0.0,0.0,0.0,0.0,0.0,0.0,0.0,0.0,0.0,0.0,0.0,0.0,0.0,0.0,0.0,0.0,0.0,0.0,0.0,0.0,0.0,0.0,0.0,0.0,0.0,0.0,0.0,0.0,0.0,0.0,0.0,0.0,0.0,0.0,0.0,0.0,0.0,0.0,0.0,0.0,0.0,0.0,0.0,0.0,0.0,0.0,0.0,0.0,0.0,0.0,0.0,0.0,0.0,0.0,0.0,0.0,0.0,0.0,0.0,0.0,0.0,0.0,0.0,0.0,0.0,0.0,0.0,0.0,0.0,0.0,0.0,0.0,0.0,0.0,0.0,0.0,0.0,0.0,0.0,0.0,0.0,0.0,0.0,0.0,0.0,0.0,0.0,0.0,0.0,0.0,0.0,0.0,0.0,0.0,0.0,0.0,0.0,0.0,0.0,0.0,0.0,0.0,0.0,0.0,0.0,0.0,0.0,0.0,0.0,0.0,0.0,0.0,0.0,0.0,0.0,0.0,0.0,0.0,0.0,0.0,0.0,0.0,0.0,0.0,0.0,0.0,0.0,0.0,0.0,0.0,0.0,0.0,0.0,0.0,0.0,0.0,0.0,0.0,0.0,0.0,0.0,0.0,0.0,0.0,0.0,0.0,0.0,0.0,0.0,0.0,0.0,0.0,0.0,0.0,0.0,0.0,0.0,0.0,0.0,0.0,0.0,0.0,0.0,0.0,0.0,0.0,0.0,0.0,0.0,0.0,0.0,0.0,0.0,0.0,0.0,0.0,0.0,0.0,0.0,0.0,0.0,0.0,0.0,0.0,0.0,0.0,0.0,0.0,0.0,0.0,0.0,0.0,0.0,0.0,0.0,0.0,0.0,0.0,0.0,0.0,0.0,0.0,0.0,0.0,0.0,0.0,0.0,0.0,0.0,0.0,-4.2222,0.0,0.0,0.0,0.0,0.0,0.0,0.0,0.0,0.0,0.0,0.0,0.0,0.0,0.0,0.0,0.0,0.0,0.0,0.0,0.0,0.0,0.0,0.0,0.0,0.0,0.0,0.0,0.0,0.0,0.0,0.0,0.0,0.0,0.0,0.0,0.0,0.0,0.0,0.0,0.0,0.0,0.0,0.0,0.0,0.0,0.0,0.0,0.0,0.0,0.0,0.0,0.0,0.0,0.0,0.0,0.0,0.0,0.0,0.0,0.0,0.0,0.0,0.0,0.0,0.0,0.0,0.0,0.0,0.0,0.0,0.0,0.0,0.0,0.0,0.0,0.0,0.0,0.0,0.0,0.0,0.0,0.0,0.0,0.0,0.0,0.0,0.0,0.0,0.0,0.0,0.0,0.0,0.0,0.0,0.0,0.0,0.0,0.0,0.0,0.0,0.0,0.0,0.0,0.0,0.0,0.0,0.0,0.0,0.0,0.0,-4.4155,-4.4097,-4.3552,-4.3113,-4.2805,0.0,0.0,0.0,0.0,0.0,0.0,0.0,0.0,0.0,0.0,0.0,0.0,0.0,0.0,0.0,0.0,0.0,0.0,0.0,0.0,0.0,0.0,0.0,0.0,0.0,0.0,0.0,0.0,0.0,0.0,0.0,0.0,0.0,0.0,0.0,0.0,0.0,0.0,0.0,0.0,0.0,0.0,0.0,0.0,0.0,0.0,0.0,0.0,0.0,0.0,0.0,0.0,0.0,0.0,0.0,0.0,0.0,0.0,0.0,0.0,0.0,0.0,0.0,0.0,0.0,0.0,0.0,0.0,0.0,0.0,0.0,0.0,0.0,0.0,0.0,0.0,0.0,0.0,0.0,0.0,0.0,0.0,0.0,0.0,0.0,0.0,0.0,0.0,0.0,0.0,0.0,0.0,0.0,0.0,0.0,0.0,0.0,0.0,0.0,0.0,0.0,0.0,0.0,0.0,0.0,0.0,0.0,0.0,0.0,0.0,0.0,0.0,-4.3476,-4.3052,-4.2929,0.0,0.0,0.0,0.0,0.0,0.0,0.0,0.0,0.0,0.0,0.0,0.0,0.0,0.0,0.0,0.0,0.0,0.0,0.0,0.0,0.0,0.0,0.0,0.0,0.0,0.0,0.0,0.0,0.0,0.0,0.0,0.0,0.0,0.0,0.0,0.0,0.0,0.0,0.0,0.0,0.0,0.0,0.0,0.0,0.0,0.0,0.0,0.0,0.0,0.0,0.0,0.0,0.0,0.0,0.0,0.0,0.0,0.0,0.0,0.0,0.0,0.0,0.0,0.0,0.0,0.0,0.0,0.0,0.0,0.0,0.0,0.0,0.0,0.0,0.0,0.0,0.0,0.0,0.0,0.0,0.0,0.0,0.0,0.0,0.0,0.0,0.0,0.0,0.0,0.0,0.0,0.0,0.0,0.0,0.0,0.0,0.0,0.0,0.0,0.0,0.0,0.0,0.0,0.0,0.0,0.0,0.0,0.0,0.0,0.0,-4.4097,-4.4097,-4.3476,0.0,-4.1541,0.0,0.0,0.0,0.0,0.0,0.0,0.0,0.0,0.0,0.0,0.0,0.0,0.0,0.0,0.0,0.0,0.0,0.0,0.0,0.0,0.0,0.0,0.0,0.0,0.0,0.0,0.0,0.0,0.0,0.0,0.0,0.0,0.0,0.0,0.0,0.0,0.0,0.0,0.0,0.0,0.0,0.0,0.0,0.0,0.0,0.0,0.0,0.0,0.0,0.0,0.0,0.0,0.0,0.0,0.0,0.0,0.0,0.0,0.0,0.0,0.0,0.0,0.0,0.0,0.0,0.0,0.0,0.0,0.0,0.0,0.0,0.0,0.0,0.0,0.0,0.0,0.0,0.0,0.0,0.0,0.0,0.0,0.0,0.0,0.0,0.0,0.0,0.0,0.0,0.0,0.0,0.0,0.0,0.0,0.0,0.0,0.0,0.0,0.0,0.0,0.0,0.0,0.0,0.0,0.0,0.0,0.0,0.0,0.0,0.0,-4.4138,-4.4097,-4.3279,-4.2124,0.0,0.0,0.0,0.0,0.0,0.0,0.0,0.0,0.0,0.0,0.0,0.0,0.0,0.0,0.0,0.0,0.0,0.0,0.0,0.0,0.0,0.0,0.0,0.0,0.0,0.0,0.0,0.0,0.0,0.0,0.0,0.0,0.0,0.0,0.0,0.0,0.0,0.0,0.0,0.0,0.0,0.0,0.0,0.0,0.0,0.0,0.0,0.0,0.0,0.0,0.0,0.0,0.0,0.0,0.0,0.0,0.0,0.0,0.0,0.0,0.0,0.0,0.0,0.0,0.0,0.0,0.0,0.0,0.0,0.0,0.0,0.0,0.0,0.0,0.0,0.0,0.0,0.0,0.0,0.0,0.0,0.0,0.0,0.0,0.0,0.0,0.0,0.0,0.0,0.0,0.0,0.0,0.0,0.0,0.0,0.0,0.0,0.0,0.0,0.0,0.0,0.0,0.0,0.0,0.0,0.0,0.0,0.0,0.0,0.0,-4.436,-4.4196,-4.3923,-4.3113,-4.2028,-4.0734,0.0,0.0,0.0,0.0,0.0,0.0,0.0,0.0,0.0,0.0,0.0,0.0,0.0,0.0,0.0,0.0,0.0,0.0,0.0,0.0,0.0,0.0,0.0,0.0,0.0,0.0,0.0,0.0,0.0,0.0,0.0,0.0,0.0,0.0,0.0,0.0,0.0,0.0,0.0,0.0,0.0,0.0,0.0,0.0,0.0,0.0,0.0,0.0,0.0,0.0,0.0,0.0,0.0,0.0,0.0,0.0,0.0,0.0,0.0,0.0,0.0,0.0,0.0,0.0,0.0,0.0,0.0,0.0,0.0,0.0,0.0,0.0,0.0,0.0,0.0,0.0,0.0,0.0,0.0,0.0,0.0,0.0,0.0,0.0,0.0,0.0,0.0,0.0,0.0,0.0,0.0,0.0,0.0,0.0,0.0,0.0,0.0,0.0,0.0,0.0,0.0,0.0,0.0,0.0,0.0,0.0,0.0,0.0,-4.431,-4.431,-4.408,-4.3628,-4.3129,-4.2539,0.0,0.0,0.0,0.0,0.0,0.0,0.0,0.0,0.0,0.0,0.0,0.0,0.0,0.0,0.0,0.0,0.0,0.0,0.0,0.0,0.0,0.0,0.0,0.0,0.0,0.0,0.0,0.0,0.0,0.0,0.0,0.0,0.0,0.0,0.0,0.0,0.0,0.0,0.0,0.0,0.0,0.0,0.0,0.0,0.0,0.0,0.0,0.0,0.0,0.0,0.0,0.0,0.0,0.0,0.0,0.0,0.0,0.0,0.0,0.0,0.0,0.0,0.0,0.0,0.0,0.0,0.0,0.0,0.0,0.0,0.0,0.0,0.0,0.0,0.0,0.0,0.0,0.0,0.0,0.0,0.0,0.0,0.0,0.0,0.0,0.0,0.0,0.0,0.0,0.0,0.0,0.0,0.0,0.0,0.0,0.0,0.0,0.0,0.0,0.0,0.0,0.0,0.0,0.0,0.0,0.0,0.0,0.0,0.0,-4.4497,-4.4253,-4.4023,-4.373,-4.319,-4.2618,0.0,0.0,0.0,0.0,0.0,0.0,0.0,0.0,0.0,0.0,0.0,0.0,0.0,0.0,0.0,0.0,0.0,0.0,0.0,0.0,0.0,0.0,0.0,0.0,0.0,0.0,0.0,0.0,0.0,0.0,0.0,0.0,0.0,0.0,0.0,0.0,0.0,0.0,0.0,0.0,0.0,0.0,0.0,0.0,0.0,0.0,0.0,0.0,0.0,0.0,0.0,0.0,0.0,0.0,0.0,0.0,0.0,0.0,0.0,0.0,0.0,0.0,0.0,0.0,0.0,0.0,0.0,0.0,0.0,0.0,0.0,0.0,0.0,0.0,0.0,0.0,0.0,0.0,0.0,0.0,0.0,0.0,0.0,0.0,0.0,0.0,0.0,0.0,0.0,0.0,0.0,0.0,0.0,0.0,0.0,0.0,0.0,0.0,0.0,0.0,0.0,0.0,0.0,0.0,0.0,0.0,0.0,0.0,0.0,-4.4587,0.0,-4.4039,-4.3889,-4.3295,-4.2759,0.0,0.0,0.0,0.0,0.0,0.0,0.0,0.0,0.0,0.0,0.0,0.0,0.0,0.0,0.0,0.0,0.0,0.0,0.0,0.0,0.0,0.0,0.0,0.0,0.0,0.0,0.0,0.0,0.0,0.0,0.0,0.0,0.0,0.0,0.0,0.0,0.0,0.0,0.0,0.0,0.0,0.0,0.0,0.0,0.0,0.0,0.0,0.0,0.0,0.0,0.0,0.0,0.0,0.0,0.0,0.0,0.0,0.0,0.0,0.0,0.0,0.0,0.0,0.0,0.0,0.0,0.0,0.0,0.0,0.0,0.0,0.0,0.0,0.0,0.0,0.0,0.0,0.0,0.0,0.0,0.0,0.0,0.0,0.0,0.0,0.0,0.0,0.0,0.0,0.0,0.0,0.0,0.0,0.0,0.0,0.0,0.0,0.0,0.0,0.0,0.0,0.0,0.0,0.0,0.0,0.0,0.0,0.0,-4.4604,-4.4604,-4.432,-4.4181,-4.4114,-4.3525,-4.2883,0.0,0.0,0.0,0.0,0.0,0.0,0.0,0.0,0.0,0.0,0.0,0.0,0.0,0.0,0.0,0.0,0.0,0.0,0.0,0.0,0.0,0.0,0.0,0.0,0.0,0.0,0.0,0.0,0.0,0.0,0.0,0.0,0.0,0.0,0.0,0.0,0.0,0.0,0.0,0.0,0.0,0.0,0.0,0.0,0.0,0.0,0.0,0.0,0.0,0.0,0.0,0.0,0.0,0.0,0.0,0.0,0.0,0.0,0.0,0.0,0.0,0.0,0.0,0.0,0.0,0.0,0.0,0.0,0.0,0.0,0.0,0.0,0.0,0.0,0.0,0.0,0.0,0.0,0.0,0.0,0.0,0.0,0.0,0.0,0.0,0.0,0.0,0.0,0.0,0.0,0.0,0.0,0.0,0.0,0.0,0.0,0.0,0.0,0.0,0.0,0.0,0.0,0.0,0.0,0.0,0.0,0.0,0.0,0.0,-4.5348,-4.5101,-4.5219,-4.5554,-4.4638,-4.3804,0.0,0.0,0.0,0.0,0.0,0.0,0.0,0.0,0.0,0.0,0.0,0.0,0.0,0.0,0.0,0.0,0.0,0.0,0.0,0.0,0.0,0.0,0.0,0.0,0.0,0.0,0.0,0.0,0.0,0.0,0.0,0.0,0.0,0.0,0.0,0.0,0.0,0.0,0.0,0.0,0.0,0.0,0.0,0.0,0.0,0.0,0.0,0.0,0.0,0.0,0.0,0.0,0.0,0.0,0.0,0.0,0.0,0.0,0.0,0.0,0.0,0.0,0.0,0.0,0.0,0.0,0.0,0.0,0.0,0.0,0.0,0.0,0.0,0.0,0.0,0.0,0.0,0.0,0.0,0.0,0.0,0.0,0.0,0.0,0.0,0.0,0.0,0.0,0.0,0.0,0.0,0.0,0.0,0.0,0.0,0.0,0.0,0.0,0.0,0.0,0.0,0.0,0.0,0.0,0.0,0.0,0.0,0.0,0.0,-4.6498,-4.6338,-4.6286,-4.629,-4.5723,-4.4894,-4.3831,0.0,0.0,0.0,0.0,0.0,0.0,0.0,0.0,0.0,0.0,0.0,0.0,0.0,0.0,0.0,0.0,0.0,0.0,0.0,0.0,0.0,0.0,0.0,0.0,0.0,0.0,0.0,0.0,0.0,0.0,0.0,0.0,0.0,0.0,0.0,0.0,0.0,0.0,0.0,0.0,0.0,0.0,0.0,0.0,0.0,0.0,0.0,0.0,0.0,0.0,0.0,0.0,0.0,0.0,0.0,0.0,0.0,0.0,0.0,0.0,0.0,0.0,0.0,0.0,0.0,0.0,0.0,0.0,0.0,0.0,0.0,0.0,0.0,0.0,0.0,0.0,0.0,0.0,0.0,0.0,0.0,0.0,0.0,0.0,0.0,0.0,0.0,0.0,0.0,0.0,0.0,0.0,0.0,0.0,0.0,0.0,0.0,0.0,0.0,0.0,0.0,0.0,0.0,0.0,0.0,0.0,0.0,0.0,-4.797,-4.7882,-4.7413,-4.6686,-4.6862,-4.6071,0.0,0.0,0.0,0.0,0.0,0.0,0.0,0.0,0.0,0.0,0.0,0.0,0.0,0.0,0.0,0.0,0.0,0.0,0.0,0.0,0.0,0.0,0.0,0.0,0.0,0.0,0.0,0.0,0.0,0.0,0.0,0.0,0.0,0.0,0.0,0.0,0.0,0.0,0.0,0.0,0.0,0.0,0.0,0.0,0.0,0.0,0.0,0.0,0.0,0.0,0.0,0.0,0.0,0.0,0.0,0.0,0.0,0.0,0.0,0.0,0.0,0.0,0.0,0.0,0.0,0.0,0.0,0.0,0.0,0.0,0.0,0.0,0.0,0.0,0.0,0.0,0.0,0.0,0.0,0.0,0.0,0.0,0.0,0.0,0.0,0.0,0.0,0.0,0.0,0.0,0.0,0.0,0.0,0.0,0.0,0.0,0.0,0.0,0.0,0.0,0.0,0.0,0.0,0.0,0.0,0.0,0.0,0.0,0.0,-4.8829,-4.9238,-4.9569,-4.9715,-4.8556,-4.7255,0.0,0.0,0.0,0.0,0.0,0.0,0.0,0.0,0.0,0.0,0.0,0.0,0.0,0.0,0.0,0.0,0.0,0.0,0.0,0.0,0.0,0.0,0.0,0.0,0.0,0.0,0.0,0.0,0.0,0.0,0.0,0.0,0.0,0.0,0.0,0.0,0.0,0.0,0.0,0.0,0.0,0.0,0.0,0.0,0.0,0.0,0.0,0.0,0.0,0.0,0.0,0.0,0.0,0.0,0.0,0.0,0.0,0.0,0.0,0.0,0.0,0.0,0.0,0.0,0.0,0.0,0.0,0.0,0.0,0.0,0.0,0.0,0.0,0.0,0.0,0.0,0.0,0.0,0.0,0.0,0.0,0.0,0.0,0.0,0.0,0.0,0.0,0.0,0.0,0.0,0.0,0.0,0.0,0.0,0.0,0.0,0.0,0.0,0.0,0.0,0.0,0.0,0.0,0.0,0.0,0.0,0.0,0.0,-4.8635,-4.9767,-5.0617,-5.1338,-5.2049,-4.9972,-4.8129,0.0,0.0,0.0,0.0,0.0,0.0,0.0,0.0,0.0,0.0,0.0,0.0,0.0,0.0,0.0,0.0,0.0,0.0,0.0,0.0,0.0,0.0,0.0,0.0,0.0,0.0,0.0,0.0,0.0,0.0,0.0,0.0,0.0,0.0,0.0,0.0,0.0,0.0,0.0,0.0,0.0,0.0,0.0,0.0,0.0,0.0,0.0,0.0,0.0,0.0,0.0,0.0,0.0,0.0,0.0,0.0,0.0,0.0,0.0,0.0,0.0,0.0,0.0,0.0,0.0,0.0,0.0,0.0,0.0,0.0,0.0,0.0,0.0,0.0,0.0,0.0,0.0,0.0,0.0,0.0,0.0,0.0,0.0,0.0,0.0,0.0,0.0,0.0,0.0,0.0,0.0,0.0,0.0,0.0,0.0,0.0,0.0,0.0,0.0,0.0,0.0,0.0,0.0,0.0,0.0,0.0,0.0,0.0,-4.9958,-5.0762,-5.1677,-5.2586,-5.3399,-5.106,-4.8859,0.0,0.0,0.0,0.0,0.0,0.0,0.0,0.0,0.0,0.0,0.0,0.0,0.0,0.0,0.0,0.0,0.0,0.0,0.0,0.0,0.0,0.0,0.0,0.0,0.0,0.0,0.0,0.0,0.0,0.0,0.0,0.0,0.0,0.0,0.0,0.0,0.0,0.0,0.0,0.0,0.0,0.0,0.0,0.0,0.0,0.0,0.0,0.0,0.0,0.0,0.0,0.0,0.0,0.0,0.0,0.0,0.0,0.0,0.0,0.0,0.0,0.0,0.0,0.0,0.0,0.0,0.0,0.0,0.0,0.0,0.0,0.0,0.0,0.0,0.0,0.0,0.0,0.0,0.0,0.0,0.0,0.0,0.0,0.0,0.0,0.0,0.0,0.0,0.0,0.0,0.0,0.0,0.0,0.0,0.0,0.0,0.0,0.0,0.0,0.0,0.0,0.0,0.0,0.0,0.0,0.0,0.0,0.0,-5.053,-5.2042,-5.1674,-5.209,-5.345,-5.153,-4.9958,0.0,0.0,0.0,0.0,0.0,0.0,0.0,0.0,0.0,0.0,0.0,0.0,0.0,0.0,0.0,0.0,0.0,0.0,0.0,0.0,0.0,0.0,0.0,0.0,0.0,0.0,0.0,0.0,0.0,0.0,0.0,0.0,0.0,0.0,0.0,0.0,0.0,0.0,0.0,0.0,0.0,0.0,0.0,0.0,0.0,0.0,0.0,0.0,-4.8163,0.0,0.0,0.0,0.0,0.0,0.0,0.0,0.0,0.0,0.0,0.0,0.0,0.0,0.0,0.0,0.0,0.0,0.0,0.0,0.0,0.0,0.0,0.0,0.0,0.0,0.0,0.0,0.0,0.0,0.0,0.0,0.0,0.0,0.0,0.0,0.0,0.0,0.0,0.0,0.0,0.0,0.0,0.0,0.0,0.0,0.0,0.0,0.0,0.0,0.0,0.0,0.0,0.0,0.0,0.0,0.0,0.0,0.0,0.0,-5.1001,-5.2021,-5.1485,-5.1595,-5.2334,-5.1378,-5.0408,0.0,0.0,0.0,0.0,0.0,0.0,0.0,0.0,0.0,0.0,0.0,0.0,0.0,0.0,0.0,0.0,0.0,0.0,0.0,0.0,0.0,0.0,0.0,0.0,0.0,0.0,0.0,0.0,0.0,0.0,0.0,0.0,0.0,0.0,0.0,0.0,0.0,0.0,0.0,0.0,0.0,0.0,0.0,0.0,0.0,0.0,0.0,0.0,0.0,0.0,0.0,0.0,0.0,0.0,0.0,0.0,0.0,0.0,0.0,0.0,0.0,0.0,0.0,0.0,0.0,0.0,0.0,0.0,0.0,0.0,0.0,0.0,0.0,0.0,0.0,0.0,0.0,0.0,0.0,0.0,0.0,0.0,0.0,0.0,0.0,0.0,0.0,0.0,0.0,0.0,0.0,0.0,0.0,0.0,0.0,0.0,0.0,0.0,0.0,0.0,0.0,0.0,0.0,0.0,0.0,0.0,0.0,-5.0627,-5.1525,-5.1707,-5.1494,-5.1303,-5.1217,-5.1105,-5.0555,-4.9458,0.0,0.0,0.0,0.0,0.0,0.0,0.0,0.0,0.0,0.0,0.0,0.0,0.0,0.0,0.0,0.0,0.0,0.0,0.0,0.0,0.0,0.0,0.0,0.0,0.0,0.0,0.0,0.0,0.0,0.0,0.0,0.0,0.0,0.0,0.0,0.0,0.0,0.0,-4.3623,-4.5703,0.0,0.0,0.0,0.0,0.0,0.0,0.0,0.0,-5.0677,0.0,0.0,0.0,0.0,0.0,0.0,0.0,0.0,0.0,0.0,0.0,0.0,0.0,0.0,0.0,0.0,0.0,0.0,0.0,0.0,0.0,0.0,0.0,0.0,0.0,0.0,0.0,0.0,0.0,0.0,0.0,0.0,0.0,0.0,0.0,0.0,0.0,0.0,0.0,0.0,0.0,0.0,0.0,0.0,0.0,0.0,0.0,0.0,0.0,0.0,0.0,0.0,0.0,0.0,0.0,0.0,-4.9264,-5.1233,-5.2165,-5.2076,-5.2072,-5.1778,-5.1248,-5.1153,-5.0686,-4.9588,0.0,0.0,0.0,0.0,0.0,0.0,0.0,0.0,0.0,0.0,0.0,0.0,0.0,0.0,0.0,0.0,0.0,0.0,0.0,0.0,0.0,0.0,0.0,0.0,0.0,0.0,0.0,0.0,0.0,0.0,0.0,0.0,0.0,0.0,0.0,0.0,0.0,0.0,0.0,-4.7242,-4.9171,0.0,0.0,0.0,0.0,0.0,0.0,0.0,0.0,-5.1816,0.0,0.0,0.0,0.0,0.0,0.0,0.0,0.0,0.0,0.0,0.0,0.0,0.0,0.0,0.0,0.0,0.0,0.0,0.0,0.0,0.0,0.0,0.0,0.0,0.0,0.0,0.0,0.0,0.0,0.0,0.0,0.0,0.0,0.0,0.0,0.0,0.0,0.0,0.0,0.0,0.0,0.0,0.0,0.0,0.0,0.0,0.0,0.0,0.0,0.0,0.0,0.0,0.0,0.0,0.0,-4.9984,-5.1026,-5.1574,-5.1635,-5.1279,-5.0778,-5.0113,-5.0439,-5.016,0.0,0.0,0.0,0.0,0.0,0.0,0.0,0.0,0.0,0.0,0.0,0.0,0.0,0.0,0.0,0.0,0.0,0.0,0.0,0.0,0.0,0.0,0.0,0.0,0.0,0.0,0.0,0.0,0.0,0.0,0.0,0.0,0.0,0.0,0.0,0.0,0.0,0.0,0.0,0.0,-4.8105,-4.9678,-5.1522,0.0,0.0,0.0,0.0,0.0,0.0,-5.2656,-5.2236,0.0,0.0,0.0,0.0,0.0,0.0,0.0,0.0,0.0,0.0,0.0,0.0,0.0,0.0,0.0,0.0,0.0,0.0,0.0,0.0,0.0,0.0,0.0,0.0,0.0,0.0,0.0,0.0,0.0,0.0,0.0,0.0,0.0,0.0,0.0,0.0,0.0,0.0,0.0,0.0,0.0,0.0,0.0,0.0,0.0,0.0,0.0,0.0,0.0,0.0,0.0,0.0,0.0,0.0,0.0,-5.0436,-5.0783,-5.0964,-5.1086,-5.0517,-4.9821,-4.9063,-4.9576,-4.9468,0.0,0.0,0.0,0.0,0.0,0.0,0.0,0.0,0.0,0.0,0.0,0.0,0.0,0.0,0.0,0.0,0.0,0.0,0.0,0.0,0.0,0.0,0.0,0.0,0.0,0.0,0.0,0.0,0.0,0.0,0.0,0.0,0.0,0.0,0.0,0.0,0.0,0.0,0.0,0.0,0.0,-5.0185,-5.2249,-5.2046,0.0,0.0,0.0,0.0,-5.2486,-5.2775,0.0,0.0,0.0,0.0,0.0,0.0,0.0,0.0,0.0,0.0,0.0,0.0,0.0,0.0,0.0,0.0,0.0,0.0,0.0,0.0,0.0,0.0,0.0,0.0,0.0,0.0,0.0,0.0,0.0,0.0,0.0,0.0,0.0,0.0,0.0,0.0,0.0,0.0,0.0,0.0,0.0,0.0,0.0,0.0,0.0,0.0,0.0,0.0,0.0,0.0,0.0,0.0,0.0,0.0,0.0,0.0,-5.0222,-5.1222,-5.1497,-5.1138,-5.1034,-5.0369,-4.9063,-4.9086,-4.8899,0.0,0.0,0.0,0.0,0.0,0.0,0.0,0.0,0.0,0.0,0.0,0.0,0.0,0.0,0.0,0.0,0.0,0.0,0.0,0.0,0.0,0.0,0.0,0.0,0.0,0.0,0.0,0.0,0.0,0.0,0.0,0.0,0.0,0.0,0.0,0.0,0.0,0.0,0.0,0.0,0.0,-5.1555,-5.3145,-5.3298,-5.323,0.0,0.0,-5.3277,-5.3331,-5.3382,0.0,0.0,0.0,0.0,0.0,0.0,0.0,0.0,0.0,0.0,0.0,0.0,0.0,0.0,0.0,0.0,0.0,0.0,0.0,0.0,0.0,0.0,0.0,0.0,0.0,0.0,0.0,0.0,0.0,0.0,0.0,0.0,0.0,0.0,0.0,0.0,0.0,0.0,0.0,0.0,0.0,0.0,0.0,0.0,0.0,0.0,0.0,0.0,0.0,0.0,0.0,0.0,0.0,0.0,0.0,-4.8404,-5.0726,-5.12,-5.1462,-5.1643,-5.1292,-5.0626,-4.9563,-4.9195,-4.8877,0.0,0.0,0.0,0.0,0.0,0.0,0.0,0.0,0.0,0.0,0.0,0.0,0.0,0.0,0.0,0.0,0.0,0.0,0.0,0.0,0.0,0.0,0.0,0.0,0.0,0.0,0.0,0.0,0.0,0.0,0.0,0.0,0.0,0.0,0.0,0.0,0.0,0.0,0.0,0.0,0.0,0.0,-5.3298,-5.3518,0.0,0.0,0.0,-5.3466,-5.3484,0.0,0.0,0.0,0.0,0.0,0.0,0.0,0.0,0.0,0.0,0.0,0.0,0.0,0.0,0.0,0.0,0.0,0.0,0.0,0.0,0.0,0.0,0.0,0.0,0.0,0.0,0.0,0.0,0.0,0.0,0.0,0.0,0.0,0.0,0.0,0.0,0.0,0.0,0.0,0.0,0.0,0.0,0.0,0.0,0.0,0.0,0.0,0.0,0.0,0.0,0.0,0.0,0.0,0.0,0.0,0.0,0.0,-5.1172,-5.1138,-5.1444,-5.2065,-5.1611,-5.0911,-5.0033,-4.9504,0.0,0.0,0.0,0.0,0.0,0.0,0.0,0.0,0.0,0.0,0.0,0.0,0.0,0.0,0.0,0.0,0.0,0.0,0.0,0.0,0.0,0.0,0.0,0.0,0.0,0.0,0.0,-3.7544,0.0,0.0,0.0,0.0,0.0,0.0,0.0,0.0,0.0,0.0,0.0,0.0,0.0,0.0,-5.1978,-5.3331,-5.3653,-5.3721,0.0,0.0,-5.3518,-5.3518,-5.3518,-5.3128,0.0,0.0,0.0,0.0,0.0,0.0,0.0,0.0,0.0,0.0,0.0,0.0,0.0,0.0,0.0,0.0,0.0,0.0,0.0,0.0,0.0,0.0,0.0,0.0,0.0,0.0,0.0,0.0,0.0,0.0,0.0,0.0,0.0,0.0,0.0,0.0,0.0,0.0,0.0,0.0,0.0,0.0,0.0,0.0,0.0,0.0,0.0,0.0,0.0,0.0,0.0,0.0,0.0,0.0,-4.8225,-5.0963,-5.1086,-5.1444,-5.2065,-5.2065,-5.1393,-5.0072,-4.9993,-4.9563,0.0,0.0,0.0,0.0,0.0,0.0,0.0,0.0,0.0,0.0,0.0,0.0,0.0,0.0,0.0,0.0,0.0,0.0,0.0,0.0,0.0,0.0,0.0,0.0,0.0,0.0,0.0,0.0,0.0,0.0,0.0,0.0,0.0,0.0,0.0,0.0,0.0,0.0,0.0,0.0,0.0,-5.2536,-5.3382,-5.4093,-5.4279,0.0,-5.3518,-5.3518,-5.3518,-5.3501,-5.3195,-5.2383,0.0,0.0,0.0,0.0,0.0,0.0,0.0,0.0,0.0,0.0,0.0,0.0,0.0,0.0,0.0,0.0,0.0,0.0,0.0,0.0,0.0,0.0,0.0,0.0,0.0,0.0,0.0,0.0,0.0,0.0,0.0,0.0,0.0,0.0,0.0,0.0,0.0,0.0,0.0,0.0,0.0,0.0,0.0,0.0,0.0,0.0,0.0,0.0,0.0,0.0,0.0,0.0,0.0,-4.8707,-5.1189,-5.1155,-5.1661,-5.2707,-5.2317,-5.1838,-5.1325,-5.0445,-4.9879,0.0,0.0,0.0,0.0,0.0,0.0,0.0,0.0,0.0,0.0,0.0,0.0,0.0,0.0,0.0,0.0,0.0,0.0,0.0,0.0,0.0,0.0,0.0,0.0,0.0,0.0,0.0,0.0,-4.0736,-4.1715,-4.2142,0.0,0.0,0.0,0.0,0.0,0.0,0.0,0.0,0.0,0.0,-5.3145,-5.3467,-5.4126,0.0,0.0,-5.3518,-5.3518,-5.3518,-5.3264,-5.3026,-5.2574,-5.1411,0.0,0.0,0.0,0.0,0.0,0.0,0.0,0.0,0.0,0.0,0.0,0.0,0.0,0.0,0.0,0.0,0.0,0.0,0.0,0.0,0.0,0.0,0.0,0.0,0.0,0.0,0.0,0.0,0.0,0.0,0.0,0.0,0.0,0.0,0.0,0.0,0.0,0.0,0.0,0.0,0.0,0.0,0.0,0.0,0.0,0.0,0.0,0.0,0.0,0.0,0.0,0.0,-4.9153,-5.0981,-5.1241,-5.1874,-5.2813,-5.2554,-5.2317,-5.2065,-5.0981,-5.0241,0.0,0.0,0.0,0.0,0.0,0.0,0.0,0.0,0.0,0.0,0.0,0.0,0.0,0.0,0.0,0.0,0.0,0.0,0.0,0.0,0.0,0.0,0.0,0.0,0.0,0.0,0.0,0.0,-4.289,-4.3668,-4.3041,0.0,0.0,0.0,0.0,0.0,0.0,0.0,0.0,0.0,0.0,-5.3754,-5.3551,-5.4126,-5.4329,-5.3619,-5.3518,-5.3484,-5.3416,-5.3146,-5.2805,-5.2644,0.0,0.0,0.0,0.0,0.0,0.0,0.0,0.0,0.0,0.0,0.0,0.0,0.0,0.0,0.0,0.0,0.0,0.0,0.0,0.0,0.0,0.0,0.0,0.0,0.0,0.0,0.0,0.0,0.0,0.0,-4.1309,0.0,0.0,0.0,0.0,0.0,0.0,0.0,0.0,0.0,0.0,0.0,0.0,0.0,0.0,0.0,0.0,0.0,0.0,0.0,0.0,0.0,0.0,-4.9562,-5.0331,-5.1462,-5.2065,-5.2177,-5.2831,-5.2831,-5.2159,-5.1444,-5.0716,-5.0033,0.0,0.0,0.0,0.0,0.0,0.0,0.0,0.0,0.0,0.0,0.0,0.0,0.0,0.0,0.0,0.0,0.0,0.0,0.0,0.0,0.0,0.0,0.0,0.0,0.0,0.0,-4.4772,-4.5751,-4.575,0.0,0.0,0.0,0.0,0.0,0.0,0.0,0.0,0.0,0.0,-5.3602,-5.4313,-5.3619,-5.4126,-5.4346,-5.3619,-5.3518,-5.3433,-5.328,-5.3061,-5.2857,0.0,0.0,0.0,0.0,0.0,0.0,0.0,0.0,0.0,0.0,0.0,0.0,0.0,0.0,0.0,0.0,0.0,0.0,0.0,0.0,0.0,0.0,0.0,0.0,0.0,0.0,0.0,-4.1818,-4.2028,0.0,0.0,0.0,0.0,0.0,0.0,0.0,0.0,0.0,0.0,0.0,-4.7421,-4.8633,0.0,0.0,0.0,0.0,0.0,0.0,0.0,0.0,0.0,0.0,0.0,0.0,-4.9642,-5.0742,-5.1192,-5.1889,-5.2803,-5.3094,-5.3103,-5.2813,-5.2112,-5.1223,-5.0016,0.0,0.0,0.0,0.0,0.0,0.0,0.0,0.0,0.0,0.0,0.0,0.0,0.0,0.0,0.0,0.0,0.0,0.0,0.0,0.0,0.0,0.0,0.0,0.0,0.0,-4.6495,0.0,0.0,0.0,0.0,0.0,0.0,0.0,0.0,0.0,0.0,0.0,-5.1403,-5.2909,-5.3957,-5.4329,-5.3602,-5.4126,-5.4499,0.0,0.0,0.0,0.0,0.0,0.0,0.0,0.0,0.0,0.0,0.0,0.0,0.0,0.0,-4.6685,-4.495,-4.5027,-4.5537,-4.6479,0.0,0.0,0.0,0.0,0.0,0.0,0.0,0.0,0.0,0.0,0.0,0.0,0.0,0.0,-4.3165,0.0,-4.3374,0.0,0.0,0.0,0.0,0.0,0.0,0.0,0.0,-4.7274,-4.7731,-4.8038,-5.0026,-5.0653,0.0,-5.1011,-5.0388,0.0,0.0,0.0,0.0,0.0,0.0,0.0,0.0,-4.9725,-5.0367,-5.0875,-5.1538,-5.2431,-5.2708,-5.2813,-5.2831,-5.1856,-5.0805,-4.9664,-4.8753,-4.8291,0.0,0.0,0.0,0.0,0.0,0.0,0.0,0.0,0.0,0.0,0.0,0.0,0.0,0.0,0.0,0.0,0.0,0.0,0.0,0.0,0.0,0.0,0.0,-4.7984,0.0,0.0,0.0,0.0,0.0,0.0,0.0,0.0,0.0,-5.1268,-5.1928,-5.2756,-5.3754,-5.4515,-5.4634,-5.3636,0.0,0.0,0.0,0.0,0.0,0.0,0.0,-5.3107,-5.24,-5.1738,-5.1025,-5.0151,-4.9737,-4.9613,-4.9509,0.0,0.0,-4.6356,-4.5968,-4.6241,-4.709,-4.6786,-4.6262,-4.6037,-4.6187,-4.6396,0.0,0.0,0.0,0.0,0.0,0.0,0.0,0.0,-4.4362,-4.4691,0.0,-4.5214,0.0,0.0,0.0,0.0,0.0,-4.6047,0.0,0.0,-4.7912,-4.8662,-4.8577,-5.0341,-5.1054,-5.0834,-5.1631,-5.1758,-5.115,-4.9779,0.0,0.0,0.0,0.0,0.0,0.0,-4.9913,-4.929,-5.0425,-5.1104,-5.1191,-5.1777,-5.2065,-5.2065,-5.0752,-4.9722,-4.9107,-4.8984,-4.9001,-4.8984,-4.8325,0.0,0.0,0.0,0.0,0.0,0.0,0.0,0.0,0.0,0.0,0.0,0.0,0.0,0.0,0.0,0.0,0.0,0.0,0.0,0.0,-4.854,0.0,0.0,0.0,0.0,0.0,0.0,0.0,0.0,0.0,0.0,-5.3551,-5.4076,-5.4583,-5.4668,0.0,0.0,0.0,0.0,-5.4634,-5.4685,-5.526,-5.5559,-5.5202,-5.5051,-5.4628,-5.3449,0.0,0.0,-4.9642,-4.9419,-4.9524,-4.9344,-4.9209,-4.8835,-4.7658,-4.7359,-4.7384,-4.7399,-4.7818,-4.8012,-4.7519,-4.7638,-4.7893,-4.633,0.0,0.0,0.0,0.0,-4.3748,-4.4227,-4.5065,-4.5544,-4.5574,-4.5289,-4.5289,0.0,0.0,0.0,0.0,0.0,0.0,-4.6556,-4.6981,-4.7528,-4.7673,-4.7714,-4.8232,-4.9154,-5.0532,-5.226,-5.2706,-5.1995,-5.1572,-5.0811,-4.9779,0.0,0.0,0.0,0.0,-4.935,-4.9341,-4.9971,-5.0749,-5.1597,-5.1434,-5.1393,-5.1393,-5.05,-4.9936,-4.9722,-4.9256,-4.9018,-4.9001,-4.8798,0.0,0.0,0.0,0.0,0.0,0.0,0.0,0.0,0.0,0.0,0.0,0.0,0.0,0.0,0.0,0.0,0.0,0.0,0.0,-5.0152,-5.0345,-5.0351,0.0,0.0,0.0,0.0,0.0,0.0,0.0,0.0,0.0,-5.4888,-5.4329,-5.4397,0.0,0.0,-5.5564,-5.5141,-5.5277,-5.5581,-5.6089,-5.5902,0.0,-5.6051,-5.5122,-5.383,-5.2511,-5.0985,-4.9625,-4.889,-4.9119,-4.9344,-4.9269,-4.888,-4.867,-4.9042,-4.8923,-4.8686,-4.8686,-4.8491,-4.8252,-4.8057,-4.7818,-4.7549,-4.7419,-4.6234,-4.474,-4.4511,-4.5065,-4.4825,-4.508,-4.5723,-4.6142,-4.6067,-4.558,-4.5963,-4.5893,-4.5615,-4.5505,0.0,0.0,0.0,-4.692,-4.7309,-4.7309,-4.7309,-4.7321,-4.7711,-4.8513,-4.9821,-5.1865,-5.2619,-5.215,-5.2236,-5.1843,-5.0963,0.0,0.0,-4.9124,-4.9063,-4.908,-4.9219,-4.9436,-5.0211,-5.1492,-5.1262,-5.1086,-5.1086,-5.0146,-4.9622,-4.9622,-4.9212,-4.9018,-4.9018,-4.9018,-4.8798,0.0,0.0,0.0,0.0,0.0,0.0,0.0,0.0,0.0,0.0,0.0,-4.8135,-4.7966,0.0,0.0,0.0,-4.9881,-5.0236,-5.115,-5.1169,0.0,0.0,0.0,0.0,0.0,0.0,0.0,-5.3534,-5.4228,-5.506,-5.597,-5.5378,-5.531,-5.663,-5.6427,-5.6038,-5.5767,0.0,-5.6292,-5.6731,-5.6701,-5.6526,-5.6237,-5.4656,-5.3034,-5.1726,-5.0128,-4.9083,-4.8937,-4.9104,-4.9239,-4.9209,-4.894,-4.888,-4.9523,-4.9434,-4.9075,-4.8611,-4.8626,-4.8536,-4.8027,-4.7392,-4.686,-4.8141,-4.7189,-4.5963,-4.5813,-4.6337,-4.5723,-4.5783,-4.6322,-4.6381,-4.6222,-4.6032,-4.6819,-4.6793,-4.6046,-4.6912,0.0,-4.7309,-4.7309,-4.7309,-4.7309,-4.7309,-4.7309,-4.7381,-4.8232,-4.8697,-4.8825,-5.0898,-5.1905,-5.196,-5.2218,-5.2367,-5.2266,-5.0879,-4.9813,-4.9137,-4.9035,-4.9018,-4.9018,-4.9001,-4.9639,-5.0894,-5.0981,-5.0981,-5.0929,-4.9681,-4.9001,-4.9001,-4.9018,-4.9018,-4.9018,-4.9018,-4.9018,-4.8984,0.0,0.0,0.0,0.0,0.0,0.0,0.0,0.0,0.0,0.0,0.0,0.0,0.0,0.0,-5.1302,-5.1352,0.0,-5.1488,-5.1488,0.0,0.0,0.0,-5.2858,-5.3602,-5.372,-5.4207,-5.5598,0.0,0.0,-5.6748,-5.6799,-5.6816,-5.6723,-5.6723,-5.647,-5.5829,-5.6229,-5.6634,-5.6522,-5.7339,-5.7363,-5.5791,-5.3745,-5.1922,-5.0754,-4.9858,-4.9059,-4.888,-4.891,-4.8985,-4.891,-4.9,-4.9015,-4.906,-4.9075,-4.8805,-4.7593,-4.8312,-4.8805,-4.7583,-4.6739,-4.6085,-4.7523,-4.7279,-4.6965,-4.6935,-4.7055,-4.6905,-4.6636,-4.6367,-4.6845,-4.664,-4.6003,-4.6356,-4.6416,-4.6226,-4.6939,-4.7309,-4.7309,-4.7309,-4.7309,-4.7309,-4.7309,-4.7309,-4.7279,-4.757,-4.8035,-4.8876,-5.0661,-5.1684,-5.1905,-5.2771,-5.2892,-5.2283,-5.1403,-5.0574,-4.983,-4.9289,-4.9018,-4.9018,-4.9018,-4.9152,-4.9462,-4.9993,-5.0033,-4.9538,-4.9168,-4.9018,-4.9018,-4.9018,-4.9018,-4.9018,-4.9018,-4.9018,-4.9001,-4.8849,0.0,0.0,0.0,0.0,0.0,0.0,0.0,0.0,0.0,-5.0507,-5.0118,0.0,-5.2046,0.0,-5.2587,-5.3179,-5.3721,-5.3788,0.0,0.0,-5.4803,-5.4989,-5.5175,-5.548,-5.5753,-5.57,-5.6091,-5.6535,-5.6765,-5.6799,-5.6662,-5.6369,-5.6359,-5.6309,-5.6067,-5.5529,-5.5085,-5.5231,-5.6694,-5.6955,-5.4438,-5.2134,-5.0173,-4.9061,-4.8263,-4.7608,-4.7115,-4.7025,-4.7025,-4.7025,-4.7025,-4.7204,-4.7713,-4.8162,-4.8207,-4.7549,-4.7967,-4.8149,-4.6851,-4.6061,-4.5287,-4.704,-4.7309,-4.7309,-4.7309,-4.7279,-4.6995,-4.6666,-4.6352,-4.6711,-4.6506,-4.6003,-4.6506,-4.677,-4.6785,-4.7145,-4.7309,-4.7309,-4.7309,-4.7309,-4.7309,-4.7309,-4.7309,-4.7294,-4.7332,-4.757,-4.821,-4.9552,-5.0314,-5.0595,-5.201,-5.2382,-5.163,-5.136,-5.0845,-5.0084,-4.9357,-4.9018,-4.9018,-4.9316,-4.9462,-4.9462,-4.9821,-4.9821,-4.9462,-4.9152,-4.9018,-4.9018,-4.9018,-4.9018,-4.9018,-4.9018,-4.9154,-4.9458,-4.9475,-4.9644,0.0,0.0,0.0,0.0,0.0,0.0,0.0,0.0,0.0,0.0,0.0,-5.2976,-5.3298,-5.3721,-5.4296,-5.5023,-5.5091,-5.526,-5.5666,-5.6004,-5.619,-5.6207,-5.6718,-5.6972,-5.6714,-5.6921,-5.7124,-5.7256,-5.7273,-5.6892,-5.5914,-5.5336,-5.5002,-5.497,-5.4277,-5.3743,-5.3791,-5.5207,-5.5085,-5.1412,-4.9912,-4.887,-4.8022,-4.7309,-4.6815,-4.6756,-4.6501,-4.6411,-4.6696,-4.6756,-4.6875,-4.7234,-4.7578,-4.7434,-4.6108,-4.6343,-4.6649,-4.6104,-4.4789,-4.3409,-4.6666,-4.7174,-4.7279,-4.7309,-4.7264,-4.6696,-4.6456,-4.6441,-4.6456,-4.6311,-4.6267,-4.6924,-4.7309,-4.7309,-4.7309,-4.7309,-4.7309,-4.7309,-4.7309,-4.7309,-4.7309,-4.7309,-4.7309,-4.7309,-4.7309,-4.7294,-4.8293,-4.8825,-4.881,-5.0666,-5.1228,-5.0643,-5.066,-5.0452,-4.994,-4.9152,-4.8861,-4.9001,-4.9563,-4.9879,-4.9861,-4.9879,-4.9861,-4.9879,-4.9316,-4.9018,-4.9018,-4.9086,-4.9154,-4.9154,-4.9238,-4.9576,-5.0202,-5.0236,-5.0524,0.0,-5.1234,0.0,0.0,0.0,0.0,0.0,0.0,0.0,0.0,-5.3027,-5.3771,-5.4397,-5.4448,-5.4752,-5.5497,-5.5649,-5.575,-5.5869,-5.6511,-5.6917,-5.685,-5.7357,-5.7623,-5.7448,-5.7431,-5.7375,-5.7245,-5.7261,-5.6596,-5.4956,-5.3729,-5.2952,-5.2886,-5.2454,-5.2118,-5.217,-5.3117,-5.2153,-4.8679,-4.7909,-4.8025,-4.7384,-4.692,-4.6636,-4.704,-4.6681,-4.6501,-4.6995,-4.7085,-4.716,-4.7279,-4.7222,-4.6241,-4.4148,-4.4336,-4.4869,-4.4684,-4.3245,-4.1604,-4.6396,-4.6546,-4.7085,-4.7309,-4.7294,-4.7174,-4.7115,-4.713,-4.7115,-4.7115,-4.71,-4.7249,-4.7309,-4.7309,-4.7309,-4.7309,-4.7309,-4.7309,-4.7309,-4.7309,-4.7309,-4.7309,-4.7309,-4.7309,-4.7309,-4.7381,-4.8293,-4.8825,-4.881,-4.956,-4.9828,-4.965,-4.8569,-4.8311,-4.8878,0.0,0.0,0.0,-4.9107,-4.9212,-4.9229,-4.9212,-4.9212,-4.9212,-4.9063,0.0,-4.9018,-4.9576,-4.9898,-4.9898,-5.0473,0.0,0.0,0.0,0.0,0.0,0.0,0.0,0.0,0.0,0.0,0.0,-5.2824,-5.2993,-5.2401,-5.3044,-5.3568,-5.3704,-5.3704,-5.4008,-5.4718,-5.5361,-5.5953,-5.6545,-5.7239,-5.7459,-5.6917,-5.6934,-5.646,-5.5024,-5.4808,-5.4721,-5.4498,-5.3966,-5.3391,-5.2681,-5.1393,-5.0282,-4.9474,-4.9794,-4.9965,-4.9938,-5.0022,-4.9262,-4.7584,-4.7434,-4.7504,-4.7279,-4.7234,-4.6965,-4.6621,-4.6456,-4.6337,-4.6561,-4.6516,-4.6726,-4.7219,-4.6447,-4.5292,-4.3792,-4.2873,-4.2363,-4.2266,-4.1985,-4.1306,-4.5723,0.0,-4.6696,-4.6995,0.0,-4.7309,-4.7309,-4.7309,-4.7309,-4.7309,-4.7309,-4.7309,-4.7309,-4.7309,-4.7309,-4.7309,-4.7309,-4.7309,-4.7309,-4.7309,-4.7309,-4.7309,-4.7309,-4.7309,-4.7309,-4.7309,-4.7834,-4.8057,-4.8126,-4.8792,-4.8733,-4.8024,-4.7872,-4.7709,-4.7452,-4.757,-4.808,-4.9001,-4.9018,-4.9018,-4.9018,-4.9018,-4.9018,-4.9018,-4.9018,0.0,0.0,0.0,0.0,0.0,0.0,0.0,0.0,-5.1742,0.0,-5.2317,-5.2334,-5.235,-5.235,-5.2706,-5.2892,-5.2892,-5.2892,-5.2909,-5.2892,-5.3264,-5.3653,-5.4008,-5.4042,-5.4346,-5.5074,-5.548,-5.5869,-5.6241,-5.6596,-5.6664,-5.6271,-5.5777,-5.5122,-5.4253,-5.3684,-5.3272,-5.3134,-5.2829,-5.2138,-5.1078,-5.0381,-4.9374,-4.8125,-4.8087,-4.8297,-4.8297,-4.8102,-4.7818,-4.7389,-4.7327,-4.7309,-4.7294,-4.704,-4.6845,-4.6815,-4.6546,-4.6426,-4.6711,-4.6815,-4.6939,-4.7125,-4.631,-4.4627,-4.233,-4.1643,-4.1293,-4.0831,-4.0655,-4.0453,-4.496,-4.5992,-4.6232,-4.6636,-4.7145,-4.7249,-4.7309,-4.7309,0.0,0.0,0.0,-4.7309,-4.7309,-4.7309,-4.7309,-4.7309,-4.7309,-4.7309,-4.7309,-4.7309,-4.7309,-4.7309,-4.7309,-4.7309,-4.7309,-4.7309,-4.7309,-4.7309,-4.7294,-4.7912,-4.7588,-4.6636,-4.7072,-4.6903,-4.604,-4.6884,-4.7721,-4.8513,-4.8798,-4.9018,-4.9018,-4.9018,-4.9069,-4.9187,-4.9187,-4.9543,-5.027,-5.0405,-5.076,-5.1369,-5.1539,-5.1877,-5.2469,-5.2503,-5.2807,-5.3433,-5.3365,-5.3281,-5.3298,-5.3179,-5.3095,-5.3112,-5.2486,-5.2334,-5.2875,-5.3145,-5.3534,-5.4126,-5.4313,-5.4651,-5.5277,-5.5463,-5.5513,-5.553,-5.5632,-5.5612,-5.5215,-5.4449,-5.3724,-5.3248,-5.2361,-5.1852,-5.172,-5.1593,-5.119,-4.9956,-4.942,-4.9021,-4.7673,-4.7384,-4.7429,-4.7429,-4.7444,-4.7339,-4.7309,-4.7324,-4.7309,-4.7294,-4.686,-4.6711,-4.7055,-4.686,-4.6756,-4.716,-4.7207,-4.6993,-4.7151,-4.5743,-4.3686,-4.0337,-4.0517,-4.0932,-3.9981,-3.9697,-3.98,-4.4421,-4.4691,-4.5843,-4.6381,-4.6501,-4.707,-4.7309,-4.7309,-4.7309,-4.7309,-4.7309,-4.7309,-4.7309,-4.7309,-4.7309,-4.7309,-4.7309,-4.7309,-4.7309,-4.7309,-4.7309,-4.7309,-4.7309,-4.7309,-4.7309,-4.7309,-4.7309,-4.7309,-4.7174,-4.6296,-4.5687,-4.5387,-4.4539,-4.4327,-4.502,-4.5905,-4.6454,-4.6592,-4.8161,-4.9018,-4.9018,-4.9018,-4.9306,-4.9898,-4.9932,-5.0304,-5.1031,-5.164,-5.2029,-5.2164,-5.2807,-5.323,-5.3315,-5.3298,-5.3399,-5.345,-5.2858,-5.2452,-5.2452,-5.1894,-5.1539,-5.1522,-5.1437,-5.1166,-5.0659,-5.1742,-5.2503,-5.2638,-5.3247,-5.3687,-5.3839,-5.4397,-5.4752,-5.4803,-5.5327,-5.5131,-5.3622,-5.3214,-5.2205,-5.0056,-4.9415,-4.9264,-4.9078,-4.8617,-4.8496,-4.8377,-4.8207,-4.7658,-4.7441,-4.7309,-4.7309,-4.7309,-4.7309,-4.7309,-4.7309,-4.7309,-4.7309,-4.7309,-4.7219,-4.7115,-4.7264,-4.7088,-4.6957,-4.7193,-4.6344,-4.6145,-4.6818,-4.4408,-4.2008,-3.9973,-4.0019,-3.9955,-3.9685,-3.9697,-3.9697,-4.4003,-4.4362,-4.4975,-4.5663,-4.6367,-4.7025,-4.7309,-4.7309,-4.7309,-4.7309,-4.7309,-4.7309,-4.7309,-4.7309,-4.7309,-4.7309,-4.7309,-4.7309,-4.7309,-4.7309,-4.7309,-4.7309,-4.7309,-4.7309,-4.7309,-4.7294,-4.6774,-4.6625,-4.6666,-4.5768,-4.511,-4.4736,-4.3793,-4.3551,-4.3989,-4.493,-4.5416,-4.5488,-4.7323,-4.8225,-4.8242,-4.8719,-4.9357,-5.0067,-5.0101,-5.0625,-5.1758,-5.2131,-5.2317,-5.2317,-5.2655,-5.2672,-5.23,-5.2266,-5.2266,-5.2249,-5.1928,-5.1708,-5.1708,-5.1403,-5.1048,-5.0659,-5.0608,-5.0287,-4.956,-5.0862,-5.1708,-5.1742,-5.2418,-5.2841,-5.2875,-5.3551,-5.4008,-5.4008,-5.383,-5.3318,-5.2481,-5.1307,-5.0169,-4.8969,-4.8293,-4.7955,-4.78,-4.7489,-4.7384,-4.7683,-4.7459,-4.7309,-4.7309,-4.7309,-4.7309,-4.7309,-4.7309,-4.7309,-4.7309,-4.7309,-4.7309,-4.7309,-4.7309,-4.7309,-4.7222,-4.6829,-4.6344,-4.6151,-4.5207,-4.471,-4.5194,-4.3353,-4.1353,-4.002,-3.9663,-3.9685,-3.9697,-3.9697,-3.9798,-4.3614,-4.4092,-4.4257,-4.5095,-4.6367,-4.7025,-4.7309,-4.7309,-4.7309,-4.7309,-4.7309,-4.7309,-4.7309,-4.7309,-4.7309,-4.7309,-4.7309,-4.7309,-4.7309,-4.7309,-4.7309,-4.7309,-4.7279,-4.716,-4.6983,-4.6706,-4.6137,-4.5824,-4.5654,-4.5227,-4.4751,-4.4107,-4.3584,-4.3344,-4.3329,-4.4219,-4.4665,-4.4817,-4.6502,-4.7427,-4.7568,-4.8394,-4.9244,-4.9917,-5.0088,-5.071,-5.1961,-5.2063,-5.2063,-5.2046,-5.2063,-5.1809,-5.1285,-5.1234,-5.1234,-5.1217,-5.1048,-5.0896,-5.0727,-5.0727,-5.0456,-4.9898,-4.9847,-4.9593,-4.9187,-5.005,-5.0811,-5.0997,-5.1623,-5.2063,-5.2131,-5.257,-5.2993,-5.2926,-5.2224,-5.1619,-5.1222,-4.9804,-4.8661,-4.8444,-4.7764,-4.7309,-4.7309,-4.7309,-4.7324,-4.7339,-4.7309,-4.7309,-4.7309,-4.7309,-4.7309,-4.7309,-4.7309,-4.7309,-4.7309,-4.7309,-4.7309,-4.7309,-4.7309,-4.7121,-4.6829,-4.5973,-4.5312,-4.501,-4.3962,-4.3479,-4.3372,-4.2213,-4.0896,-3.993,-3.9672,-3.9697,-3.9697,-3.9848,-3.9986,-4.3374,-4.3509,-4.4047,-4.5095,-4.6322,-4.7025,-4.7309,-4.7309,-4.7309,-4.7309,-4.7309,-4.7309,-4.7309,-4.7309,-4.7309,-4.7309,-4.7309,-4.7309,-4.7309,-4.7222,-4.7309,-4.7309,-4.7133,-4.661,-4.5853,-4.5026,-4.5113,-4.4604,-4.4022,-4.4211,-4.4077,-4.3494,-4.3359,-4.3344,-4.3389,-4.3978,-4.4358,-4.4373,-4.5909,-4.6972,-4.7269,-4.8135,-4.9008,-4.97,-4.9938,-5.0456,-5.1254,-5.1319,-5.1336,-5.1319,-5.1319,-5.1268,-5.12,-5.12,-5.12,-5.1166,-5.0574,-4.9915,-4.9323,-4.9221,-4.9238,-4.912,-4.9137,-4.912,-4.9018,-4.9154,-4.9509,-5.0135,-5.0879,-5.1285,-5.1319,-5.1372,-5.1442,-5.1378,-5.0969,-5.0543,-4.9652,-4.9158,-4.8444,-4.7538,-4.7336,-4.7309,-4.7309,-4.7309,-4.7309,-4.7309,-4.7309,-4.7309,-4.7309,-4.7309,-4.7309,-4.7309,-4.7309,-4.7279,-4.7249,-4.7294,-4.7088,-4.7133,-4.7193,-4.6697,-4.584,-4.5312,-4.501,-4.3693,-4.2655,-4.2212,-4.2392,-4.1664,-4.0006,-3.989,-3.9697,-3.9697,-3.9747,-4.0011,-4.0325,-4.3344,-4.3359,-4.3614,-4.4496,-4.5768,-4.6845,-4.7309,-4.7309,-4.7309,-4.7309,-4.7309,-4.7309,-4.7309,-4.7309,-4.7309,-4.7309,-4.7309,-4.7309,-4.6931,-4.6358,-4.6931,-4.6708,-4.5566,-4.5055,-4.4458,-4.3805,-4.2265,-4.1952,-4.2953,-4.3448,-4.3584,-4.3359,-4.3344,-4.3344,-4.3359,-4.3599,-4.3913,-4.4317,-4.5324,-4.6092,-4.6683,-4.7384,-4.7961,-4.8329,-4.8892,-4.9593,-5.0309,-5.0924,-5.1014,-5.0591,-5.0557,-5.0338,-4.9915,-4.9915,-4.9915,-4.9881,-4.9627,-4.9306,-4.9035,-4.9018,-4.9018,-4.9018,-4.9018,-4.9018,-4.9018,-4.9018,-4.9154,-4.9458,-5.0118,-5.0332,-4.9875,-5.0143,-5.0191,-4.9641,-4.8925,-4.8342,-4.7993,-4.7527,-4.709,-4.6741,-4.707,-4.7309,-4.7309,-4.7309,-4.7309,-4.7309,-4.7309,-4.7309,-4.7309,-4.7309,-4.7309,-4.7294,-4.7276,-4.7021,-4.6711,-4.6301,-4.6043,-4.5712,-4.5595,-4.5182,-4.4542,-4.3504,-4.293,-4.2447,-4.1406,-4.0808,-4.1002,-4.0696,-3.9697,-3.9697,-3.9697,-3.9697,-3.9697,-3.9873,-4.0111,-4.3344,-4.3389,-4.3703,-4.4421,-4.5394,-4.6726,-4.7309,-4.7309,-4.7309,-4.7309,-4.7309,-4.7309,-4.7309,-4.7309,-4.7309,-4.7309,-4.7309,-4.7309,-4.6829,-4.6077,-4.6931,-4.6488,-4.4923,-4.4035,-4.3543,-4.2837,-4.047,-4.0023,-4.1753,-4.2538,-4.2725,-4.2467,-4.2629,-4.2805,-4.2835,-4.2953,-4.3486,-4.4347,-4.5125,-4.5738,-4.6124,-4.6638,-4.7016,-4.7151,-4.7718,-4.8286,-4.8813,-4.9726,-5.0001,-4.9463,-4.9654,-4.956,-4.9052,-4.9018,-4.9018,-4.9018,-4.9018,-4.9018,-4.9018,-4.9018,-4.9018,-4.9018,-4.9018,-4.9018,-4.9018,-4.9018,-4.8861,-4.8644,-4.9127,-4.9091,-4.8596,-4.8925,-4.876,-4.7927,-4.702,-4.6594,-4.6547,-4.6355,-4.6352,-4.6381,-4.692,-4.7309,-4.7309,-4.7309,-4.7309,-4.7309,-4.7309,-4.7309,-4.7309,-4.7309,-4.7309,-4.7294,-4.7342,-4.6896,-4.6132,-4.5198,-4.4628,-4.4414,-4.4323,-4.4205,-4.3119,-4.1994,-4.1319,-4.1219,-4.0275,-3.9916,-4.0185,-3.9928,-3.9697,-3.9697,-3.9697,-3.9697,-3.9697,-3.971,-3.986,-4.3344,-4.3509,-4.4676,-4.5185,-4.5394,-4.6741,-4.7309,-4.7309,-4.7309,-4.7309,-4.7309,-4.7309,-4.7309,-4.7309,-4.7309,-4.7309,-4.7309,-4.7309,-4.7121,-4.6931,-4.7106,-4.6864,-4.6122,-4.4485,-4.311,-4.2163,-4.0391,-3.9692,-4.0156,-4.1113,-4.1085,-4.0232,-4.1253,-4.1767,-4.1825,-4.2371,-4.3182,-4.4325,-4.5371,-4.5933,-4.5514,-4.6055,-4.6483,-4.664,-4.6523,-4.642,-4.6577,-4.7302,-4.7754,-4.7721,-4.8534,-4.899,-4.894,-4.9001,-4.9018,-4.9018,-4.9018,-4.9018,-4.9018,-4.9018,-4.9018,-4.9018,-4.9018,-4.9018,-4.9018,-4.9018,-4.8656,-4.7803,-4.7869,-4.7853,-4.7571,-4.7517,-4.7245,-4.6406,-4.6006,-4.5758,-4.5773,-4.6107,-4.6232,-4.6411,-4.6905,-4.7279,-4.7309,-4.7309,-4.7309,-4.7309,-4.7309,-4.7309,-4.7309,-4.7309,-4.7309,-4.7351,-4.7242,-4.6981,-4.6072,-4.424,-4.3452,-4.33,-4.3211,-4.3434,-4.2168,-4.1071,-4.0663,-4.0262,-3.9993,-3.9697,-3.9697,-3.9697,-3.9697,-3.9697,-3.9697,-3.9697,-3.9697,-3.9697,-3.9848,-4.3344,-4.3464,-4.4736,-4.5289,-4.5439,-4.6741,-4.7309,-4.7309,-4.7309,-4.7309,-4.7309,-4.7309,-4.7309,-4.7309,-4.7309,-4.7309,-4.7309,-4.7309,-4.6447,-4.5115,-4.5689,-4.4877,-4.2713,-4.1986,-4.1456,-4.0553,-3.9018,-3.8398,-3.8841,-3.9958,-4.0332,-4.0145,-4.1,-4.1587,-4.1645,-4.1803,-4.2733,-4.4154,-4.4118,-4.4383,-4.5221,-4.5544,-4.568,-4.5789,-4.5897,-4.5896,-4.5912,-4.6413,-4.6678,-4.6747,-4.7589,-4.808,-4.8144,-4.8656,-4.9018,-4.9018,-4.9018,-4.9018,-4.9018,-4.9018,-4.9018,-4.9018,-4.9018,-4.9018,-4.9018,-4.9001,-4.8576,-4.7803,-4.7605,-4.7172,-4.6064,-4.5778,-4.5416,-4.4617,-4.463,-4.4819,-4.4996,-4.5635,-4.6322,-4.6426,-4.6905,-4.7294,-4.7309,-4.7309,-4.7309,-4.7309,-4.7309,-4.7309,-4.7309,-4.7309,-4.7309,-4.7264,-4.7227,-4.6576,-4.4615,-4.2523,-4.1185,-4.1453,-4.1479,-4.0965,-4.0011,-4.0269,-4.0032,-4.0083,-3.9697,-3.9697,-3.9697,-3.9697,-3.9697,-3.9697,-3.9697,-3.9823,-3.9697,-3.9885,-4.0011,-4.3344,-4.3554,-4.4736,-4.5289,-4.5454,-4.6741,-4.7309,-4.7309,-4.7309,-4.7309,-4.7309,-4.7309,-4.7121,-4.6741,-4.6638,-4.6447,-4.6166,-4.6447,-4.5494,-4.3679,-4.4363,-4.3468,-4.1474,-4.0927,-4.0609,-4.0106,-3.8338,-3.7617,-3.7924,-3.9033,-3.927,-3.8854,-3.9944,-4.0462,-4.0462,-4.0462,-4.1298,-4.2458,-4.269,-4.321,-4.4147,-4.5149,-4.554,-4.5431,-4.5707,-4.5675,-4.5277,-4.5556,-4.5762,-4.5834,-4.6678,-4.7306,-4.7655,-4.8225,-4.8719,-4.894,-4.9018,-4.9018,-4.9018,-4.9018,-4.9018,-4.9018,-4.9018,-4.9007,-4.8988,-4.8728,-4.8198,-4.7599,-4.6892,-4.5992,-4.4843,-4.4557,-4.4232,-4.3558,-4.3928,-4.4317,-4.4392,-4.5514,-4.6322,-4.6696,-4.704,-4.7279,-4.7309,-4.7309,-4.7309,-4.7309,-4.7309,-4.7309,-4.7309,-4.7309,-4.7106,-4.6829,-4.7106,-4.5932,-4.3827,-4.1252,-4.0049,-4.0083,-4.0493,-3.9698,-3.9244,-3.9512,-3.9659,-3.9685,-3.9697,-3.9697,-3.9697,-3.9697,-3.9697,-3.9697,-3.9936,-4.0124,-4.0136,-4.0212,-4.0438,-4.3344,-4.3524,-4.4751,-4.5289,-4.5484,-4.6726,-4.7309,-4.7309,-4.7309,-4.7309,-4.7309,-4.7309,-4.6726,-4.5779,-4.5883,-4.4918,-4.4349,-4.5024,-4.4642,-4.3409,-4.3409,-4.3025,-4.2045,-4.1116,-4.0857,-4.092,-3.909,-3.7824,-3.7488,-3.8337,-3.821,-3.7049,-3.8018,-3.8786,-3.8277,-3.8655,-3.9038,-4.0378,-4.1695,-4.2191,-4.2147,-4.4618,-4.5826,-4.5445,-4.5898,-4.5687,-4.4533,-4.4772,-4.4936,-4.4887,-4.5753,-4.6625,-4.7323,-4.7589,-4.7933,-4.8576,-4.8877,-4.894,-4.8861,-4.8798,-4.8656,-4.8656,-4.8861,-4.8668,-4.8481,-4.8035,-4.7378,-4.6796,-4.5786,-4.4526,-4.3844,-4.4043,-4.4068,-4.3569,-4.4107,-4.4556,-4.4721,-4.5559,-4.6576,-4.71,-4.7294,-4.7309,-4.7309,-4.7309,-4.7309,-4.7309,-4.7309,-4.7309,-4.7309,-4.7309,-4.6741,-4.6031,-4.5927,-4.5219,-4.2731,-4.0214,-3.9414,-3.8948,-3.9541,-3.9485,-3.9282,-3.9308,-3.9622,-3.9697,-3.9697,-3.9697,-3.9697,-3.9697,-3.9697,-3.976,-4.0099,-4.0375,-4.0425,-4.0526,-4.1015,-4.3344,-4.3494,-4.4736,-4.5289,-4.5469,-4.6726,-4.7309,-4.7309,-4.7309,-4.7309,-4.7309,-4.7309,-4.7121,-4.6829,-4.6741,-4.5958,-4.4826,-4.4349,-4.3395,-4.235,-4.2168,-4.161,-4.0685,-4.0184,-3.9904,-3.9719,-3.9402,-3.8637,-3.7937,-3.8104,-3.7906,-3.7792,-3.8661,-3.9241,-3.9188,-3.9335,-3.9866,-4.0872,-4.0763,-4.0876,-4.1617,-4.3767,-4.4834,-4.4876,-4.5752,-4.6082,-4.5693,-4.5363,-4.4709,-4.3862,-4.5139,-4.6108,-4.6496,-4.6662,-4.6747,-4.702,-4.7104,-4.7088,-4.7088,-4.7088,-4.7155,-4.7088,-4.7088,-4.7101,-4.7059,-4.6807,-4.6333,-4.5712,-4.5042,-4.4511,-4.4153,-4.4167,-4.4242,-4.4047,-4.5005,-4.5633,-4.5723,-4.6426,-4.6995,-4.7234,-4.7309,-4.7309,-4.7309,-4.7309,-4.7309,-4.7309,-4.7309,-4.7309,-4.7309,-4.7222,-4.6829,-4.5808,-4.5298,-4.449,-4.2178,-4.073,-4.0076,-3.9303,-3.9295,-3.9535,-3.9259,-3.9283,-3.9572,-3.9697,-3.9697,-3.9697,-3.9697,-3.9697,-3.9697,-3.9885,-4.0212,-4.0413,-4.0551,-4.0858,-4.1205,-4.3464,-4.3823,-4.4855,-4.5454,-4.5768,-4.686,-4.7309,-4.7309,-4.7309,-4.7309,-4.7222,-4.6829,-4.6638,-4.6358,-4.5674,-4.4734,-4.3882,-4.2655,-4.169,-4.1032,-4.0932,-4.0465,-3.98,-3.9697,-3.9534,-3.9322,-3.9512,-3.922,-3.8354,-3.8316,-3.8216,-3.8225,-3.8761,-3.911,-3.9123,-3.9136,-3.9577,-4.0025,-3.9931,-4.0063,-4.0844,-4.2569,-4.3638,-4.3546,-4.4619,-4.5332,-4.5505,-4.5371,-4.4857,-4.4018,-4.4473,-4.5017,-4.5593,-4.5706,-4.5834,-4.6173,-4.6244,-4.6244,-4.6173,-4.6314,-4.6173,-4.6173,-4.6173,-4.608,-4.5913,-4.5753,-4.5285,-4.4434,-4.422,-4.4263,-4.4328,-4.4571,-4.4751,-4.5065,-4.5753,-4.6411,-4.6651,-4.704,-4.7264,-4.7309,-4.7309,-4.7309,-4.7309,-4.7309,-4.7309,-4.7309,-4.7309,-4.7309,-4.7207,-4.6829,-4.6046,-4.5189,-4.4411,-4.3264,-4.1886,-4.1183,-4.0773,-3.9994,-3.9386,-3.9449,-3.936,-3.9459,-3.9697,-3.9697,-3.9697,-3.9697,-3.9697,-3.971,-3.9735,-4.0036,-4.0555,-4.0877,-4.1134,-4.0807,-4.0952,-4.3718,-4.4377,-4.4923,-4.5595,-4.6222,-4.6837,-4.7121,-4.7309,-4.7309,-4.7207,-4.6931,-4.6062,-4.5403,-4.4826,-4.3409,-4.2447,-4.1591,-4.0844,-4.0364,-4.0173,-3.9968,-3.98,-3.9697,-3.9697,-3.9659,-3.9634,-3.9725,-3.9383,-3.8931,-3.8906,-3.8642,-3.8278,-3.8365,-3.814,-3.8452,-3.814,-3.8414,-3.8736,-3.9343,-3.9602,-3.9359,-4.1282,-4.2249,-4.1906,-4.304,-4.3961,-4.4457,-4.496,-4.5011,-4.4452,-4.4008,-4.4076,-4.4603,-4.4814,-4.5329,-4.5936,-4.604,-4.5945,-4.6056,-4.5794,-4.5746,-4.5746,-4.569,-4.5825,-4.5086,-4.4783,-4.4358,-4.363,-4.3488,-4.3708,-4.4332,-4.487,-4.5499,-4.6202,-4.6426,-4.6726,-4.7189,-4.7294,-4.7309,-4.7309,-4.7309,-4.7309,-4.7309,-4.7309,-4.7309,-4.7309,-4.7309,-4.7222,-4.6829,-4.6135,-4.5153,-4.4413,-4.3715,-4.3141,-4.2098,-4.208,-4.1622,-4.0967,-4.0074,-3.9622,-3.9471,-3.9597,-3.9697,-3.9697,-3.9697,-3.9697,-3.9747,-3.9798,-4.0153,-4.079,-4.1178,-4.1638,-4.1249,-4.0664,-4.0109,-4.3718,-4.428,-4.4013,-4.4873,-4.6096,-4.6079,-4.6447,-4.7207,-4.7222,-4.6638,-4.5973,-4.5598,-4.4826,-4.3975,-4.33,-4.3026,-4.2544,-4.1591,-4.1132,-4.0932,-4.007,-3.9697,-3.9697,-3.9697,-3.9697,-3.9697,-3.9697,-3.9622,-3.9484,-3.9433,-3.9346,-3.927,-3.9157,-3.9207,-3.9258,-3.9195,-3.9258,-3.9258,-3.9538,-3.9652,-3.9791,-4.0971,-4.1714,-4.1749,-4.2738,-4.3421,-4.3775,-4.4376,-4.5128,-4.563,-4.4661,-4.4128,-4.4463,-4.489,-4.508,-4.4922,-4.4923,-4.4845,-4.4739,-4.448,-4.4143,-4.4036,-4.4266,-4.3989,-4.3817,-4.3738,-4.3566,-4.3344,-4.3359,-4.3823,-4.4781,-4.5229,-4.5858,-4.6815,-4.698,-4.707,-4.7249,-4.7309,-4.7309,-4.7309,-4.7309,-4.7309,-4.7309,-4.7309,-4.7309,-4.7309,-4.7222,-4.6931,-4.6344,-4.5729,-4.4917,-4.4051,-4.3349,-4.3101,-4.2879,-4.2907,-4.2518,-4.1872,-4.0953,-4.0036,-3.9823,-3.9659,-3.9697,-3.9697,-3.9697,-3.9697,-3.9873,-3.9998,-4.0635,-4.0777,-4.0597,-4.0289,-3.9956,-3.9544,-3.8941,-4.3768,-4.3975,-4.4438,-4.5097,-4.5815,-4.5529,-4.5793,-4.6255,-4.5883,-4.5312,-4.4642,-4.3975,-4.3693,-4.3409,-4.235,-4.2266,-4.2461,-4.1406,-4.0844,-4.0655,-3.9968,-3.9685,-3.9697,-3.9697,-3.9697,-3.9697,-3.9697,-3.9697,-3.9685,-3.9697,-3.9697,-3.9659,-3.9697,-3.9697,-3.9647,-3.9697,-3.9697,-3.9685,-3.9697,-3.9697,-3.9788,-4.0364,-4.0743,-4.0932,-4.1591,-4.207,-4.267,-4.3772,-4.5026,-4.5728,-4.5319,-4.4721,-4.4766,-4.5065,-4.511,-4.4736,-4.4736,-4.4616,-4.4302,-4.3928,-4.3629,-4.3404,-4.3344,-4.3344,-4.3404,-4.3539,-4.3703,-4.3374,-4.3793,-4.4496,-4.517,-4.5768,-4.6456,-4.7115,-4.7309,-4.7309,-4.7309,-4.7309,-4.7309,-4.7309,-4.7309,-4.7309,-4.7309,-4.7309,-4.7309,-4.7309,-4.7309,-4.6638,-4.5793,-4.5238,-4.4562,-4.36,-4.2879,-4.2562,-4.283,-4.3,-4.2713,-4.2154,-4.1442,-4.0551,-4.0036,-3.976,-3.9697,-3.9697,-3.9697,-3.9772,-3.9869,-3.9767,-3.9389,-3.9285,-3.9042,-3.8942,-3.8711,-3.7994,-3.7396,-4.3782,-4.3443,-4.5286,-4.5786,-4.5255,-4.5278,-4.5201,-4.5024,-4.4163,-4.3598,-4.3122,-4.2168,-4.2266,-4.293,-4.0932,-4.0351,-4.1319,-4.0364,-3.9993,-3.989,-3.9697,-3.9697,-3.9697,-3.9697,-3.9697,-3.9697,-3.9697,-3.9697,-3.9697,-3.9697,-3.9697,-3.9697,-3.9697,-3.9697,-3.9697,-3.9697,-3.9697,-3.9697,-3.9697,-3.9697,-3.9697,-3.989,-3.9993,-3.9981,-3.9981,-4.0743,-4.1866,-4.3128,-4.4522,-4.5898,-4.5585,-4.5439,-4.5424,-4.5439,-4.5469,-4.5439,-4.5379,-4.514,-4.4541,-4.4362,-4.3973,-4.3479,-4.3344,-4.3404,-4.3554,-4.3928,-4.4077,-4.3808,-4.4646,-4.5155,-4.5589,-4.6531,-4.7085,-4.7309,-4.7309,-4.7309,-4.7309,-4.7309,-4.7309,-4.7309,-4.7309,-4.7309,-4.7309,-4.7309,-4.7309,-4.7309,-4.7121,-4.6358,-4.5456,-4.4772,-4.3914,-4.2903,-4.2307,-4.1948,-4.2399,-4.3035,-4.2695,-4.2208,-4.1605,-4.0865,-4.0174,-3.9873,-3.9747,-3.9594,-3.9245,-3.9315,-3.9705,-3.9279,-3.8342,-3.7572,-3.7219,-3.7395,-3.758,-3.6399,-3.5571,-4.2719,-4.2773,-4.4125,-4.4377,-4.4087,-4.4464,-4.4408,-4.3882,-4.3598,-4.2834,-4.207,-4.169,-4.1219,-4.0554,-4.0083,-3.989,-4.0173,-3.989,-3.9697,-3.9697,-3.9697,-3.9697,-3.9697,-3.9697,-3.9697,-3.9697,-3.9697,-3.9697,-3.9697,-3.9697,-3.9697,-3.9697,-3.9697,-3.9697,-3.9697,-3.9697,-3.9697,-3.9697,-3.9697,-3.9697,-3.9697,-3.9697,-3.9697,-3.9697,-3.9697,-4.0364,-4.1306,-4.195,-4.2835,-4.4011,-4.5288,-4.5813,-4.5988,-4.6446,-4.6516,-4.6202,-4.6082,-4.5798,-4.517,-4.4661,-4.4047,-4.3509,-4.3509,-4.3554,-4.4077,-4.4257,-4.4556,-4.4736,-4.5155,-4.5633,-4.6112,-4.6815,-4.7219,-4.7309,-4.7309,-4.7309,-4.7309,-4.7309,-4.7309,-4.7309,-4.7309,-4.7309,-4.7309,-4.7309,-4.7309,-4.7309,-4.6829,-4.6166,-4.5217,-4.4317,-4.3373,-4.242,-4.2265,-4.2088,-4.2536,-4.2974,-4.276,-4.2421,-4.1869,-4.1404,-4.0714,-3.9994,-3.9919,-3.9303,-3.8582,-3.8709,-3.8764,-3.7926,-3.677,-3.6038,-3.5414,-3.5838,-3.5886,-3.4726,-3.4258,-4.2125,-4.1774,-4.3314,-4.341,-4.2722,-4.2966,-4.2939,-4.2501,-4.1985,-4.1319,-4.0831,-4.0756,-4.0364,-3.9697,-3.9697,-3.9697,-3.9697,-3.9697,-3.9697,-3.9697,-3.9697,-3.9697,-3.9697,-3.9697,-3.9697,-3.9697,-3.9697,-3.9697,-3.9697,-3.9697,-3.9697,-3.9697,-3.9697,-3.9697,-3.9697,-3.9697,-3.9697,-3.9697,-3.9697,-3.9697,-3.9697,-3.9697,-3.9697,-3.9697,-3.9697,-4.0083,-4.0655,-4.1306,-4.1874,-4.2849,-4.4132,-4.5271,-4.5947,-4.6723,-4.6983,-4.6875,-4.6785,-4.6471,-4.5843,-4.5424,-4.487,-4.3868,-4.4047,-4.4197,-4.4556,-4.4811,-4.5185,-4.5439,-4.5843,-4.6441,-4.6756,-4.7025,-4.7279,-4.7309,-4.7309,-4.7309,-4.7309,-4.7309,-4.7309,-4.7309,-4.7309,-4.7309,-4.7309,-4.7309,-4.7222,-4.7207,-4.627,-4.5642,-4.485,-4.3966,-4.3148,-4.2422,-4.2351,-4.2424,-4.2811,-4.2961,-4.2911,-4.261,-4.2258,-4.1919,-4.1492,-4.0783,-4.0034,-3.9197,-3.8258,-3.7296,-3.7165,-3.6115,-3.5402,-3.4694,-3.4427,-3.4575,-3.4487,-3.4017,-3.3776,-4.1512,-4.0638,-4.2627,-4.2636,-4.1432,-4.1723,-4.1623,-4.1119,-4.0173,-3.9981,-3.9697,-3.9697,-3.9788,-3.9697,-3.9697,-3.9697,-3.9697,-3.9697,-3.9697,-3.9697,-3.9697,-3.9697,-3.9697,-3.9697,-3.9697,-3.9697,-3.9697,-3.9697,-3.9697,-3.9697,-3.9697,-3.9697,-3.9697,-3.9697,-3.9697,-3.9697,-3.9697,-3.9697,-3.9697,-3.9697,-3.9697,-3.9697,-3.9697,-3.9697,-3.9697,-3.9697,-4.0083,-4.0655,-4.1306,-4.1419,-4.2544,-4.3693,-4.4826,-4.6166,-4.7019,-4.6989,-4.7046,-4.6875,-4.6352,-4.6127,-4.5678,-4.4586,-4.49,-4.5065,-4.502,-4.5529,-4.5903,-4.6157,-4.6501,-4.713,-4.7294,-4.7294,-4.7294,-4.7309,-4.7309,-4.7309,-4.7309,-4.7309,-4.7309,-4.7309,-4.7309,-4.7309,-4.7309,-4.7309,-4.7207,-4.6931,-4.5898,-4.5068,-4.4249,-4.3647,-4.2958,-4.2557,-4.2481,-4.2536,-4.2911,-4.2974,-4.2924,-4.2811,-4.2534,-4.2308,-4.2082,-4.1618,-4.0645,-3.9002,-3.7881,-3.6928,-3.5815,-3.4772,-3.4108,-3.3458,-3.3524,-3.3878,-3.3776,-3.3408,-3.3418,-4.0452,-4.002,-4.2404,-4.2108,-4.0402,-4.1716,-4.1422,-4.0121,-3.9788,-3.9697,-3.9697,-3.9697,-3.9697,-3.9697,-3.9697,-3.9697,-3.9697,-3.9697,-3.9697,-3.9697,-3.9697,-3.9697,-3.9697,-3.9697,-3.9697,-3.9697,-3.9697,-3.9697,-3.9697,-3.9697,-3.9697,-3.9697,-3.9697,-3.9697,-3.9697,-3.9697,-3.9697,-3.9697,-3.9697,-3.9697,-3.9697,-3.9697,-3.9697,-3.9697,-3.9697,-3.9697,-3.9697,-3.989,-3.9981,-4.0173,-4.1219,-4.1887,-4.2751,-4.4456,-4.5494,-4.5869,-4.6447,-4.6562,-4.6088,-4.6081,-4.5848,-4.5364,-4.5251,-4.5565,-4.5873,-4.6202,-4.6501,-4.6845,-4.701,-4.7309,-4.7309,-4.7309,-4.7309,-4.7309,-4.7309,-4.7309,-4.7309,-4.7309,-4.7309,-4.7309,-4.7309,-4.7309,-4.7222,-4.7019,-4.6638,-4.615,-4.5195,-4.4341,-4.3458,-4.3211,-4.2904,-4.271,-4.2695,-4.2785,-4.2974,-4.2986,-4.2961,-4.2961,-4.276,-4.235,-4.2248,-4.217,-4.1171,-3.9092,-3.7402,-3.615,-3.5059,-3.3741,-3.3497,-3.3351,-3.3336,-3.3408,-3.3418,-3.3418,-3.3418,-3.9948,-3.9863,-4.1042,-4.0759,-3.9991,-4.0645,-4.0632,-3.9825,-3.9697,-3.9697,-3.9697,-3.9697,-3.9697,-3.9697,-3.9697,-3.9697,-3.9697,-3.9697,-3.9697,-3.9697,-3.9697,-3.9697,-3.9697,-3.9697,-3.9697,-3.9697,-3.9697,-3.9697,-3.9697,-3.9697,-3.9697,-3.9697,-3.9697,-3.9697,-3.9697,-3.9697,-3.9697,-3.9697,-3.9697,-3.9697,-3.9697,-3.9697,-3.9697,-3.9697,-3.9697,-3.9697,-3.9697,-3.9697,-3.9697,-3.9788,-4.0275,-4.0554,-4.1219,-4.2266,-4.3787,-4.4349,-4.501,-4.5288,-4.491,-4.4823,-4.4758,-4.4893,-4.5068,-4.5691,-4.6241,-4.6606,-4.695,-4.7189,-4.7309,-4.7309,-4.7309,-4.7309,-4.7309,-4.7309,-4.7309,-4.7309,-4.7309,-4.7309,-4.7309,-4.7309,-4.7309,-4.7222,-4.7121,-4.6741,-4.6077,-4.5321,-4.4537,-4.3639,-4.2677,-4.2618,-4.2644,-4.2843,-4.2785,-4.2848,-4.2986,-4.2986,-4.2986,-4.2986,-4.2837,-4.2538,-4.1866,-4.1569,-4.0431,-3.8646,-3.7042,-3.5736,-3.3851,-3.2504,-3.2804,-3.3162,-3.3377,-3.3408,-3.3418,-3.3418,-3.3418,-3.9697,-3.9697,-3.9697,-3.9697,-3.9697,-3.9697,-3.971,-3.9697,-3.9697,-3.9697,-3.9697,-3.9697,-3.9697,-3.9697,-3.9697,-3.9697,-3.9697,-3.9697,-3.9697,-3.9697,-3.9697,-3.9697,-3.9697,-3.9697,-3.9697,-3.9697,-3.9697,-3.9697,-3.9697,-3.9697,-3.9697,-3.9697,-3.9697,-3.9697,-3.9697,-3.9697,-3.9697,-3.9697,-3.9697,-3.9697,-3.9697,-3.9697,-3.9697,-3.9697,-3.9697,-3.9697,-3.9697,-3.9697,-3.9697,-3.9697,-3.98,-3.98,-3.989,-4.0655,-4.1703,-4.2558,-4.3122,-4.349,-4.3571,-4.3651,-4.3975,-4.4234,-4.4724,-4.5312,-4.6151,-4.6691,-4.7279,-4.7309,-4.7309,-4.7309,-4.7309,-4.7309,-4.7309,-4.7309,-4.7309,-4.7309,-4.7309,-4.7309,-4.7309,-4.7309,-4.7309,-4.7222,-4.7207,-4.6255,-4.5598,-4.4546,-4.3767,-4.3005,-4.2242,-4.2345,-4.246,-4.2831,-4.2936,-4.2936,-4.2986,-4.2986,-4.2986,-4.2986,-4.2862,-4.2538,-4.1586,-4.0739,-3.9452,-3.8216,-3.7055,-3.5629,-3.3497,-3.2105,-3.2666,-3.3172,-3.3281,-3.3408,-3.3408,-3.3418,-3.3418,-3.9697,-3.9697,-3.9697,-3.9697,-3.9697,-3.9697,-3.9697,-3.9697,-3.9697,-3.9697,-3.9697,-3.9697,-3.9697,-3.9697,-3.9697,-3.9697,-3.9697,-3.9697,-3.9697,-3.9697,-3.9697,-3.9697,-3.9697,-3.9697,-3.9697,-3.9697,-3.9697,-3.9697,-3.9697,-3.9697,-3.9697,-3.9697,-3.9697,-3.9697,-3.9697,-3.9697,-3.9697,-3.9697,-3.9697,-3.9697,-3.9697,-3.9697,-3.9697,-3.9697,-3.9697,-3.9697,-3.9697,-3.9697,-3.9697,-3.9697,-3.9697,-3.9697,-3.9697,-3.9788,-3.9981,-4.0743,-4.1985,-4.349,-4.3204,-4.3026,-4.3204,-4.3391,-4.3637,-4.4307,-4.5273,-4.6403,-4.7121,-4.7309,-4.7309,-4.7309,-4.7309,-4.7309,-4.7309,-4.7309,-4.7309,-4.7309,-4.7309,-4.7309,-4.7309,-4.7309,-4.7309,-4.7309,-4.7222,-4.6077,-4.5052,-4.4024,-4.2973,-4.2317,-4.2013,-4.222,-4.2359,-4.2798,-4.2986,-4.2986,-4.2986,-4.2986,-4.2986,-4.2986,-4.2862,-4.2375,-4.0949,-3.9756,-3.9159,-3.7977,-3.6687,-3.5717,-3.443,-3.3566,-3.3243,-3.3181,-3.3301,-3.3389,-3.3418,-3.3418,-3.3418,-3.9697,-3.9697,-3.9697,-3.9697,-3.9697,-3.9697,-3.9697,-3.9697,-3.9697,-3.9697,-3.9697,-3.9697,-3.9697,-3.9697,-3.9697,-3.9697,-3.9697,-3.9697,-3.9697,-3.9697,-3.9697,-3.9697,-3.9697,-3.9697,-3.9697,-3.9697,-3.9697,-3.9697,-3.9697,-3.9697,-3.9697,-3.9697,-3.9697,-3.9697,-3.9697,-3.9697,-3.9697,-3.9697,-3.9697,-3.9697,-3.9697,-3.9697,-3.9697,-3.9697,-3.9697,-3.9697,-3.9697,-3.9697,-3.9697,-3.9697,-3.9697,-3.9697,-3.9697,-3.9697,-3.9697,-3.9788,-4.0655,-4.1219,-4.1319,-4.1419,-4.1789,-4.2266,-4.2544,-4.2999,-4.4256,-4.5403,-4.6255,-4.6166,-4.6931,-4.7207,-4.7222,-4.7309,-4.7309,-4.7309,-4.7309,-4.7309,-4.7309,-4.7309,-4.7309,-4.7309,-4.7309,-4.7309,-4.6931,-4.5403,-4.4499,-4.3792,-4.2877,-4.2046,-4.2024,-4.228,-4.2572,-4.2898,-4.2986,-4.2986,-4.2986,-4.2986,-4.2986,-4.2986,-4.2986,-4.2137,-4.0001,-3.8817,-3.8212,-3.6781,-3.4985,-3.4523,-3.479,-3.4328,-3.3414,-3.3368,-3.3446,-3.3369,-3.3418,-3.3418,-3.3418,-3.9484,-3.9496,-3.9634,-3.9697,-3.9697,-3.9697,-3.9697,-3.9697,-3.9697,-3.9697,-3.9697,-3.9697,-3.9697,-3.9697,-3.9697,-3.9697,-3.9697,-3.9697,-3.9697,-3.9697,-3.9697,-3.9697,-3.9697,-3.9697,-3.9697,-3.9697,-3.9697,-3.9697,-3.9697,-3.9697,-3.9697,-3.9697,-3.9697,-3.9697,-3.9697,-3.9697,-3.9697,-3.9697,-3.9697,-3.9697,-3.9697,-3.9697,-3.9697,-3.9697,-3.9697,-3.9697,-3.9697,-3.9697,-3.9697,-3.9697,-3.9697,-3.9697,-3.9697,-3.9697,-3.9697,-3.9697,-4.0083,-4.0083,-4.0083,-4.0083,-4.0275,-4.0831,-4.1591,-4.2168,-4.293,-4.4163,-4.4932,-4.4932,-4.6062,-4.655,-4.6931,-4.7019,-4.7309,-4.7309,-4.7309,-4.7309,-4.7309,-4.7207,-4.7207,-4.7309,-4.7309,-4.7309,-4.655,-4.4826,-4.3857,-4.3506,-4.2698,-4.18,-4.2041,-4.2509,-4.271,-4.2986,-4.2986,-4.2986,-4.2986,-4.2986,-4.2986,-4.2986,-4.2986,-4.1785,-3.9522,-3.8093,-3.7254,-3.5581,-3.366,-3.3611,-3.4107,-3.3707,-3.3418,-3.3389,-3.3369,-3.3389,-3.3418,-3.3418,-3.3418,-3.8931,-3.8956,-3.9471,-3.9659,-3.9672,-3.9697,-3.9697,-3.9697,-3.9697,-3.9697,-3.9697,-3.9697,-3.9697,-3.9697,-3.9697,-3.9697,-3.9697,-3.9697,-3.9697,-3.9697,-3.9697,-3.9697,-3.9697,-3.9697,-3.9697,-3.9697,-3.9697,-3.9697,-3.9697,-3.9697,-3.9697,-3.9697,-3.9697,-3.9697,-3.9697,-3.9697,-3.9697,-3.9697,-3.9697,-3.9697,-3.9697,-3.9697,-3.9697,-3.9697,-3.9697,-3.9697,-3.9697,-3.9697,-3.9697,-3.9697,-3.9697,-3.9697,-3.9697,-3.9697,-3.9697,-3.9697,-3.9697,-3.9697,-3.9697,-3.9697,-3.98,-4.0173,-4.0743,-4.1406,-4.1802,-4.293,-4.3504,-4.3787,-4.4826,-4.5403,-4.5883,-4.6447,-4.655,-4.655,-4.6358,-4.6638,-4.6638,-4.6931,-4.7019,-4.7207,-4.7309,-4.7207,-4.6683,-4.5089,-4.3937,-4.356,-4.2796,-4.1884,-4.2381,-4.2823,-4.2861,-4.2986,-4.2986,-4.2986,-4.2986,-4.2986,-4.2986,-4.2986,-4.2986,-4.1191,-3.8935,-3.7746,-3.7144,-3.4974,-3.3418,-3.3418,-3.3418,-3.3418,-3.3418,-3.3418,-3.3418,-3.3418,-3.3418,-3.3418,-3.3418,-3.917,-3.8894,-3.9107,-3.9182,-3.9207,-3.9546,-3.9697,-3.9697,-3.9697,-3.9697,-3.9697,-3.9697,-3.9697,-3.9697,-3.9697,-3.9697,-3.9697,-3.9697,-3.9697,-3.9697,-3.9697,-3.9697,-3.9697,-3.9697,-3.9697,-3.9697,-3.9697,-3.9697,-3.9697,-3.9697,-3.9697,-3.9697,-3.9697,-3.9697,-3.9697,-3.9697,-3.9697,-3.9697,-3.9697,-3.9697,-3.9697,-3.9697,-3.9697,-3.9697,-3.9697,-3.9697,-3.9697,-3.9697,-3.9697,-3.9697,-3.9697,-3.9697,-3.9697,-3.9697,-3.9697,-3.9697,-3.9697,-3.9697,-3.9697,-3.9697,-3.9697,-3.9788,-4.016,-4.0453,-4.0655,-4.1604,-4.2168,-4.2751,-4.3504,-4.4163,-4.4363,-4.4642,-4.4826,-4.4918,-4.5207,-4.5584,-4.5869,-4.6062,-4.6638,-4.6741,-4.6916,-4.6916,-4.6342,-4.558,-4.4575,-4.3683,-4.2827,-4.2264,-4.2654,-4.2986,-4.2986,-4.2986,-4.2986,-4.2986,-4.2986,-4.2986,-4.2986,-4.2986,-4.2986,-4.0961,-3.8935,-3.8342,-3.7385,-3.5098,-3.3418,-3.3418,-3.3418,-3.3418,-3.3418,-3.3418,-3.3418,-3.3418,-3.3418,-3.3418,-3.3418,-3.912,-3.8655,-3.8793,-3.8868,-3.8931,-3.9283,-3.9534,-3.9685,-3.9697,-3.9697,-3.9697,-3.9697,-3.9697,-3.9697,-3.9697,-3.9697,-3.9697,-3.9697,-3.9697,-3.9697,-3.9697,-3.9697,-3.9697,-3.9697,-3.9697,-3.9697,-3.9697,-3.9697,-3.9697,-3.9697,-3.9697,-3.9697,-3.9697,-3.9697,-3.9697,-3.9697,-3.9697,-3.9697,-3.9697,-3.9697,-3.9697,-3.9697,-3.9697,-3.9697,-3.9697,-3.9697,-3.9697,-3.9697,-3.9697,-3.9697,-3.9697,-3.9697,-3.9697,-3.9697,-3.9697,-3.9697,-3.9697,-3.9697,-3.9697,-3.9697,-3.9697,-3.9685,-3.9685,-3.9788,-3.9981,-4.0554,-4.0932,-4.1132,-4.2181,-4.293,-4.3026,-4.3409,-4.3868,-4.4163,-4.4069,-4.4349,-4.4642,-4.4932,-4.5689,-4.6255,-4.6151,-4.5689,-4.5648,-4.4978,-4.4358,-4.3485,-4.2853,-4.243,-4.2818,-4.2986,-4.2986,-4.2986,-4.2986,-4.2986,-4.2986,-4.2986,-4.2986,-4.2986,-4.2625,-4.1076,-3.9534,-3.871,-3.7034,-3.4622,-3.3418,-3.3418,-3.3418,-3.3418,-3.3418,-3.3418,-3.3418,-3.3418,-3.3418,-3.3418,-3.3418,-3.8555,-3.8128,-3.8592,-3.8806,-3.8768,-3.8868,-3.9207,-3.9659,-3.9697,-3.9697,-3.9697,-3.9697,-3.9697,-3.9697,-3.9697,-3.9697,-3.9697,-3.9697,-3.9697,-3.9697,-3.9697,-3.9697,-3.9697,-3.9697,-3.9697,-3.9697,-3.9697,-3.9697,-3.9697,-3.9697,-3.9697,-3.9697,-3.9697,-3.9697,-3.9697,-3.9697,-3.9697,-3.9697,-3.9697,-3.9697,-3.9697,-3.9697,-3.9697,-3.9697,-3.9697,-3.9697,-3.9697,-3.9697,-3.9697,-3.9697,-3.9697,-3.9697,-3.9697,-3.9697,-3.9697,-3.9697,-3.9697,-3.9697,-3.9697,-3.9697,-3.9697,-3.9697,-3.9697,-3.9697,-3.9697,-3.989,-3.9968,-4.0262,-4.1019,-4.1604,-4.1985,-4.2558,-4.2834,-4.2917,-4.2821,-4.3013,-4.3313,-4.3598,-4.427,-4.5115,-4.4549,-4.3923,-4.416,-4.4098,-4.3747,-4.3101,-4.269,-4.2629,-4.296,-4.2986,-4.2986,-4.2986,-4.2986,-4.2986,-4.2986,-4.2986,-4.2986,-4.2986,-4.2263,-4.0719,-3.9357,-3.8238,-3.6279,-3.3942,-3.3525,-3.3623,-3.3525,-3.3428,-3.3418,-3.3418,-3.3418,-3.3418,-3.3418,-3.3418,-3.3418,-3.8316,-3.7487,-3.7676,-3.7751,-3.7864,-3.8567,-3.9182,-3.9634,-3.9697,-3.9697,-3.9697,-3.9697,-3.9697,-3.9697,-3.9697,-3.9697,-3.9697,-3.9697,-3.9697,-3.9697,-3.9697,-3.9697,-3.9697,-3.9697,-3.9697,-3.9697,-3.9697,-3.9697,-3.9697,-3.9697,-3.9697,-3.9697,-3.9697,-3.9697,-3.9697,-3.9697,-3.9697,-3.9697,-3.9697,-3.9697,-3.9697,-3.9697,-3.9697,-3.9697,-3.9697,-3.9697,-3.9697,-3.9697,-3.9697,-3.9697,-3.9697,-3.9697,-3.9697,-3.9697,-3.9697,-3.9697,-3.9697,-3.9697,-3.9697,-3.9697,-3.9697,-3.9697,-3.9697,-3.9697,-3.9697,-3.9697,-3.9697,-3.9697,-4.0173,-4.0453,-4.0554,-4.0655,-4.0844,-4.0831,-4.0831,-4.1406,-4.1789,-4.2084,-4.2655,-4.3598,-4.3598,-4.3321,-4.3377,-4.3466,-4.3035,-4.3076,-4.2663,-4.2743,-4.2886,-4.2961,-4.2986,-4.2986,-4.2986,-4.2986,-4.2986,-4.2986,-4.2986,-4.2986,-4.1911,-4.0245,-3.9026,-3.7879,-3.6236,-3.4231,-3.3975,-3.3838,-3.3603,-3.3486,-3.3467,-3.3418,-3.3418,-3.3418,-3.3418,-3.3418,-3.3418,-3.8216,-3.7224,-3.7186,-3.7186,-3.7324,-3.8178,-3.8981,-3.9597,-3.9697,-3.9697,-3.9697,-3.9697,-3.9697,-3.9697,-3.9697,-3.9697,-3.9697,-3.9697,-3.9697,-3.9697,-3.9697,-3.9697,-3.9697,-3.9697,-3.9697,-3.9697,-3.9697,-3.9697,-3.9697,-3.9697,-3.9697,-3.9697,-3.9697,-3.9697,-3.9697,-3.9697,-3.9697,-3.9697,-3.9697,-3.9697,-3.9697,-3.9697,-3.9697,-3.9697,-3.9697,-3.9697,-3.9697,-3.9697,-3.9697,-3.9697,-3.9697,-3.9697,-3.9697,-3.9697,-3.9697,-3.9697,-3.9697,-3.9697,-3.9697,-3.9697,-3.9697,-3.9697,-3.9697,-3.9697,-3.9697,-3.9697,-3.9697,-3.9697,-3.9697,-3.9697,-3.9788,-3.9697,-3.9697,-3.9788,-3.9981,-4.0554,-4.0655,-4.1032,-4.1505,-4.2363,-4.2552,-4.2435,-4.2722,-4.269,-4.2486,-4.2654,-4.2685,-4.2811,-4.2898,-4.2949,-4.2986,-4.2986,-4.2986,-4.2986,-4.2986,-4.2986,-4.2986,-4.2986,-4.1594,-3.9978,-3.8777,-3.7656,-3.6039,-3.4764,-3.4526,-3.4219,-3.3856,-3.369,-3.3506,-3.3369,-3.3418,-3.3418,-3.3418,-3.3418,-3.3418,-3.8165,-3.7224,-3.7149,-3.7136,-3.7249,-3.7739,-3.8605,-3.9622,-3.9685,-3.9697,-3.9697,-3.9697,-3.9697,-3.9697,-3.9697,-3.9697,-3.9697,-3.9697,-3.9697,-3.9697,-3.9697,-3.9697,-3.9697,-3.9697,-3.9697,-3.9697,-3.9697,-3.9697,-3.9697,-3.9697,-3.9697,-3.9697,-3.9697,-3.9697,-3.9697,-3.9697,-3.9697,-3.9697,-3.9697,-3.9697,-3.9697,-3.9697,-3.9697,-3.9697,-3.9697,-3.9697,-3.9697,-3.9697,-3.9697,-3.9697,-3.9697,-3.9697,-3.9697,-3.9697,-3.9697,-3.9697,-3.9697,-3.9697,-3.9697,-3.9697,-3.9697,-3.9697,-3.9697,-3.9697,-3.9697,-3.9697,-3.9697,-3.9697,-3.9697,-3.9697,-3.9697,-3.9697,-3.9697,-3.9697,-3.9697,-3.989,-3.989,-4.0173,-4.0554,-4.0922,-4.0798,-4.0936,-4.1711,-4.1844,-4.2509,-4.2672,-4.2848,-4.2873,-4.2949,-4.2949,-4.2986,-4.2986,-4.2986,-4.2986,-4.2986,-4.2986,-4.2986,-4.2986,-4.128,-3.9705,-3.8629,-3.7498,-3.6111,-3.507,-3.4848,-3.46,-3.4167,-3.3756,-3.3386,-3.3388,-3.3389,-3.3418,-3.3418,-3.3418,-3.3418,-3.7249,-3.6621,-3.6596,-3.6596,-3.6684,-3.7186,-3.8065,-3.9069,-3.9496,-3.9697,-3.9697,-3.9697,-3.9697,-3.9697,-3.9697,-3.9697,-3.9697,-3.9697,-3.9697,-3.9697,-3.9697,-3.9697,-3.9697,-3.9697,-3.9697,-3.9697,-3.9697,-3.9697,-3.9697,-3.9697,-3.9697,-3.9697,-3.9697,-3.9697,-3.9697,-3.9697,-3.9697,-3.9697,-3.9697,-3.9697,-3.9697,-3.9697,-3.9697,-3.9697,-3.9697,-3.9697,-3.9697,-3.9697,-3.9697,-3.9697,-3.9697,-3.9697,-3.9697,-3.9697,-3.9697,-3.9697,-3.9697,-3.9697,-3.9697,-3.9697,-3.9697,-3.9697,-3.9697,-3.9697,-3.9697,-3.9697,-3.9697,-3.9697,-3.9697,-3.9697,-3.9697,-3.9697,-3.9697,-3.9697,-3.9697,-3.9697,-3.9697,-3.9788,-4.0198,-4.0337,-4.0216,-4.0845,-4.148,-4.2183,-4.2785,-4.2911,-4.2986,-4.2986,-4.2986,-4.2986,-4.2986,-4.2986,-4.2986,-4.2986,-4.2986,-4.2986,-4.2986,-4.2775,-4.0981,-3.9448,-3.842,-3.7307,-3.6032,-3.5382,-3.5318,-3.4932,-3.442,-3.4057,-3.3911,-3.3543,-3.3378,-3.3379,-3.3418,-3.3418,-3.3418,-3.686,-3.6395,-3.637,-3.637,-3.6458,-3.6948,-3.7726,-3.8542,-3.9132,-3.9459,-3.9685,-3.9697,-3.9697,-3.9697,-3.9697,-3.9697,-3.9697,-3.9697,-3.9697,-3.9697,-3.9697,-3.9697,-3.9697,-3.9697,-3.9697,-3.9697,-3.9697,-3.9697,-3.9697,-3.9697,-3.9697,-3.9697,-3.9697,-3.9697,-3.9697,-3.9697,-3.9697,-3.9697,-3.9697,-3.9697,-3.9697,-3.9697,-3.9697,-3.9697,-3.9697,-3.9697,-3.9697,-3.9697,-3.9697,-3.9697,-3.9697,-3.9697,-3.9697,-3.9697,-3.9697,-3.9697,-3.9697,-3.9697,-3.9697,-3.9697,-3.9697,-3.9697,-3.9697,-3.9697,-3.9697,-3.9697,-3.9697,-3.9697,-3.9697,-3.9697,-3.9697,-3.9697,-3.9697,-3.9697,-3.9697,-3.9697,-3.9697,-3.9697,-3.9885,-4.0136,-4.0614,-4.1216,-4.1894,-4.2585,-4.2986,-4.2986,-4.2986,-4.2986,-4.2986,-4.2986,-4.2986,-4.2986,-4.2986,-4.2986,-4.2986,-4.2874,-4.265,-4.2046,-4.0434,-3.9039,-3.8168,-3.7137,-3.5858,-3.5622,-3.5808,-3.5351,-3.501,-3.4824,-3.4629,-3.4109,-3.3582,-3.3544,-3.3535,-3.3418,-3.3418,-3.6822,-3.637,-3.637,-3.637,-3.642,-3.6885,-3.745,-3.804,-3.8592,-3.9145,-3.9609,-3.9697,-3.9697,-3.9697,-3.9697,-3.9697,-3.9697,-3.9697,-3.9697,-3.9697,-3.9697,-3.9697,-3.9697,-3.9697,-3.9697,-3.9697,-3.9697,-3.9697,-3.9697,-3.9697,-3.9697,-3.9697,-3.9697,-3.9697,-3.9697,-3.9697,-3.9697,-3.9697,-3.9697,-3.9697,-3.9697,-3.9697,-3.9697,-3.9697,-3.9697,-3.9697,-3.9697,-3.9697,-3.9697,-3.9697,-3.9697,-3.9697,-3.9697,-3.9697,-3.9697,-3.9697,-3.9697,-3.9697,-3.9697,-3.9697,-3.9697,-3.9697,-3.9697,-3.9697,-3.9697,-3.9697,-3.9697,-3.9697,-3.9697,-3.9697,-3.9697,-3.9697,-3.9697,-3.9785,-3.986,-3.991,-3.9986,-4.0111,-4.04,-4.0689,-4.1103,-4.1668,-4.1982,-4.2622,-4.2974,-4.2986,-4.2986,-4.2986,-4.2986,-4.2986,-4.2986,-4.2986,-4.2986,-4.2986,-4.2986,-4.2762,-4.2098,-4.1201,-3.9756,-3.8763,-3.7984,-3.6917,-3.5691,-3.5732,-3.5995,-3.5936,-3.5701,-3.5426,-3.4951,-3.457,-3.407,-3.3896,-3.3701,-3.3516,-3.3418,-3.6483,-3.637,-3.637,-3.637,-3.6383,-3.6496,-3.7123,-3.799,-3.814,-3.8793,-3.9559,-3.9697,-3.9697,-3.9697,-3.9697,-3.9697,-3.9697,-3.9697,-3.9697,-3.9697,-3.9697,-3.9697,-3.9697,-3.9697,-3.9697,-3.9697,-3.9697,-3.9697,-3.9697,-3.9697,-3.9697,-3.9697,-3.9697,-3.9697,-3.9697,-3.9697,-3.9697,-3.9697,-3.9697,-3.9697,-3.9697,-3.9697,-3.9697,-3.9697,-3.9697,-3.9697,-3.9697,-3.9697,-3.9697,-3.9697,-3.9697,-3.9697,-3.9697,-3.9697,-3.9697,-3.9697,-3.9697,-3.9697,-3.9581,-3.9581,-3.9581,-3.9594,-3.9594,-3.9697,-3.9697,-3.9697,-3.9697,-3.9697,-3.9697,-3.9697,-3.9697,-3.9697,-3.9722,-3.986,-4.0049,-4.0162,-4.0287,-4.0601,-4.0915,-4.1279,-4.1656,-4.1944,-4.2233,-4.2534,-4.2848,-4.2986,-4.2986,-4.2986,-4.2986,-4.2986,-4.2986,-4.2986,-4.2986,-4.2986,-4.2986,-4.2675,-4.2034,-4.1115,-3.9968,-3.888,-3.7771,-3.676,-3.581,-3.5908,-3.5976,-3.6044,-3.5916,-3.5527,-3.5052,-3.4873,-3.4463,-3.4121,-3.3848,-3.3652,-3.3516,-3.637,-3.637,-3.637,-3.637,-3.637,-3.637,-3.6985,-3.7877,-3.8002,-3.8642,-3.9597,-3.9697,-3.9697,-3.9697,-3.9697,-3.9697,-3.9697,-3.9697,-3.9697,-3.9697,-3.9697,-3.9697,-3.9697,-3.9697,-3.9697,-3.9697,-3.9697,-3.9697,-3.9697,-3.9697,-3.9697,-3.9697,-3.9697,-3.9697,-3.9697,-3.9697,-3.9697,-3.9697,-3.9697,-3.9697,-3.9697,-3.9697,-3.9697,-3.9697,-3.9697,-3.9697,-3.9697,-3.9697,-3.9697,-3.9362,-3.9025,-3.9258,-3.9245,-3.9025,-3.9129,-3.9465,-3.9594,-3.9465,-3.9129,-3.9129,-3.9141,-3.9025,-3.9478,-3.9478,-3.9697,-3.9697,-3.9697,-3.9697,-3.9697,-3.9697,-3.9697,-3.9697,-3.9697,-3.9785,-4.0174,-4.0463,-4.0714,-4.1028,-4.1367,-4.1731,-4.202,-4.2221,-4.2484,-4.271,-4.2974,-4.2986,-4.2986,-4.2986,-4.2986,-4.2986,-4.2986,-4.2986,-4.2986,-4.2986,-4.2986,-4.26,-4.1993,-4.1023,-3.9889,-3.8485,-3.7205,-3.6519,-3.6025,-3.6025,-3.6025,-3.6016,-3.5859,-3.5635,-3.5671,-3.5569,-3.4956,-3.4326,-3.4053,-3.375,-3.3555,-3.637,-3.637,-3.637,-3.637,-3.637,-3.637,-3.6985,-3.7889,-3.8015,-3.8642,-3.9609,-3.9697,-3.9697,-3.9697,-3.9697,-3.9697,-3.9697,-3.9697,-3.9697,-3.9697,-3.9697,-3.9697,-3.9697,-3.9697,-3.9697,-3.9697,-3.9697,-3.9697,-3.9697,-3.9697,-3.9697,-3.9697,-3.9697,-3.9697,-3.9697,-3.9697,-3.9697,-3.9697,-3.9697,-3.9697,-3.9697,-3.9697,-3.9697,-3.9697,-3.9697,-3.9581,-3.9478,-3.9362,-3.9362,-3.8804,-3.8137,-3.8465,-3.8582,-3.8348,-3.8137,-3.8477,-3.8477,-3.7926,-3.7701,-3.8043,-3.782,-3.7926,-3.8804,-3.9129,-3.9025,-3.9037,-3.9025,-3.9129,-3.9129,-3.9581,-3.9594,-3.9606,-3.9606,-3.9885,-4.0337,-4.094,-4.1279,-4.1568,-4.1894,-4.2233,-4.2371,-4.2547,-4.2698,-4.2924,-4.2974,-4.2986,-4.2986,-4.2986,-4.2986,-4.2986,-4.2986,-4.2986,-4.2986,-4.2986,-4.2986,-4.1862,-4.0985,-4.0356,-3.9095,-3.7866,-3.684,-3.6285,-3.6025,-3.6025,-3.6025,-3.5996,-3.5908,-3.5713,-3.5923,-3.5717,-3.4975,-3.4238,-3.4072,-3.3779,-3.3535,-3.637,-3.637,-3.637,-3.637,-3.637,-3.637,-3.6985,-3.7889,-3.8015,-3.8642,-3.9484,-3.9697,-3.9697,-3.9697,-3.9697,-3.9697,-3.9697,-3.9697,-3.9697,-3.9697,-3.9697,-3.9697,-3.9697,-3.9697,-3.9697,-3.9697,-3.9697,-3.9697,-3.9697,-3.9697,-3.9697,-3.9697,-3.9697,-3.9697,-3.9697,-3.9697,-3.9594,-3.9478,-3.9362,-3.9362,-3.9374,-3.9478,-3.9697,-3.9697,-3.9697,-3.8921,-3.836,-3.7914,-3.7156,-3.6715,-3.693,-3.7358,-3.7465,-3.7358,-3.7037,-3.6823,-3.6834,-3.6391,-3.6271,-3.6499,-3.6283,-3.5956,-3.6487,-3.6572,-3.6584,-3.6595,-3.6692,-3.6883,-3.7335,-3.9025,-3.9374,-3.9449,-3.9603,-4.0107,-4.0651,-4.158,-4.2233,-4.2396,-4.261,-4.2723,-4.276,-4.2836,-4.2861,-4.2974,-4.2974,-4.2986,-4.2986,-4.2986,-4.2986,-4.2986,-4.2974,-4.2762,-4.2762,-4.2974,-4.2849,-4.0523,-3.9372,-3.8929,-3.8406,-3.7253,-3.6529,-3.6199,-3.6025,-3.6025,-3.5976,-3.6063,-3.5965,-3.5818,-3.5312,-3.5029,-3.4662,-3.4092,-3.3965,-3.3789,-3.3525]},{"header":{"parameterUnit":"m.s-1","parameterCategory":1,"la1":31.0,"la2":29.5877,"lo1":-88.7671,"lo2":-86.6584,"dy":0.0162,"dx":0.0185,"nx":115,"ny":88,"refTime":"2023-10-09T18:00:00:Z","depth":0,"parameterNumber":3,"parameterNumberName":"V-component_of_WINDS"},"data":[0.0,0.0,0.0,0.0,0.0,0.0,0.0,0.0,0.0,0.0,0.0,0.0,0.0,0.0,0.0,0.0,0.0,0.0,0.0,0.0,0.0,0.0,0.0,0.0,0.0,0.0,0.0,0.0,0.0,0.0,0.0,0.0,0.0,0.0,0.0,0.0,0.0,0.0,0.0,0.0,0.0,0.0,0.0,0.0,0.0,0.0,0.0,0.0,0.0,0.0,0.0,0.0,0.0,0.0,0.0,0.0,0.0,0.0,0.0,0.0,0.0,0.0,0.0,0.0,0.0,0.0,0.0,0.0,0.0,0.0,0.0,0.0,0.0,0.0,0.0,0.0,0.0,0.0,0.0,0.0,0.0,0.0,0.0,0.0,0.0,0.0,0.0,0.0,0.0,0.0,0.0,0.0,0.0,0.0,0.0,0.0,0.0,0.0,0.0,0.0,0.0,0.0,0.0,0.0,0.0,0.0,0.0,0.0,0.0,0.0,0.0,0.0,0.0,0.0,0.0,0.0,0.0,0.0,0.0,0.0,0.0,0.0,0.0,0.0,0.0,0.0,0.0,0.0,0.0,0.0,0.0,0.0,0.0,0.0,0.0,0.0,0.0,0.0,0.0,0.0,0.0,0.0,0.0,0.0,0.0,0.0,0.0,0.0,0.0,0.0,0.0,0.0,0.0,0.0,0.0,0.0,0.0,0.0,0.0,0.0,0.0,0.0,0.0,0.0,0.0,0.0,0.0,0.0,0.0,0.0,0.0,0.0,0.0,0.0,0.0,0.0,0.0,0.0,0.0,0.0,0.0,0.0,0.0,0.0,0.0,0.0,0.0,0.0,0.0,0.0,0.0,0.0,0.0,0.0,0.0,0.0,0.0,0.0,0.0,0.0,0.0,0.0,0.0,0.0,0.0,0.0,0.0,0.0,0.0,0.0,0.0,0.0,0.0,0.0,0.0,0.0,0.0,0.0,0.0,0.0,0.0,0.0,0.0,0.0,0.0,0.0,0.0,0.0,0.0,0.0,0.0,0.0,0.0,0.0,0.0,0.0,0.0,0.0,0.0,0.0,0.0,0.0,0.0,0.0,0.0,0.0,0.0,0.0,0.0,0.0,0.0,0.0,0.0,0.0,0.0,0.0,0.0,0.0,0.0,0.0,0.0,0.0,0.0,0.0,0.0,0.0,0.0,0.0,0.0,0.0,0.0,0.0,0.0,0.0,0.0,0.0,0.0,0.0,0.0,0.0,0.0,0.0,0.0,0.0,0.0,0.0,0.0,0.0,0.0,0.0,0.0,0.0,0.0,0.0,0.0,0.0,0.0,0.0,0.0,0.0,0.0,0.0,0.0,0.0,0.0,0.0,0.0,0.0,0.0,0.0,0.0,0.0,0.0,0.0,0.0,0.0,0.0,0.0,0.0,0.0,0.0,0.0,0.0,0.0,0.0,0.0,0.0,0.0,0.0,0.0,0.0,0.0,0.0,0.0,0.0,0.0,0.0,0.0,0.0,0.0,0.0,0.0,0.0,0.0,0.0,0.0,0.0,0.0,0.0,0.0,0.0,0.0,0.0,0.0,0.0,0.0,0.0,0.0,0.0,0.0,0.0,0.0,0.0,0.0,0.0,0.0,0.0,0.0,0.0,0.0,0.0,0.0,0.0,0.0,0.0,0.0,0.0,0.0,0.0,0.0,0.0,0.0,0.0,0.0,0.0,0.0,0.0,0.0,0.0,0.0,0.0,0.0,0.0,0.0,0.0,0.0,0.0,0.0,0.0,0.0,0.0,0.0,0.0,0.0,0.0,0.0,0.0,0.0,0.0,0.0,0.0,0.0,0.0,0.0,0.0,0.0,0.0,0.0,0.0,0.0,0.0,0.0,0.0,0.0,0.0,0.0,0.0,0.0,0.0,0.0,0.0,0.0,0.0,0.0,0.0,0.0,0.0,0.0,0.0,0.0,0.0,0.0,0.0,0.0,0.0,0.0,0.0,0.0,0.0,0.0,0.0,0.0,0.0,0.0,0.0,0.0,0.0,0.0,0.0,0.0,0.0,0.0,0.0,0.0,0.0,0.0,0.0,0.0,0.0,0.0,0.0,0.0,0.0,0.0,0.0,0.0,0.0,0.0,0.0,0.0,0.0,0.0,0.0,0.0,0.0,0.0,0.0,0.0,0.0,0.0,0.0,0.0,0.0,0.0,0.0,0.0,0.0,0.0,0.0,0.0,0.0,0.0,0.0,0.0,0.0,0.0,0.0,0.0,0.0,0.0,0.0,0.0,0.0,0.0,0.0,0.0,0.0,0.0,0.0,0.0,0.0,0.0,0.0,0.0,0.0,0.0,0.0,0.0,0.0,0.0,0.0,0.0,0.0,0.0,0.0,0.0,0.0,0.0,0.0,0.0,0.0,0.0,0.0,0.0,0.0,0.0,0.0,0.0,0.0,0.0,0.0,0.0,0.0,0.0,0.0,0.0,0.0,0.0,0.0,0.0,0.0,0.0,0.0,0.0,0.0,0.0,0.0,0.0,0.0,0.0,0.0,0.0,0.0,0.0,0.0,0.0,0.0,0.0,0.0,0.0,0.0,0.0,0.0,0.0,0.0,0.0,0.0,0.0,0.0,0.0,0.0,0.0,0.0,0.0,0.0,0.0,0.0,0.0,0.0,0.0,0.0,0.0,0.0,0.0,0.0,0.0,0.0,0.0,0.0,0.0,0.0,0.0,0.0,0.0,0.0,0.0,0.0,0.0,0.0,0.0,0.0,0.0,0.0,0.0,0.0,0.0,0.0,0.0,0.0,0.0,0.0,0.0,0.0,0.0,0.0,0.0,0.0,0.0,0.0,0.0,0.0,0.0,0.0,0.0,0.0,0.0,0.0,0.0,0.0,0.0,0.0,0.0,0.0,0.0,0.0,0.0,0.0,0.0,0.0,0.0,0.0,0.0,0.0,0.0,0.0,0.0,0.0,0.0,0.0,0.0,0.0,0.0,0.0,0.0,0.0,0.0,0.0,0.0,0.0,0.0,0.0,0.0,0.0,0.0,0.0,0.0,0.0,0.0,0.0,0.0,0.0,0.0,0.0,0.0,0.0,0.0,0.0,0.0,0.0,0.0,0.0,0.0,0.0,0.0,0.0,0.0,0.0,0.0,0.0,0.0,0.0,0.0,0.0,0.0,0.0,0.0,0.0,0.0,0.0,0.0,0.0,0.0,0.0,0.0,0.0,0.0,0.0,0.0,0.0,0.0,0.0,0.0,0.0,0.0,0.0,0.0,0.0,0.0,0.0,0.0,0.0,0.0,0.0,0.0,0.0,0.0,0.0,0.0,0.0,0.0,0.0,0.0,0.0,0.0,0.0,0.0,0.0,0.0,0.0,0.0,0.0,0.0,0.0,0.0,0.0,0.0,0.0,0.0,0.0,0.0,0.0,0.0,0.0,0.0,0.0,0.0,0.0,0.0,0.0,0.0,0.0,0.0,0.0,0.0,0.0,0.0,0.0,0.0,0.0,0.0,0.0,0.0,0.0,0.0,0.0,0.0,0.0,0.0,0.0,0.0,0.0,0.0,0.0,0.0,0.0,0.0,0.0,0.0,0.0,0.0,0.0,0.0,0.0,0.0,0.0,0.0,0.0,0.0,0.0,0.0,0.0,0.0,0.0,0.0,0.0,0.0,0.0,0.0,0.0,0.0,0.0,0.0,0.0,0.0,0.0,0.0,0.0,0.0,0.0,0.0,0.0,0.0,0.0,0.0,0.0,0.0,0.0,0.0,0.0,0.0,0.0,0.0,0.0,0.0,0.0,0.0,0.0,0.0,0.0,0.0,0.0,0.0,0.0,0.0,0.0,0.0,0.0,0.0,0.0,0.0,0.0,0.0,0.0,0.0,0.0,0.0,0.0,0.0,0.0,0.0,0.0,0.0,0.0,0.0,0.0,0.0,0.0,0.0,0.0,0.0,0.0,0.0,0.0,0.0,0.0,0.0,0.0,0.0,0.0,0.0,0.0,0.0,0.0,0.0,0.0,0.0,0.0,0.0,0.0,0.0,0.0,0.0,0.0,0.0,0.0,0.0,0.0,0.0,0.0,0.0,0.0,0.0,0.0,0.0,0.0,0.0,0.0,0.0,0.0,0.0,0.0,0.0,0.0,0.0,0.0,0.0,0.0,0.0,0.0,0.0,0.0,0.0,0.0,0.0,0.0,0.0,0.0,0.0,0.0,0.0,0.0,0.0,0.0,0.0,0.0,0.0,0.0,0.0,0.0,0.0,0.0,0.0,0.0,0.0,0.0,0.0,-2.929,0.0,0.0,0.0,0.0,0.0,0.0,0.0,0.0,0.0,0.0,0.0,0.0,0.0,0.0,0.0,0.0,0.0,0.0,0.0,0.0,0.0,0.0,0.0,0.0,0.0,0.0,0.0,0.0,0.0,0.0,0.0,0.0,0.0,0.0,0.0,0.0,0.0,0.0,0.0,0.0,0.0,0.0,0.0,0.0,0.0,0.0,0.0,0.0,0.0,0.0,0.0,0.0,0.0,0.0,0.0,0.0,0.0,0.0,0.0,0.0,0.0,0.0,0.0,0.0,0.0,0.0,0.0,0.0,0.0,0.0,0.0,0.0,0.0,0.0,0.0,0.0,0.0,0.0,0.0,0.0,0.0,0.0,0.0,0.0,0.0,0.0,0.0,0.0,0.0,0.0,0.0,0.0,0.0,0.0,0.0,0.0,0.0,0.0,0.0,0.0,0.0,0.0,0.0,0.0,0.0,0.0,0.0,0.0,0.0,0.0,-2.64,-2.6496,-2.7347,-2.7998,-2.8466,0.0,0.0,0.0,0.0,0.0,0.0,0.0,0.0,0.0,0.0,0.0,0.0,0.0,0.0,0.0,0.0,0.0,0.0,0.0,0.0,0.0,0.0,0.0,0.0,0.0,0.0,0.0,0.0,0.0,0.0,0.0,0.0,0.0,0.0,0.0,0.0,0.0,0.0,0.0,0.0,0.0,0.0,0.0,0.0,0.0,0.0,0.0,0.0,0.0,0.0,0.0,0.0,0.0,0.0,0.0,0.0,0.0,0.0,0.0,0.0,0.0,0.0,0.0,0.0,0.0,0.0,0.0,0.0,0.0,0.0,0.0,0.0,0.0,0.0,0.0,0.0,0.0,0.0,0.0,0.0,0.0,0.0,0.0,0.0,0.0,0.0,0.0,0.0,0.0,0.0,0.0,0.0,0.0,0.0,0.0,0.0,0.0,0.0,0.0,0.0,0.0,0.0,0.0,0.0,0.0,0.0,0.0,0.0,0.0,0.0,0.0,0.0,-2.7431,-2.8092,-2.8279,0.0,0.0,0.0,0.0,0.0,0.0,0.0,0.0,0.0,0.0,0.0,0.0,0.0,0.0,0.0,0.0,0.0,0.0,0.0,0.0,0.0,0.0,0.0,0.0,0.0,0.0,0.0,0.0,0.0,0.0,0.0,0.0,0.0,0.0,0.0,0.0,0.0,0.0,0.0,0.0,0.0,0.0,0.0,0.0,0.0,0.0,0.0,0.0,0.0,0.0,0.0,0.0,0.0,0.0,0.0,0.0,0.0,0.0,0.0,0.0,0.0,0.0,0.0,0.0,0.0,0.0,0.0,0.0,0.0,0.0,0.0,0.0,0.0,0.0,0.0,0.0,0.0,0.0,0.0,0.0,0.0,0.0,0.0,0.0,0.0,0.0,0.0,0.0,0.0,0.0,0.0,0.0,0.0,0.0,0.0,0.0,0.0,0.0,0.0,0.0,0.0,0.0,0.0,0.0,0.0,0.0,0.0,0.0,0.0,0.0,-2.6496,-2.6496,-2.7431,0.0,-3.0181,0.0,0.0,0.0,0.0,0.0,0.0,0.0,0.0,0.0,0.0,0.0,0.0,0.0,0.0,0.0,0.0,0.0,0.0,0.0,0.0,0.0,0.0,0.0,0.0,0.0,0.0,0.0,0.0,0.0,0.0,0.0,0.0,0.0,0.0,0.0,0.0,0.0,0.0,0.0,0.0,0.0,0.0,0.0,0.0,0.0,0.0,0.0,0.0,0.0,0.0,0.0,0.0,0.0,0.0,0.0,0.0,0.0,0.0,0.0,0.0,0.0,0.0,0.0,0.0,0.0,0.0,0.0,0.0,0.0,0.0,0.0,0.0,0.0,0.0,0.0,0.0,0.0,0.0,0.0,0.0,0.0,0.0,0.0,0.0,0.0,0.0,0.0,0.0,0.0,0.0,0.0,0.0,0.0,0.0,0.0,0.0,0.0,0.0,0.0,0.0,0.0,0.0,0.0,0.0,0.0,0.0,0.0,0.0,0.0,0.0,-2.639,-2.6496,-2.7704,-2.8951,0.0,0.0,0.0,0.0,0.0,0.0,0.0,0.0,0.0,0.0,0.0,0.0,0.0,0.0,0.0,0.0,0.0,0.0,0.0,0.0,0.0,0.0,0.0,0.0,0.0,0.0,0.0,0.0,0.0,0.0,0.0,0.0,0.0,0.0,0.0,0.0,0.0,0.0,0.0,0.0,0.0,0.0,0.0,0.0,0.0,0.0,0.0,0.0,0.0,0.0,0.0,0.0,0.0,0.0,0.0,0.0,0.0,0.0,0.0,0.0,0.0,0.0,0.0,0.0,0.0,0.0,0.0,0.0,0.0,0.0,0.0,0.0,0.0,0.0,0.0,0.0,0.0,0.0,0.0,0.0,0.0,0.0,0.0,0.0,0.0,0.0,0.0,0.0,0.0,0.0,0.0,0.0,0.0,0.0,0.0,0.0,0.0,0.0,0.0,0.0,0.0,0.0,0.0,0.0,0.0,0.0,0.0,0.0,0.0,0.0,-2.613,-2.6294,-2.6784,-2.7998,-2.902,-2.9731,0.0,0.0,0.0,0.0,0.0,0.0,0.0,0.0,0.0,0.0,0.0,0.0,0.0,0.0,0.0,0.0,0.0,0.0,0.0,0.0,0.0,0.0,0.0,0.0,0.0,0.0,0.0,0.0,0.0,0.0,0.0,0.0,0.0,0.0,0.0,0.0,0.0,0.0,0.0,0.0,0.0,0.0,0.0,0.0,0.0,0.0,0.0,0.0,0.0,0.0,0.0,0.0,0.0,0.0,0.0,0.0,0.0,0.0,0.0,0.0,0.0,0.0,0.0,0.0,0.0,0.0,0.0,0.0,0.0,0.0,0.0,0.0,0.0,0.0,0.0,0.0,0.0,0.0,0.0,0.0,0.0,0.0,0.0,0.0,0.0,0.0,0.0,0.0,0.0,0.0,0.0,0.0,0.0,0.0,0.0,0.0,0.0,0.0,0.0,0.0,0.0,0.0,0.0,0.0,0.0,0.0,0.0,0.0,-2.61,-2.61,-2.6486,-2.7262,-2.8008,-2.8828,0.0,0.0,0.0,0.0,0.0,0.0,0.0,0.0,0.0,0.0,0.0,0.0,0.0,0.0,0.0,0.0,0.0,0.0,0.0,0.0,0.0,0.0,0.0,0.0,0.0,0.0,0.0,0.0,0.0,0.0,0.0,0.0,0.0,0.0,0.0,0.0,0.0,0.0,0.0,0.0,0.0,0.0,0.0,0.0,0.0,0.0,0.0,0.0,0.0,0.0,0.0,0.0,0.0,0.0,0.0,0.0,0.0,0.0,0.0,0.0,0.0,0.0,0.0,0.0,0.0,0.0,0.0,0.0,0.0,0.0,0.0,0.0,0.0,0.0,0.0,0.0,0.0,0.0,0.0,0.0,0.0,0.0,0.0,0.0,0.0,0.0,0.0,0.0,0.0,0.0,0.0,0.0,0.0,0.0,0.0,0.0,0.0,0.0,0.0,0.0,0.0,0.0,0.0,0.0,0.0,0.0,0.0,0.0,0.0,-2.582,-2.6197,-2.6582,-2.7061,-2.7914,-2.8746,0.0,0.0,0.0,0.0,0.0,0.0,0.0,0.0,0.0,0.0,0.0,0.0,0.0,0.0,0.0,0.0,0.0,0.0,0.0,0.0,0.0,0.0,0.0,0.0,0.0,0.0,0.0,0.0,0.0,0.0,0.0,0.0,0.0,0.0,0.0,0.0,0.0,0.0,0.0,0.0,0.0,0.0,0.0,0.0,0.0,0.0,0.0,0.0,0.0,0.0,0.0,0.0,0.0,0.0,0.0,0.0,0.0,0.0,0.0,0.0,0.0,0.0,0.0,0.0,0.0,0.0,0.0,0.0,0.0,0.0,0.0,0.0,0.0,0.0,0.0,0.0,0.0,0.0,0.0,0.0,0.0,0.0,0.0,0.0,0.0,0.0,0.0,0.0,0.0,0.0,0.0,0.0,0.0,0.0,0.0,0.0,0.0,0.0,0.0,0.0,0.0,0.0,0.0,0.0,0.0,0.0,0.0,0.0,0.0,-2.5742,0.0,-2.6592,-2.6764,-2.7715,-2.8571,0.0,0.0,0.0,0.0,0.0,0.0,0.0,0.0,0.0,0.0,0.0,0.0,0.0,0.0,0.0,0.0,0.0,0.0,0.0,0.0,0.0,0.0,0.0,0.0,0.0,0.0,0.0,0.0,0.0,0.0,0.0,0.0,0.0,0.0,0.0,0.0,0.0,0.0,0.0,0.0,0.0,0.0,0.0,0.0,0.0,0.0,0.0,0.0,0.0,0.0,0.0,0.0,0.0,0.0,0.0,0.0,0.0,0.0,0.0,0.0,0.0,0.0,0.0,0.0,0.0,0.0,0.0,0.0,0.0,0.0,0.0,0.0,0.0,0.0,0.0,0.0,0.0,0.0,0.0,0.0,0.0,0.0,0.0,0.0,0.0,0.0,0.0,0.0,0.0,0.0,0.0,0.0,0.0,0.0,0.0,0.0,0.0,0.0,0.0,0.0,0.0,0.0,0.0,0.0,0.0,0.0,0.0,0.0,-2.5752,-2.5752,-2.6237,-2.6547,-2.6506,-2.7462,-2.8384,0.0,0.0,0.0,0.0,0.0,0.0,0.0,0.0,0.0,0.0,0.0,0.0,0.0,0.0,0.0,0.0,0.0,0.0,0.0,0.0,0.0,0.0,0.0,0.0,0.0,0.0,0.0,0.0,0.0,0.0,0.0,0.0,0.0,0.0,0.0,0.0,0.0,0.0,0.0,0.0,0.0,0.0,0.0,0.0,0.0,0.0,0.0,0.0,0.0,0.0,0.0,0.0,0.0,0.0,0.0,0.0,0.0,0.0,0.0,0.0,0.0,0.0,0.0,0.0,0.0,0.0,0.0,0.0,0.0,0.0,0.0,0.0,0.0,0.0,0.0,0.0,0.0,0.0,0.0,0.0,0.0,0.0,0.0,0.0,0.0,0.0,0.0,0.0,0.0,0.0,0.0,0.0,0.0,0.0,0.0,0.0,0.0,0.0,0.0,0.0,0.0,0.0,0.0,0.0,0.0,0.0,0.0,0.0,0.0,-2.6182,-2.6566,-2.6903,-2.7371,-2.7893,-2.8583,0.0,0.0,0.0,0.0,0.0,0.0,0.0,0.0,0.0,0.0,0.0,0.0,0.0,0.0,0.0,0.0,0.0,0.0,0.0,0.0,0.0,0.0,0.0,0.0,0.0,0.0,0.0,0.0,0.0,0.0,0.0,0.0,0.0,0.0,0.0,0.0,0.0,0.0,0.0,0.0,0.0,0.0,0.0,0.0,0.0,0.0,0.0,0.0,0.0,0.0,0.0,0.0,0.0,0.0,0.0,0.0,0.0,0.0,0.0,0.0,0.0,0.0,0.0,0.0,0.0,0.0,0.0,0.0,0.0,0.0,0.0,0.0,0.0,0.0,0.0,0.0,0.0,0.0,0.0,0.0,0.0,0.0,0.0,0.0,0.0,0.0,0.0,0.0,0.0,0.0,0.0,0.0,0.0,0.0,0.0,0.0,0.0,0.0,0.0,0.0,0.0,0.0,0.0,0.0,0.0,0.0,0.0,0.0,0.0,-2.6846,-2.7159,-2.7401,-2.7814,-2.8294,-2.8877,-2.9287,0.0,0.0,0.0,0.0,0.0,0.0,0.0,0.0,0.0,0.0,0.0,0.0,0.0,0.0,0.0,0.0,0.0,0.0,0.0,0.0,0.0,0.0,0.0,0.0,0.0,0.0,0.0,0.0,0.0,0.0,0.0,0.0,0.0,0.0,0.0,0.0,0.0,0.0,0.0,0.0,0.0,0.0,0.0,0.0,0.0,0.0,0.0,0.0,0.0,0.0,0.0,0.0,0.0,0.0,0.0,0.0,0.0,0.0,0.0,0.0,0.0,0.0,0.0,0.0,0.0,0.0,0.0,0.0,0.0,0.0,0.0,0.0,0.0,0.0,0.0,0.0,0.0,0.0,0.0,0.0,0.0,0.0,0.0,0.0,0.0,0.0,0.0,0.0,0.0,0.0,0.0,0.0,0.0,0.0,0.0,0.0,0.0,0.0,0.0,0.0,0.0,0.0,0.0,0.0,0.0,0.0,0.0,0.0,-2.7695,-2.7924,-2.8068,-2.7913,-2.8717,-2.921,0.0,0.0,0.0,0.0,0.0,0.0,0.0,0.0,0.0,0.0,0.0,0.0,0.0,0.0,0.0,0.0,0.0,0.0,0.0,0.0,0.0,0.0,0.0,0.0,0.0,0.0,0.0,0.0,0.0,0.0,0.0,0.0,0.0,0.0,0.0,0.0,0.0,0.0,0.0,0.0,0.0,0.0,0.0,0.0,0.0,0.0,0.0,0.0,0.0,0.0,0.0,0.0,0.0,0.0,0.0,0.0,0.0,0.0,0.0,0.0,0.0,0.0,0.0,0.0,0.0,0.0,0.0,0.0,0.0,0.0,0.0,0.0,0.0,0.0,0.0,0.0,0.0,0.0,0.0,0.0,0.0,0.0,0.0,0.0,0.0,0.0,0.0,0.0,0.0,0.0,0.0,0.0,0.0,0.0,0.0,0.0,0.0,0.0,0.0,0.0,0.0,0.0,0.0,0.0,0.0,0.0,0.0,0.0,0.0,-2.7767,-2.8428,-2.8908,-2.9431,-2.9465,-2.9528,0.0,0.0,0.0,0.0,0.0,0.0,0.0,0.0,0.0,0.0,0.0,0.0,0.0,0.0,0.0,0.0,0.0,0.0,0.0,0.0,0.0,0.0,0.0,0.0,0.0,0.0,0.0,0.0,0.0,0.0,0.0,0.0,0.0,0.0,0.0,0.0,0.0,0.0,0.0,0.0,0.0,0.0,0.0,0.0,0.0,0.0,0.0,0.0,0.0,0.0,0.0,0.0,0.0,0.0,0.0,0.0,0.0,0.0,0.0,0.0,0.0,0.0,0.0,0.0,0.0,0.0,0.0,0.0,0.0,0.0,0.0,0.0,0.0,0.0,0.0,0.0,0.0,0.0,0.0,0.0,0.0,0.0,0.0,0.0,0.0,0.0,0.0,0.0,0.0,0.0,0.0,0.0,0.0,0.0,0.0,0.0,0.0,0.0,0.0,0.0,0.0,0.0,0.0,0.0,0.0,0.0,0.0,0.0,-2.7237,-2.8013,-2.893,-2.979,-3.0354,-2.9878,-2.9638,0.0,0.0,0.0,0.0,0.0,0.0,0.0,0.0,0.0,0.0,0.0,0.0,0.0,0.0,0.0,0.0,0.0,0.0,0.0,0.0,0.0,0.0,0.0,0.0,0.0,0.0,0.0,0.0,0.0,0.0,0.0,0.0,0.0,0.0,0.0,0.0,0.0,0.0,0.0,0.0,0.0,0.0,0.0,0.0,0.0,0.0,0.0,0.0,0.0,0.0,0.0,0.0,0.0,0.0,0.0,0.0,0.0,0.0,0.0,0.0,0.0,0.0,0.0,0.0,0.0,0.0,0.0,0.0,0.0,0.0,0.0,0.0,0.0,0.0,0.0,0.0,0.0,0.0,0.0,0.0,0.0,0.0,0.0,0.0,0.0,0.0,0.0,0.0,0.0,0.0,0.0,0.0,0.0,0.0,0.0,0.0,0.0,0.0,0.0,0.0,0.0,0.0,0.0,0.0,0.0,0.0,0.0,0.0,-2.7266,-2.7993,-2.9238,-3.0208,-3.083,-3.0227,-2.9794,0.0,0.0,0.0,0.0,0.0,0.0,0.0,0.0,0.0,0.0,0.0,0.0,0.0,0.0,0.0,0.0,0.0,0.0,0.0,0.0,0.0,0.0,0.0,0.0,0.0,0.0,0.0,0.0,0.0,0.0,0.0,0.0,0.0,0.0,0.0,0.0,0.0,0.0,0.0,0.0,0.0,0.0,0.0,0.0,0.0,0.0,0.0,0.0,0.0,0.0,0.0,0.0,0.0,0.0,0.0,0.0,0.0,0.0,0.0,0.0,0.0,0.0,0.0,0.0,0.0,0.0,0.0,0.0,0.0,0.0,0.0,0.0,0.0,0.0,0.0,0.0,0.0,0.0,0.0,0.0,0.0,0.0,0.0,0.0,0.0,0.0,0.0,0.0,0.0,0.0,0.0,0.0,0.0,0.0,0.0,0.0,0.0,0.0,0.0,0.0,0.0,0.0,0.0,0.0,0.0,0.0,0.0,0.0,-2.5331,-2.7092,-2.7331,-2.8577,-3.0859,-3.0505,-3.0166,0.0,0.0,0.0,0.0,0.0,0.0,0.0,0.0,0.0,0.0,0.0,0.0,0.0,0.0,0.0,0.0,0.0,0.0,0.0,0.0,0.0,0.0,0.0,0.0,0.0,0.0,0.0,0.0,0.0,0.0,0.0,0.0,0.0,0.0,0.0,0.0,0.0,0.0,0.0,0.0,0.0,0.0,0.0,0.0,0.0,0.0,0.0,0.0,-2.9659,0.0,0.0,0.0,0.0,0.0,0.0,0.0,0.0,0.0,0.0,0.0,0.0,0.0,0.0,0.0,0.0,0.0,0.0,0.0,0.0,0.0,0.0,0.0,0.0,0.0,0.0,0.0,0.0,0.0,0.0,0.0,0.0,0.0,0.0,0.0,0.0,0.0,0.0,0.0,0.0,0.0,0.0,0.0,0.0,0.0,0.0,0.0,0.0,0.0,0.0,0.0,0.0,0.0,0.0,0.0,0.0,0.0,0.0,0.0,-2.5567,-2.6363,-2.752,-2.8747,-3.0215,-3.0264,-3.0138,0.0,0.0,0.0,0.0,0.0,0.0,0.0,0.0,0.0,0.0,0.0,0.0,0.0,0.0,0.0,0.0,0.0,0.0,0.0,0.0,0.0,0.0,0.0,0.0,0.0,0.0,0.0,0.0,0.0,0.0,0.0,0.0,0.0,0.0,0.0,0.0,0.0,0.0,0.0,0.0,0.0,0.0,0.0,0.0,0.0,0.0,0.0,0.0,0.0,0.0,0.0,0.0,0.0,0.0,0.0,0.0,0.0,0.0,0.0,0.0,0.0,0.0,0.0,0.0,0.0,0.0,0.0,0.0,0.0,0.0,0.0,0.0,0.0,0.0,0.0,0.0,0.0,0.0,0.0,0.0,0.0,0.0,0.0,0.0,0.0,0.0,0.0,0.0,0.0,0.0,0.0,0.0,0.0,0.0,0.0,0.0,0.0,0.0,0.0,0.0,0.0,0.0,0.0,0.0,0.0,0.0,0.0,-2.4693,-2.583,-2.5639,-2.7669,-2.9026,-2.957,-2.9803,-2.9928,-3.0012,0.0,0.0,0.0,0.0,0.0,0.0,0.0,0.0,0.0,0.0,0.0,0.0,0.0,0.0,0.0,0.0,0.0,0.0,0.0,0.0,0.0,0.0,0.0,0.0,0.0,0.0,0.0,0.0,0.0,0.0,0.0,0.0,0.0,0.0,0.0,0.0,0.0,0.0,-2.5185,-2.6387,0.0,0.0,0.0,0.0,0.0,0.0,0.0,0.0,-3.06,0.0,0.0,0.0,0.0,0.0,0.0,0.0,0.0,0.0,0.0,0.0,0.0,0.0,0.0,0.0,0.0,0.0,0.0,0.0,0.0,0.0,0.0,0.0,0.0,0.0,0.0,0.0,0.0,0.0,0.0,0.0,0.0,0.0,0.0,0.0,0.0,0.0,0.0,0.0,0.0,0.0,0.0,0.0,0.0,0.0,0.0,0.0,0.0,0.0,0.0,0.0,0.0,0.0,0.0,0.0,0.0,-2.1934,-2.2012,-2.2953,-2.47,-2.5116,-2.6668,-2.9439,-2.9682,-2.9707,-2.9796,0.0,0.0,0.0,0.0,0.0,0.0,0.0,0.0,0.0,0.0,0.0,0.0,0.0,0.0,0.0,0.0,0.0,0.0,0.0,0.0,0.0,0.0,0.0,0.0,0.0,0.0,0.0,0.0,0.0,0.0,0.0,0.0,0.0,0.0,0.0,0.0,0.0,0.0,0.0,-2.7275,-2.8389,0.0,0.0,0.0,0.0,0.0,0.0,0.0,0.0,-3.098,0.0,0.0,0.0,0.0,0.0,0.0,0.0,0.0,0.0,0.0,0.0,0.0,0.0,0.0,0.0,0.0,0.0,0.0,0.0,0.0,0.0,0.0,0.0,0.0,0.0,0.0,0.0,0.0,0.0,0.0,0.0,0.0,0.0,0.0,0.0,0.0,0.0,0.0,0.0,0.0,0.0,0.0,0.0,0.0,0.0,0.0,0.0,0.0,0.0,0.0,0.0,0.0,0.0,0.0,0.0,-2.1994,-2.2585,-2.3368,-2.4078,-2.4872,-2.6433,-2.8787,-2.9121,-2.9252,0.0,0.0,0.0,0.0,0.0,0.0,0.0,0.0,0.0,0.0,0.0,0.0,0.0,0.0,0.0,0.0,0.0,0.0,0.0,0.0,0.0,0.0,0.0,0.0,0.0,0.0,0.0,0.0,0.0,0.0,0.0,0.0,0.0,0.0,0.0,0.0,0.0,0.0,0.0,0.0,-2.7773,-2.8682,-2.9746,0.0,0.0,0.0,0.0,0.0,0.0,-3.0554,-3.1077,0.0,0.0,0.0,0.0,0.0,0.0,0.0,0.0,0.0,0.0,0.0,0.0,0.0,0.0,0.0,0.0,0.0,0.0,0.0,0.0,0.0,0.0,0.0,0.0,0.0,0.0,0.0,0.0,0.0,0.0,0.0,0.0,0.0,0.0,0.0,0.0,0.0,0.0,0.0,0.0,0.0,0.0,0.0,0.0,0.0,0.0,0.0,0.0,0.0,0.0,0.0,0.0,0.0,0.0,0.0,-2.2324,-2.3546,-2.4172,-2.3822,-2.5049,-2.649,-2.8184,-2.8623,-2.8849,0.0,0.0,0.0,0.0,0.0,0.0,0.0,0.0,0.0,0.0,0.0,0.0,0.0,0.0,0.0,0.0,0.0,0.0,0.0,0.0,0.0,0.0,0.0,0.0,0.0,0.0,0.0,0.0,0.0,0.0,0.0,0.0,0.0,0.0,0.0,0.0,0.0,0.0,0.0,0.0,0.0,-2.8975,-3.0166,-3.0049,0.0,0.0,0.0,0.0,-3.0303,-3.0777,0.0,0.0,0.0,0.0,0.0,0.0,0.0,0.0,0.0,0.0,0.0,0.0,0.0,0.0,0.0,0.0,0.0,0.0,0.0,0.0,0.0,0.0,0.0,0.0,0.0,0.0,0.0,0.0,0.0,0.0,0.0,0.0,0.0,0.0,0.0,0.0,0.0,0.0,0.0,0.0,0.0,0.0,0.0,0.0,0.0,0.0,0.0,0.0,0.0,0.0,0.0,0.0,0.0,0.0,0.0,0.0,-2.2755,-2.2672,-2.3063,-2.371,-2.3933,-2.5388,-2.8184,-2.834,-2.866,0.0,0.0,0.0,0.0,0.0,0.0,0.0,0.0,0.0,0.0,0.0,0.0,0.0,0.0,0.0,0.0,0.0,0.0,0.0,0.0,0.0,0.0,0.0,0.0,0.0,0.0,0.0,0.0,0.0,0.0,0.0,0.0,0.0,0.0,0.0,0.0,0.0,0.0,0.0,0.0,0.0,-2.9766,-3.0684,-3.0771,-3.0732,0.0,0.0,-3.0296,-3.0791,-3.082,0.0,0.0,0.0,0.0,0.0,0.0,0.0,0.0,0.0,0.0,0.0,0.0,0.0,0.0,0.0,0.0,0.0,0.0,0.0,0.0,0.0,0.0,0.0,0.0,0.0,0.0,0.0,0.0,0.0,0.0,0.0,0.0,0.0,0.0,0.0,0.0,0.0,0.0,0.0,0.0,0.0,0.0,0.0,0.0,0.0,0.0,0.0,0.0,0.0,0.0,0.0,0.0,0.0,0.0,0.0,-2.5198,-2.3251,-2.3199,-2.3047,-2.2589,-2.3375,-2.4829,-2.7051,-2.7833,-2.8504,0.0,0.0,0.0,0.0,0.0,0.0,0.0,0.0,0.0,0.0,0.0,0.0,0.0,0.0,0.0,0.0,0.0,0.0,0.0,0.0,0.0,0.0,0.0,0.0,0.0,0.0,0.0,0.0,0.0,0.0,0.0,0.0,0.0,0.0,0.0,0.0,0.0,0.0,0.0,0.0,0.0,0.0,-3.0771,-3.0898,0.0,0.0,0.0,-3.0713,-3.0879,0.0,0.0,0.0,0.0,0.0,0.0,0.0,0.0,0.0,0.0,0.0,0.0,0.0,0.0,0.0,0.0,0.0,0.0,0.0,0.0,0.0,0.0,0.0,0.0,0.0,0.0,0.0,0.0,0.0,0.0,0.0,0.0,0.0,0.0,0.0,0.0,0.0,0.0,0.0,0.0,0.0,0.0,0.0,0.0,0.0,0.0,0.0,0.0,0.0,0.0,0.0,0.0,0.0,0.0,0.0,0.0,0.0,-2.359,-2.371,-2.3039,-2.1699,-2.271,-2.4147,-2.6045,-2.7159,0.0,0.0,0.0,0.0,0.0,0.0,0.0,0.0,0.0,0.0,0.0,0.0,0.0,0.0,0.0,0.0,0.0,0.0,0.0,0.0,0.0,0.0,0.0,0.0,0.0,0.0,0.0,-2.9731,0.0,0.0,0.0,0.0,0.0,0.0,0.0,0.0,0.0,0.0,0.0,0.0,0.0,0.0,-3.001,-3.0791,-3.0976,-3.1016,0.0,0.0,-3.0898,-3.0898,-3.1054,-3.1295,0.0,0.0,0.0,0.0,0.0,0.0,0.0,0.0,0.0,0.0,0.0,0.0,0.0,0.0,0.0,0.0,0.0,0.0,0.0,0.0,0.0,0.0,0.0,0.0,0.0,0.0,0.0,0.0,0.0,0.0,0.0,0.0,0.0,0.0,0.0,0.0,0.0,0.0,0.0,0.0,0.0,0.0,0.0,0.0,0.0,0.0,0.0,0.0,0.0,0.0,0.0,0.0,0.0,0.0,-2.5912,-2.39,-2.3822,-2.3039,-2.1699,-2.1699,-2.3151,-2.5927,-2.6164,-2.7051,0.0,0.0,0.0,0.0,0.0,0.0,0.0,0.0,0.0,0.0,0.0,0.0,0.0,0.0,0.0,0.0,0.0,0.0,0.0,0.0,0.0,0.0,0.0,0.0,0.0,0.0,0.0,0.0,0.0,0.0,0.0,0.0,0.0,0.0,0.0,0.0,0.0,0.0,0.0,0.0,0.0,-3.0332,-3.082,-3.123,-3.1338,0.0,-3.0898,-3.0898,-3.0898,-3.0889,-3.1334,-3.2416,0.0,0.0,0.0,0.0,0.0,0.0,0.0,0.0,0.0,0.0,0.0,0.0,0.0,0.0,0.0,0.0,0.0,0.0,0.0,0.0,0.0,0.0,0.0,0.0,0.0,0.0,0.0,0.0,0.0,0.0,0.0,0.0,0.0,0.0,0.0,0.0,0.0,0.0,0.0,0.0,0.0,0.0,0.0,0.0,0.0,0.0,0.0,0.0,0.0,0.0,0.0,0.0,0.0,-2.6171,-2.3599,-2.3718,-2.2597,-2.0364,-2.1137,-2.2138,-2.3255,-2.5151,-2.6381,0.0,0.0,0.0,0.0,0.0,0.0,0.0,0.0,0.0,0.0,0.0,0.0,0.0,0.0,0.0,0.0,0.0,0.0,0.0,0.0,0.0,0.0,0.0,0.0,0.0,0.0,0.0,0.0,-3.0419,-3.0308,-2.9371,0.0,0.0,0.0,0.0,0.0,0.0,0.0,0.0,0.0,0.0,-3.0684,-3.0869,-3.125,0.0,0.0,-3.0898,-3.0898,-3.0898,-3.1063,-3.1391,-3.2217,-3.2752,0.0,0.0,0.0,0.0,0.0,0.0,0.0,0.0,0.0,0.0,0.0,0.0,0.0,0.0,0.0,0.0,0.0,0.0,0.0,0.0,0.0,0.0,0.0,0.0,0.0,0.0,0.0,0.0,0.0,0.0,0.0,0.0,0.0,0.0,0.0,0.0,0.0,0.0,0.0,0.0,0.0,0.0,0.0,0.0,0.0,0.0,0.0,0.0,0.0,0.0,0.0,0.0,-2.5998,-2.4044,-2.3487,-2.2153,-2.0141,-2.0702,-2.1137,-2.1699,-2.4044,-2.5599,0.0,0.0,0.0,0.0,0.0,0.0,0.0,0.0,0.0,0.0,0.0,0.0,0.0,0.0,0.0,0.0,0.0,0.0,0.0,0.0,0.0,0.0,0.0,0.0,0.0,0.0,0.0,0.0,-3.0311,-3.0152,-2.9581,0.0,0.0,0.0,0.0,0.0,0.0,0.0,0.0,0.0,0.0,-3.1035,-3.0918,-3.125,-3.1367,-3.0957,-3.0898,-3.0879,-3.0995,-3.1149,-3.1572,-3.2102,0.0,0.0,0.0,0.0,0.0,0.0,0.0,0.0,0.0,0.0,0.0,0.0,0.0,0.0,0.0,0.0,0.0,0.0,0.0,0.0,0.0,0.0,0.0,0.0,0.0,0.0,0.0,0.0,0.0,0.0,-3.4663,0.0,0.0,0.0,0.0,0.0,0.0,0.0,0.0,0.0,0.0,0.0,0.0,0.0,0.0,0.0,0.0,0.0,0.0,0.0,0.0,0.0,0.0,-2.5253,-2.5507,-2.3047,-2.1699,-2.1479,-2.0148,-2.0148,-2.1472,-2.3039,-2.4599,-2.6045,0.0,0.0,0.0,0.0,0.0,0.0,0.0,0.0,0.0,0.0,0.0,0.0,0.0,0.0,0.0,0.0,0.0,0.0,0.0,0.0,0.0,0.0,0.0,0.0,0.0,0.0,-2.9634,-2.9853,-3.0138,0.0,0.0,0.0,0.0,0.0,0.0,0.0,0.0,0.0,0.0,-3.0947,-3.1357,-3.0957,-3.125,-3.1377,-3.0957,-3.0898,-3.1005,-3.1228,-3.1255,-3.1446,0.0,0.0,0.0,0.0,0.0,0.0,0.0,0.0,0.0,0.0,0.0,0.0,0.0,0.0,0.0,0.0,0.0,0.0,0.0,0.0,0.0,0.0,0.0,0.0,0.0,0.0,0.0,-3.509,-3.5265,0.0,0.0,0.0,0.0,0.0,0.0,0.0,0.0,0.0,0.0,0.0,-3.2897,-3.1583,0.0,0.0,0.0,0.0,0.0,0.0,0.0,0.0,0.0,0.0,0.0,0.0,-2.6534,-2.5299,-2.3871,-2.2562,-2.1602,-2.0116,-1.9591,-2.0141,-2.1586,-2.3479,-2.6036,0.0,0.0,0.0,0.0,0.0,0.0,0.0,0.0,0.0,0.0,0.0,0.0,0.0,0.0,0.0,0.0,0.0,0.0,0.0,0.0,0.0,0.0,0.0,0.0,0.0,-2.8492,0.0,0.0,0.0,0.0,0.0,0.0,0.0,0.0,0.0,0.0,0.0,-2.9678,-3.0547,-3.1152,-3.1367,-3.0947,-3.125,-3.1465,0.0,0.0,0.0,0.0,0.0,0.0,0.0,0.0,0.0,0.0,0.0,0.0,0.0,0.0,-3.9347,-3.8222,-3.795,-3.8041,-3.7975,0.0,0.0,0.0,0.0,0.0,0.0,0.0,0.0,0.0,0.0,0.0,0.0,0.0,0.0,-3.6219,0.0,-3.6395,0.0,0.0,0.0,0.0,0.0,0.0,0.0,0.0,-3.6439,-3.5968,-3.5062,-3.3268,-3.2269,0.0,-3.0499,-2.9092,0.0,0.0,0.0,0.0,0.0,0.0,0.0,0.0,-2.6999,-2.608,-2.4539,-2.3352,-2.2391,-2.0895,-2.0141,-2.0148,-2.2145,-2.4369,-2.6825,-2.7583,-2.7881,0.0,0.0,0.0,0.0,0.0,0.0,0.0,0.0,0.0,0.0,0.0,0.0,0.0,0.0,0.0,0.0,0.0,0.0,0.0,0.0,0.0,0.0,0.0,-2.8406,0.0,0.0,0.0,0.0,0.0,0.0,0.0,0.0,0.0,-2.96,-2.998,-3.0459,-3.1035,-3.1475,-3.1543,-3.0967,0.0,0.0,0.0,0.0,0.0,0.0,0.0,-3.2544,-3.4029,-3.5062,-3.6396,-3.8656,-4.0097,-4.0898,-4.0993,0.0,0.0,-3.907,-3.8743,-3.863,-3.8646,-3.8739,-3.8818,-3.863,-3.8755,-3.8931,0.0,0.0,0.0,0.0,0.0,0.0,0.0,0.0,-3.7224,-3.75,0.0,-3.7939,0.0,0.0,0.0,0.0,0.0,-3.8467,0.0,0.0,-3.7433,-3.7003,-3.5945,-3.3956,-3.2839,-3.2385,-3.087,-2.9883,-2.9531,-2.874,0.0,0.0,0.0,0.0,0.0,0.0,-2.64,-2.7745,-2.5278,-2.383,-2.3735,-2.2379,-2.1699,-2.1699,-2.448,-2.6717,-2.8067,-2.8281,-2.8291,-2.8281,-2.79,0.0,0.0,0.0,0.0,0.0,0.0,0.0,0.0,0.0,0.0,0.0,0.0,0.0,0.0,0.0,0.0,0.0,0.0,0.0,0.0,-2.8308,0.0,0.0,0.0,0.0,0.0,0.0,0.0,0.0,0.0,0.0,-3.0762,-3.1221,-3.1514,-3.1562,0.0,0.0,0.0,0.0,-3.1543,-3.1572,-3.1904,-3.2401,-3.3005,-3.2915,-3.3313,-3.521,0.0,0.0,-4.074,-4.1101,-4.1006,-4.1222,-4.1291,-4.116,-4.0525,-4.0092,-3.976,-3.9772,-4.0124,-4.0287,-3.9873,-3.9973,-4.0187,-3.539,0.0,0.0,0.0,0.0,-3.6709,-3.7111,-3.7814,-3.8216,-3.8241,-3.8002,-3.8002,0.0,0.0,0.0,0.0,0.0,0.0,-3.8893,-3.8901,-3.9005,-3.8951,-3.8466,-3.5853,-3.4578,-3.4406,-3.1869,-3.043,-3.0019,-2.9775,-2.9336,-2.874,0.0,0.0,0.0,0.0,-2.7638,-2.7774,-2.6291,-2.4889,-2.3787,-2.344,-2.3151,-2.3151,-2.5041,-2.6273,-2.6717,-2.7726,-2.8301,-2.8291,-2.8174,0.0,0.0,0.0,0.0,0.0,0.0,0.0,0.0,0.0,0.0,0.0,0.0,0.0,0.0,0.0,0.0,0.0,0.0,0.0,-2.8955,-2.9361,-2.9659,0.0,0.0,0.0,0.0,0.0,0.0,0.0,0.0,0.0,-3.1689,-3.1367,-3.1406,0.0,0.0,-3.208,-3.1836,-3.1914,-3.209,-3.2383,-3.2275,0.0,-3.3182,-3.3779,-3.4624,-3.5419,-3.7384,-3.9297,-4.0301,-4.0852,-4.1222,-4.1342,-4.1015,-4.0658,-4.0607,-4.0689,-4.0852,-4.0852,-4.0689,-4.0488,-4.0325,-4.0124,-3.9898,-3.7048,-3.6941,-3.7045,-3.7349,-3.7814,-3.7613,-3.7826,-3.8366,-3.8718,-3.8655,-3.8416,-3.8567,-3.868,-3.8616,-3.8353,0.0,0.0,0.0,-3.9371,-3.9697,-3.9697,-3.9697,-3.9531,-3.7276,-3.6227,-3.6031,-3.3201,-3.1616,-3.1335,-3.0616,-2.9932,-2.9424,0.0,0.0,-2.8077,-2.8184,-2.8194,-2.7989,-2.7403,-2.5999,-2.3875,-2.3768,-2.3822,-2.3822,-2.5827,-2.6943,-2.6943,-2.7843,-2.8301,-2.8301,-2.8301,-2.8174,0.0,0.0,0.0,0.0,0.0,0.0,0.0,0.0,0.0,0.0,0.0,-2.8072,-2.7973,0.0,0.0,0.0,-2.8799,-2.9004,-2.9531,-2.9692,0.0,0.0,0.0,0.0,0.0,0.0,0.0,-3.0908,-3.0994,-3.131,-3.2314,-3.1973,-3.1934,-3.2695,-3.2578,-3.2353,-3.2197,0.0,-3.25,-3.2754,-3.3233,-3.3797,-3.4462,-3.5325,-3.611,-3.6725,-3.8814,-4.0281,-4.052,-4.1021,-4.1317,-4.1291,-4.1065,-4.0833,-4.0823,-4.1114,-4.1178,-4.0789,-4.0802,-4.0727,-4.03,-4.0476,-4.0735,-3.8465,-3.9597,-3.8567,-3.8442,-3.8881,-3.8366,-3.8417,-3.8868,-3.8919,-3.8957,-3.8969,-3.946,-3.9613,-3.9675,-3.9714,0.0,-3.9697,-3.9697,-3.9697,-3.9697,-3.9697,-3.9697,-3.9581,-3.8194,-3.7536,-3.7465,-3.4493,-3.3067,-3.2943,-3.1221,-3.0234,-3.0176,-2.9375,-2.876,-2.8369,-2.831,-2.8301,-2.8301,-2.8291,-2.6952,-2.4275,-2.4044,-2.4044,-2.4156,-2.6834,-2.8291,-2.8291,-2.8301,-2.8301,-2.8301,-2.8301,-2.8301,-2.8281,0.0,0.0,0.0,0.0,0.0,0.0,0.0,0.0,0.0,0.0,0.0,0.0,0.0,0.0,-2.9619,-2.9648,0.0,-2.9726,-2.9726,0.0,0.0,0.0,-3.0518,-3.0947,-3.1328,-3.1771,-3.21,0.0,0.0,-3.2764,-3.2793,-3.2803,-3.308,-3.308,-3.2932,-3.2558,-3.2957,-3.3194,-3.346,-3.4794,-3.6019,-3.6231,-3.6938,-3.7724,-3.8769,-4.0195,-4.0984,-4.1015,-4.104,-4.1103,-4.104,-4.1116,-4.1128,-4.1166,-4.1178,-4.0953,-3.9936,-4.0538,-4.0953,-4.0282,-4.1169,-4.2045,-3.9349,-3.9672,-3.9408,-3.9383,-3.9484,-3.9358,-3.9132,-3.8906,-3.9308,-3.9309,-3.8944,-3.907,-3.912,-3.9133,-3.9561,-3.9697,-3.9697,-3.9697,-3.9697,-3.9697,-3.9697,-3.9697,-3.9672,-3.8179,-3.7529,-3.7335,-3.4494,-3.3085,-3.3067,-3.1552,-3.0537,-3.0185,-2.9678,-2.9199,-2.8769,-2.8457,-2.8301,-2.8301,-2.8301,-2.795,-2.7276,-2.6164,-2.6045,-2.7178,-2.796,-2.8301,-2.8301,-2.8301,-2.8301,-2.8301,-2.8301,-2.8301,-2.8291,-2.8203,0.0,0.0,0.0,0.0,0.0,0.0,0.0,0.0,0.0,-2.916,-2.8935,0.0,-3.0049,0.0,-3.0361,-3.0703,-3.1016,-3.1055,0.0,0.0,-3.1641,-3.1748,-3.1855,-3.2031,-3.2027,-3.2158,-3.2221,-3.2312,-3.2773,-3.2793,-3.3377,-3.4882,-3.5046,-3.5015,-3.5035,-3.6061,-3.6981,-3.6904,-3.717,-3.752,-3.724,-3.7531,-3.8499,-3.9907,-4.014,-3.9948,-3.9534,-3.9459,-3.9459,-3.9459,-3.9459,-3.9609,-4.0036,-4.0413,-4.045,-3.9898,-4.0249,-4.0942,-4.1632,-4.1839,-4.2047,-3.9471,-3.9697,-3.9697,-3.9697,-3.9672,-3.9433,-3.9157,-3.8894,-3.9195,-3.9196,-3.8944,-3.9196,-3.9245,-3.9258,-3.9559,-3.9697,-3.9697,-3.9697,-3.9697,-3.9697,-3.9697,-3.9697,-3.9685,-3.8844,-3.8521,-3.8348,-3.6167,-3.5067,-3.4936,-3.2975,-3.163,-3.1176,-3.0102,-2.9355,-2.8916,-2.8496,-2.8301,-2.8301,-2.7618,-2.7276,-2.7276,-2.649,-2.649,-2.7276,-2.795,-2.8301,-2.8301,-2.8301,-2.8301,-2.8301,-2.8301,-2.8379,-2.8555,-2.8564,-2.8662,0.0,0.0,0.0,0.0,0.0,0.0,0.0,0.0,0.0,0.0,0.0,-3.0586,-3.0771,-3.1016,-3.1348,-3.1768,-3.1807,-3.1904,-3.2139,-3.2334,-3.2441,-3.2451,-3.2581,-3.2727,-3.2744,-3.2698,-3.2815,-3.3057,-3.3066,-3.3679,-3.5279,-3.6107,-3.6578,-3.6556,-3.7129,-3.7456,-3.749,-3.8121,-3.8571,-3.8742,-3.8996,-3.9398,-3.994,-3.9697,-3.9283,-3.9233,-3.9019,-3.8944,-3.9182,-3.9233,-3.9333,-3.9634,-3.9923,-4.0156,-4.0614,-4.0821,-4.1271,-4.1878,-4.269,-4.3598,-3.9157,-3.9584,-3.9672,-3.9697,-3.9659,-3.9182,-3.8981,-3.8969,-3.8981,-3.9032,-3.8995,-3.9548,-3.9697,-3.9697,-3.9697,-3.9697,-3.9697,-3.9697,-3.9697,-3.9697,-3.9697,-3.9697,-3.9697,-3.9697,-3.9697,-3.9685,-3.8243,-3.7465,-3.7453,-3.4659,-3.3109,-3.2575,-3.0892,-2.9719,-2.9124,-2.8809,-2.8495,-2.8291,-2.7051,-2.6381,-2.6372,-2.6381,-2.6372,-2.6381,-2.7618,-2.8301,-2.8301,-2.834,-2.8379,-2.8379,-2.8428,-2.8623,-2.8984,-2.9004,-2.917,0.0,-2.958,0.0,0.0,0.0,0.0,0.0,0.0,0.0,0.0,-3.0615,-3.1045,-3.1406,-3.1435,-3.1611,-3.2041,-3.2129,-3.2187,-3.2256,-3.2627,-3.2861,-3.2822,-3.3115,-3.3436,-3.3503,-3.3493,-3.3628,-3.3888,-3.3898,-3.4174,-3.5689,-3.6755,-3.7596,-3.7723,-3.7588,-3.752,-3.7213,-3.8239,-3.9479,-4.0127,-4.0379,-4.012,-3.976,-3.9371,-3.9132,-3.9471,-3.917,-3.9019,-3.9433,-3.9509,-3.9572,-3.9672,-3.98,-4.0374,-4.1349,-4.189,-4.2208,-4.2404,-4.3815,-4.5403,-3.8931,-3.9057,-3.9509,-3.9697,-3.9685,-3.9584,-3.9534,-3.9546,-3.9534,-3.9534,-3.9521,-3.9647,-3.9697,-3.9697,-3.9697,-3.9697,-3.9697,-3.9697,-3.9697,-3.9697,-3.9697,-3.9697,-3.9697,-3.9697,-3.9697,-3.9581,-3.8243,-3.7465,-3.7453,-3.5188,-3.4086,-3.3965,-3.2915,-3.1825,-3.0691,0.0,0.0,0.0,-2.8067,-2.7843,-2.7853,-2.7843,-2.7843,-2.7843,-2.8184,0.0,-2.8301,-2.8623,-2.8809,-2.8809,-2.9141,0.0,0.0,0.0,0.0,0.0,0.0,0.0,0.0,0.0,0.0,0.0,-3.0498,-3.0596,-3.0254,-3.0625,-3.0928,-3.1006,-3.1006,-3.1182,-3.1592,-3.1963,-3.2305,-3.2646,-3.3047,-3.3174,-3.2861,-3.2871,-3.3258,-3.405,-3.4248,-3.4861,-3.6243,-3.623,-3.6695,-3.8275,-3.8377,-3.8583,-3.9707,-3.9964,-4.0281,-4.0439,-4.0147,-4.0248,-4.0461,-4.0156,-3.986,-3.9672,-3.9634,-3.9408,-3.912,-3.8981,-3.8881,-3.9069,-3.9032,-3.9207,-3.9622,-4.0554,-4.1321,-4.1557,-4.3249,-4.4642,-4.4734,-4.5024,-4.5674,-3.8366,0.0,-3.9182,-3.9433,0.0,-3.9697,-3.9697,-3.9697,-3.9697,-3.9697,-3.9697,-3.9697,-3.9697,-3.9697,-3.9697,-3.9697,-3.9697,-3.9697,-3.9697,-3.9697,-3.9697,-3.9697,-3.9697,-3.9697,-3.9697,-3.9697,-3.8908,-3.857,-3.8453,-3.6767,-3.5733,-3.5213,-3.3989,-3.279,-3.1706,-3.0745,-2.9608,-2.8291,-2.8301,-2.8301,-2.8301,-2.8301,-2.8301,-2.8301,-2.8301,0.0,0.0,0.0,0.0,0.0,0.0,0.0,0.0,-2.9873,0.0,-3.0205,-3.0215,-3.0225,-3.0225,-3.043,-3.0537,-3.0537,-3.0537,-3.0547,-3.0537,-3.0752,-3.0976,-3.1182,-3.1201,-3.1377,-3.1797,-3.2031,-3.2256,-3.2471,-3.2676,-3.2715,-3.2652,-3.3184,-3.3779,-3.4397,-3.5029,-3.5932,-3.686,-3.682,-3.719,-3.8665,-3.8485,-3.8575,-3.9847,-4.035,-4.0526,-4.0526,-4.0362,-4.0124,-4.0118,-3.9888,-3.9697,-3.9685,-3.9471,-3.9308,-3.9283,-3.9057,-3.8956,-3.9195,-3.9283,-3.9561,-4.0427,-4.1152,-4.1981,-4.3264,-4.4462,-4.566,-4.6151,-4.6358,-4.6535,-3.7726,-3.8592,-3.8793,-3.9132,-3.9559,-3.9647,-3.9697,-3.9697,0.0,0.0,0.0,-3.9697,-3.9697,-3.9697,-3.9697,-3.9697,-3.9697,-3.9697,-3.9697,-3.9697,-3.9697,-3.9697,-3.9697,-3.9697,-3.9697,-3.9697,-3.9697,-3.9697,-3.9685,-3.8282,-3.718,-3.6273,-3.499,-3.3765,-3.2689,-3.1327,-3.011,-2.9006,-2.8601,-2.8301,-2.8301,-2.8301,-2.833,-2.8398,-2.8398,-2.8603,-2.9023,-2.9101,-2.9307,-2.9658,-2.9756,-2.9951,-3.0293,-3.0312,-3.0488,-3.085,-3.081,-3.0762,-3.0771,-3.0703,-3.0654,-3.0664,-3.0303,-3.0215,-3.0527,-3.0684,-3.0908,-3.125,-3.1357,-3.1553,-3.1914,-3.2021,-3.2051,-3.206,-3.2119,-3.227,-3.2524,-3.353,-3.4391,-3.4911,-3.5987,-3.6986,-3.7404,-3.7313,-3.7534,-3.8333,-3.8611,-3.8645,-3.9474,-3.976,-3.9798,-3.9798,-3.981,-3.9722,-3.9697,-3.971,-3.9697,-3.9685,-3.932,-3.9195,-3.9484,-3.932,-3.9233,-3.9572,-3.9788,-4.0491,-4.1351,-4.21,-4.2931,-4.4996,-4.5595,-4.6062,-4.7019,-4.7309,-4.7222,-3.7274,-3.75,-3.8467,-3.8919,-3.9019,-3.9496,-3.9697,-3.9697,-3.9697,-3.9697,-3.9697,-3.9697,-3.9697,-3.9697,-3.9697,-3.9697,-3.9697,-3.9697,-3.9697,-3.9697,-3.9697,-3.9697,-3.9697,-3.9697,-3.9697,-3.9697,-3.9697,-3.9697,-3.9584,-3.8504,-3.783,-3.758,-3.6552,-3.5417,-3.408,-3.2744,-3.1927,-3.1724,-2.9513,-2.8301,-2.8301,-2.8301,-2.8467,-2.8809,-2.8828,-2.9043,-2.9463,-2.9814,-3.0039,-3.0117,-3.0488,-3.0732,-3.0781,-3.0771,-3.083,-3.0859,-3.0518,-3.0283,-3.0283,-2.9961,-2.9756,-2.9746,-2.9697,-2.9541,-2.9248,-2.9873,-3.0312,-3.0391,-3.0742,-3.0996,-3.1084,-3.1406,-3.1611,-3.1641,-3.1943,-3.2474,-3.3345,-3.3738,-3.4718,-3.6703,-3.7237,-3.8144,-3.9389,-3.9369,-3.9271,-3.9879,-3.9563,-3.9461,-3.9631,-3.9697,-3.9697,-3.9697,-3.9697,-3.9697,-3.9697,-3.9697,-3.9697,-3.9697,-3.9622,-3.9534,-3.9659,-3.9687,-3.9752,-3.9775,-4.0642,-4.1367,-4.1787,-4.345,-4.4655,-4.558,-4.624,-4.6989,-4.7294,-4.7309,-4.7309,-3.6923,-3.7224,-3.7739,-3.8316,-3.8906,-3.9459,-3.9697,-3.9697,-3.9697,-3.9697,-3.9697,-3.9697,-3.9697,-3.9697,-3.9697,-3.9697,-3.9697,-3.9697,-3.9697,-3.9697,-3.9697,-3.9697,-3.9697,-3.9697,-3.9697,-3.9685,-3.9423,-3.9297,-3.9157,-3.8404,-3.7852,-3.7538,-3.6747,-3.6061,-3.5463,-3.4166,-3.3453,-3.3353,-3.0732,-2.9408,-2.9418,-2.8698,-2.8496,-2.8906,-2.8926,-2.9228,-2.9883,-3.0098,-3.0205,-3.0205,-3.04,-3.041,-3.0195,-3.0176,-3.0176,-3.0166,-2.998,-2.9853,-2.9853,-2.9678,-2.9473,-2.9248,-2.9219,-2.9033,-2.8613,-2.9365,-2.9853,-2.9873,-3.0264,-3.0508,-3.0527,-3.0918,-3.1182,-3.1182,-3.2026,-3.2834,-3.3434,-3.4933,-3.6283,-3.7406,-3.8243,-3.9007,-3.9932,-3.9848,-3.976,-4.0011,-3.9823,-3.9697,-3.9697,-3.9697,-3.9697,-3.9697,-3.9697,-3.9697,-3.9697,-3.9697,-3.9697,-3.9697,-3.9697,-3.9697,-3.98,-4.0173,-4.0642,-4.0831,-4.1789,-4.2801,-4.3453,-4.4503,-4.5526,-4.6445,-4.6852,-4.7294,-4.7309,-4.7309,-4.7429,-3.6596,-3.6998,-3.7136,-3.7839,-3.8906,-3.9459,-3.9697,-3.9697,-3.9697,-3.9697,-3.9697,-3.9697,-3.9697,-3.9697,-3.9697,-3.9697,-3.9697,-3.9697,-3.9697,-3.9697,-3.9697,-3.9697,-3.9672,-3.9572,-3.9599,-3.9715,-3.9058,-3.8793,-3.8992,-3.8288,-3.755,-3.701,-3.6571,-3.637,-3.6358,-3.5489,-3.5053,-3.4858,-3.2712,-3.1391,-3.0891,-2.9656,-2.9152,-2.955,-2.9064,-2.9277,-3.0,-3.0059,-3.0059,-3.0049,-3.0059,-2.9912,-2.9609,-2.958,-2.958,-2.957,-2.9473,-2.9385,-2.9287,-2.9287,-2.9131,-2.8809,-2.8779,-2.8633,-2.8398,-2.8896,-2.9336,-2.9443,-2.9805,-3.0059,-3.0098,-3.0351,-3.0596,-3.0711,-3.2003,-3.3043,-3.3583,-3.5854,-3.7678,-3.8019,-3.9025,-3.9697,-3.9697,-3.9697,-3.971,-3.9722,-3.9697,-3.9697,-3.9697,-3.9697,-3.9697,-3.9697,-3.9697,-3.9697,-3.9697,-3.9697,-3.9697,-3.9697,-3.9697,-3.989,-4.0173,-4.1032,-4.1703,-4.1972,-4.3013,-4.4051,-4.511,-4.5666,-4.6225,-4.6959,-4.7279,-4.7309,-4.7309,-4.7489,-4.7653,-3.6395,-3.6508,-3.696,-3.7839,-3.8868,-3.9459,-3.9697,-3.9697,-3.9697,-3.9697,-3.9697,-3.9697,-3.9697,-3.9697,-3.9697,-3.9697,-3.9697,-3.9697,-3.9697,-3.98,-3.9697,-3.9697,-3.9725,-3.9284,-3.951,-4.0187,-3.8872,-3.8774,-3.9464,-3.8095,-3.6985,-3.6496,-3.6383,-3.637,-3.6408,-3.6739,-3.6893,-3.6905,-3.603,-3.4599,-3.2945,-3.1559,-3.1071,-3.151,-2.9858,-2.9131,-2.9741,-2.9629,-2.9639,-2.9629,-2.9629,-2.96,-2.956,-2.956,-2.956,-2.9541,-2.9199,-2.8818,-2.8476,-2.8418,-2.8428,-2.8359,-2.8369,-2.8359,-2.8301,-2.8379,-2.8584,-2.8945,-2.9375,-2.9609,-2.9629,-2.9809,-3.0,-3.0264,-3.1694,-3.298,-3.4445,-3.6209,-3.8019,-3.9362,-3.9544,-3.9697,-3.9697,-3.9697,-3.9697,-3.9697,-3.9697,-3.9697,-3.9697,-3.9697,-3.9697,-3.9697,-3.9697,-3.9672,-3.9647,-3.9685,-3.9687,-3.9725,-3.9775,-4.0236,-4.1093,-4.1703,-4.1972,-4.3313,-4.4363,-4.5267,-4.5659,-4.6272,-4.7048,-4.7121,-4.7309,-4.7309,-4.7369,-4.7683,-4.8057,-3.637,-3.6383,-3.6596,-3.7337,-3.8404,-3.9308,-3.9697,-3.9697,-3.9697,-3.9697,-3.9697,-3.9697,-3.9697,-3.9697,-3.9697,-3.9697,-3.9697,-3.9697,-4.0083,-4.0655,-4.0083,-3.9893,-4.0314,-4.0037,-4.003,-4.0139,-3.9759,-3.9465,-3.9016,-3.7603,-3.6571,-3.6383,-3.637,-3.637,-3.6383,-3.6584,-3.6847,-3.7186,-3.7196,-3.6993,-3.6309,-3.3799,-3.235,-3.2292,-3.0998,-3.0391,-3.0679,-2.9996,-2.9453,-2.9209,-2.9189,-2.9062,-2.8818,-2.8818,-2.8818,-2.8799,-2.8652,-2.8467,-2.831,-2.8301,-2.8301,-2.8301,-2.8301,-2.8301,-2.8301,-2.8301,-2.8379,-2.8555,-2.8935,-2.95,-3.0265,-3.0577,-3.1059,-3.193,-3.3468,-3.4641,-3.519,-3.7132,-3.8646,-3.922,-3.9496,-3.9697,-3.9697,-3.9697,-3.9697,-3.9697,-3.9697,-3.9697,-3.9697,-3.9697,-3.9697,-3.9685,-3.9494,-3.9281,-3.9195,-3.9196,-3.9499,-4.0089,-4.0339,-4.0861,-4.2269,-4.3504,-4.4069,-4.4535,-4.5584,-4.6328,-4.6548,-4.6815,-4.7309,-4.7309,-4.7309,-4.7309,-4.7309,-4.7519,-4.7803,-3.637,-3.6408,-3.6671,-3.7274,-3.809,-3.9207,-3.9697,-3.9697,-3.9697,-3.9697,-3.9697,-3.9697,-3.9697,-3.9697,-3.9697,-3.9697,-3.9697,-3.9697,-4.0173,-4.0945,-4.0083,-3.988,-4.0272,-4.0351,-4.0251,-4.0121,-4.0294,-4.0023,-3.9106,-3.7635,-3.6977,-3.7243,-3.7057,-3.6883,-3.6909,-3.7011,-3.714,-3.7211,-3.7864,-3.8379,-3.8191,-3.6111,-3.4474,-3.3788,-3.2186,-3.1507,-3.17,-3.0472,-2.96,-2.9281,-2.8957,-2.8613,-2.832,-2.8301,-2.8301,-2.8301,-2.8301,-2.8301,-2.8301,-2.8301,-2.8301,-2.8301,-2.8301,-2.8301,-2.8301,-2.8301,-2.8495,-2.894,-2.9082,-2.9789,-3.0662,-3.1019,-3.1817,-3.3093,-3.4634,-3.5592,-3.5717,-3.7538,-3.8894,-3.8919,-3.9371,-3.9697,-3.9697,-3.9697,-3.9697,-3.9697,-3.9697,-3.9697,-3.9697,-3.9697,-3.9697,-3.9685,-3.92,-3.9003,-3.8881,-3.8774,-3.931,-4.0166,-4.0614,-4.1403,-4.3308,-4.4641,-4.5689,-4.5779,-4.6741,-4.715,-4.705,-4.7165,-4.7309,-4.7309,-4.7309,-4.7309,-4.7309,-4.7324,-4.7504,-3.637,-3.6508,-3.7487,-3.7914,-3.809,-3.922,-3.9697,-3.9697,-3.9697,-3.9697,-3.9697,-3.9697,-3.9697,-3.9697,-3.9697,-3.9697,-3.9697,-3.9697,-3.989,-4.0083,-3.9878,-3.9498,-3.9045,-3.9531,-4.0201,-4.0716,-4.0567,-4.0215,-3.9807,-3.8675,-3.8649,-3.9536,-3.8469,-3.7939,-3.7991,-3.8319,-3.8204,-3.7358,-3.8239,-3.8542,-3.8191,-3.8304,-3.7473,-3.5788,-3.3492,-3.2353,-3.2161,-3.1013,-3.0276,-3.0255,-2.9162,-2.8427,-2.8398,-2.8291,-2.8301,-2.8301,-2.8301,-2.8301,-2.8301,-2.8301,-2.8301,-2.8301,-2.8301,-2.8301,-2.8301,-2.8301,-2.8804,-3.0016,-3.0057,-3.0193,-3.0599,-3.1006,-3.1419,-3.2645,-3.4198,-3.527,-3.5282,-3.7503,-3.8793,-3.8944,-3.9358,-3.9672,-3.9697,-3.9697,-3.9697,-3.9697,-3.9697,-3.9697,-3.9697,-3.9697,-3.9697,-3.9556,-3.929,-3.8901,-3.8831,-3.8627,-3.8782,-3.9851,-4.1005,-4.1761,-4.3476,-4.5017,-4.5961,-4.6726,-4.7033,-4.7309,-4.7309,-4.7309,-4.7309,-4.7309,-4.7309,-4.7309,-4.7309,-4.7309,-4.7489,-3.637,-3.6471,-3.7538,-3.8002,-3.8128,-3.922,-3.9697,-3.9697,-3.9697,-3.9697,-3.9697,-3.9697,-3.9697,-3.9697,-3.9697,-3.9697,-3.9697,-3.9697,-4.0554,-4.1887,-4.1319,-4.1484,-4.2527,-4.2725,-4.237,-4.1994,-4.2395,-4.2088,-4.093,-3.9784,-3.9461,-3.9623,-3.8738,-3.8107,-3.816,-3.8305,-3.7974,-3.7379,-3.8351,-3.8582,-3.8114,-3.8216,-3.7992,-3.7245,-3.5218,-3.4117,-3.4128,-3.2499,-3.1633,-3.1531,-3.0317,-2.9608,-2.9503,-2.8804,-2.8301,-2.8301,-2.8301,-2.8301,-2.8301,-2.8301,-2.8301,-2.8301,-2.8301,-2.8301,-2.8301,-2.8291,-2.89,-3.0016,-3.0328,-3.0927,-3.2555,-3.2955,-3.3453,-3.4702,-3.5819,-3.6456,-3.6764,-3.7954,-3.8868,-3.8956,-3.9358,-3.9685,-3.9697,-3.9697,-3.9697,-3.9697,-3.9697,-3.9697,-3.9697,-3.9697,-3.9697,-3.9659,-3.9278,-3.9082,-3.9472,-3.8965,-3.9083,-4.0382,-4.1661,-4.3357,-4.5026,-4.5918,-4.6872,-4.6931,-4.7309,-4.7309,-4.7309,-4.7309,-4.7309,-4.7309,-4.7309,-4.7459,-4.7309,-4.7534,-4.7683,-3.637,-3.6546,-3.7538,-3.8002,-3.814,-3.922,-3.9697,-3.9697,-3.9697,-3.9697,-3.9697,-3.9697,-3.989,-4.0275,-4.0364,-4.0554,-4.0844,-4.0554,-4.1505,-4.33,-4.2655,-4.2902,-4.3896,-4.4274,-4.393,-4.3197,-4.4103,-4.3849,-4.249,-4.1312,-4.0844,-4.0944,-3.977,-3.9244,-3.9244,-3.9244,-3.8849,-3.8398,-3.8607,-3.8906,-3.9058,-3.8561,-3.8553,-3.8802,-3.7344,-3.6169,-3.5854,-3.4018,-3.2944,-3.2844,-3.1633,-3.0721,-3.0214,-2.9408,-2.8698,-2.8398,-2.8301,-2.8301,-2.8301,-2.8301,-2.8301,-2.8301,-2.8301,-2.8437,-2.8856,-2.899,-2.9826,-3.1059,-3.1629,-3.2655,-3.4409,-3.5126,-3.5659,-3.6388,-3.686,-3.7186,-3.7249,-3.8191,-3.8868,-3.9182,-3.9471,-3.9672,-3.9697,-3.9697,-3.9697,-3.9697,-3.9697,-3.9697,-3.9697,-3.9697,-3.9878,-4.0173,-3.9878,-4.0104,-4.0691,-4.0893,-4.0576,-4.1688,-4.2485,-4.4283,-4.5747,-4.6673,-4.7264,-4.7294,-4.7309,-4.7309,-4.7309,-4.7309,-4.7309,-4.7309,-4.7593,-4.7818,-4.7833,-4.7923,-4.8192,-3.637,-3.6521,-3.755,-3.8002,-3.8165,-3.9207,-3.9697,-3.9697,-3.9697,-3.9697,-3.9697,-3.9697,-4.0262,-4.1219,-4.1132,-4.207,-4.2641,-4.1985,-4.2363,-4.3598,-4.3598,-4.3402,-4.335,-4.4285,-4.4392,-4.3881,-4.477,-4.4878,-4.4087,-4.3142,-4.2811,-4.2998,-4.2038,-4.1411,-4.159,-4.1453,-4.0958,-4.0027,-3.9567,-4.0037,-4.1237,-3.9823,-3.9661,-4.0919,-3.9548,-3.8166,-3.7202,-3.5454,-3.4481,-3.4288,-3.3089,-3.1746,-3.0732,-3.0317,-2.9807,-2.89,-2.8504,-2.8398,-2.8495,-2.8601,-2.8804,-2.8804,-2.8495,-2.9242,-3.0147,-3.0308,-3.1359,-3.3379,-3.4035,-3.4787,-3.5982,-3.663,-3.6814,-3.6558,-3.701,-3.7387,-3.7525,-3.8228,-3.9082,-3.9521,-3.9685,-3.9697,-3.9697,-3.9697,-3.9697,-3.9697,-3.9697,-3.9697,-3.9697,-3.9697,-4.0275,-4.1084,-4.1172,-4.1255,-4.2175,-4.3124,-4.3013,-4.3067,-4.3531,-4.463,-4.5791,-4.6845,-4.7219,-4.7309,-4.7309,-4.7309,-4.7309,-4.7309,-4.7309,-4.7384,-4.7788,-4.8117,-4.8177,-4.8297,-4.888,-3.637,-3.6496,-3.7538,-3.8002,-3.8153,-3.9207,-3.9697,-3.9697,-3.9697,-3.9697,-3.9697,-3.9697,-3.989,-4.0173,-4.0275,-4.1019,-4.2168,-4.2641,-4.3585,-4.4627,-4.4826,-4.5211,-4.5785,-4.6226,-4.6107,-4.5491,-4.5327,-4.5238,-4.5012,-4.4614,-4.4578,-4.4444,-4.3507,-4.3012,-4.2954,-4.2926,-4.2379,-4.141,-4.1845,-4.2144,-4.1799,-4.0813,-4.0546,-4.0762,-3.9597,-3.8668,-3.8341,-3.7394,-3.6529,-3.5837,-3.4793,-3.3499,-3.2106,-3.1622,-3.1531,-3.1122,-3.103,-3.1019,-3.1019,-3.1019,-3.0916,-3.1019,-3.1019,-3.1176,-3.1592,-3.1721,-3.2443,-3.4135,-3.4406,-3.509,-3.6559,-3.7061,-3.7123,-3.696,-3.7764,-3.8291,-3.8366,-3.8956,-3.9433,-3.9634,-3.9697,-3.9697,-3.9697,-3.9697,-3.9697,-3.9697,-3.9697,-3.9697,-3.9697,-3.98,-4.0173,-4.1246,-4.169,-4.2776,-4.4252,-4.5037,-4.5099,-4.4817,-4.5005,-4.5081,-4.617,-4.6815,-4.716,-4.7309,-4.7309,-4.7309,-4.7309,-4.7309,-4.7309,-4.7534,-4.7923,-4.8162,-4.8327,-4.891,-4.9764,-3.6471,-3.6772,-3.7638,-3.814,-3.8404,-3.932,-3.9697,-3.9697,-3.9697,-3.9697,-3.98,-4.0173,-4.0364,-4.0655,-4.1306,-4.2266,-4.3122,-4.4363,-4.5298,-4.5973,-4.6062,-4.655,-4.7222,-4.7309,-4.7115,-4.6655,-4.6263,-4.5921,-4.5708,-4.5663,-4.5544,-4.5153,-4.459,-4.4206,-4.422,-4.4235,-4.3762,-4.3299,-4.3386,-4.353,-4.3229,-4.22,-4.1774,-4.2236,-4.1245,-4.0283,-3.9732,-3.944,-3.8481,-3.6935,-3.6014,-3.4856,-3.3277,-3.3055,-3.2844,-3.2331,-3.223,-3.223,-3.2331,-3.2129,-3.2331,-3.2331,-3.2331,-3.2566,-3.2901,-3.3089,-3.3662,-3.4872,-3.5174,-3.5684,-3.6868,-3.74,-3.755,-3.7814,-3.8391,-3.8944,-3.9145,-3.9471,-3.9659,-3.9697,-3.9697,-3.9697,-3.9697,-3.9697,-3.9697,-3.9697,-3.9697,-3.9697,-3.9788,-4.0173,-4.1097,-4.2324,-4.3642,-4.4997,-4.6519,-4.6961,-4.7111,-4.6827,-4.6524,-4.6394,-4.67,-4.7025,-4.7309,-4.7309,-4.7309,-4.7309,-4.7309,-4.7324,-4.7354,-4.7713,-4.8118,-4.8716,-4.9239,-5.0393,-5.1254,-3.6684,-3.7236,-3.7862,-3.8428,-3.8957,-3.9651,-3.989,-3.9697,-3.9697,-3.9788,-4.0083,-4.0932,-4.1604,-4.2168,-4.3598,-4.4535,-4.5389,-4.6166,-4.6638,-4.6829,-4.7004,-4.7222,-4.7309,-4.7309,-4.7264,-4.7234,-4.7133,-4.6935,-4.6396,-4.6367,-4.6052,-4.5618,-4.552,-4.5454,-4.5421,-4.5454,-4.5376,-4.5154,-4.4469,-4.4762,-4.588,-4.4077,-4.356,-4.4938,-4.3798,-4.2453,-4.1276,-4.1018,-3.9998,-3.7632,-3.6764,-3.5852,-3.4847,-3.4543,-3.4158,-3.3069,-3.2689,-3.2924,-3.27,-3.2967,-3.2932,-3.2932,-3.3044,-3.2989,-3.4284,-3.4519,-3.4969,-3.5966,-3.6168,-3.6513,-3.7199,-3.7651,-3.8178,-3.8768,-3.8956,-3.9207,-3.9597,-3.9685,-3.9697,-3.9697,-3.9697,-3.9697,-3.9697,-3.9697,-3.9697,-3.9697,-3.9697,-3.98,-4.0173,-4.0997,-4.2476,-4.3835,-4.5268,-4.667,-4.8003,-4.8407,-4.8519,-4.8179,-4.7758,-4.7219,-4.704,-4.7189,-4.7309,-4.7309,-4.7309,-4.7309,-4.7369,-4.7429,-4.7641,-4.7971,-4.8641,-4.9403,-5.0487,-5.1582,-5.2508,-3.6684,-3.7321,-3.8768,-3.918,-3.9196,-4.0411,-4.0554,-3.9788,-3.98,-4.0364,-4.1032,-4.1419,-4.2168,-4.3026,-4.3679,-4.3975,-4.4442,-4.5389,-4.5883,-4.6062,-4.6916,-4.7309,-4.7309,-4.7309,-4.7309,-4.7309,-4.7309,-4.7219,-4.7055,-4.6995,-4.689,-4.68,-4.6666,-4.6726,-4.6785,-4.6711,-4.6785,-4.6785,-4.6498,-4.6426,-4.659,-4.5503,-4.4929,-4.5164,-4.4256,-4.3421,-4.2644,-4.1563,-4.0278,-3.8629,-3.7475,-3.6864,-3.649,-3.6677,-3.6505,-3.5893,-3.5734,-3.5832,-3.5746,-3.5381,-3.5271,-3.5343,-3.5054,-3.5463,-3.58,-3.5895,-3.6073,-3.637,-3.6383,-3.6772,-3.7575,-3.7952,-3.8479,-3.9283,-3.9421,-3.9496,-3.9647,-3.9697,-3.9697,-3.9697,-3.9697,-3.9697,-3.9697,-3.9697,-3.9697,-3.9697,-3.98,-4.0083,-4.0642,-4.1537,-4.2811,-4.5023,-4.669,-4.8079,-4.911,-4.9577,-4.9783,-4.9461,-4.8805,-4.7713,-4.7459,-4.7264,-4.7309,-4.7309,-4.7309,-4.7309,-4.7519,-4.7668,-4.8,-4.8596,-4.991,-5.1107,-5.1837,-5.2715,-5.3597,-3.7381,-3.8396,-3.9143,-3.9724,-4.0179,-4.1175,-4.1232,-4.0743,-4.1132,-4.1703,-4.2363,-4.3026,-4.3313,-4.3598,-4.4627,-4.4734,-4.4549,-4.5584,-4.6166,-4.6358,-4.7004,-4.7294,-4.7309,-4.7309,-4.7309,-4.7309,-4.7309,-4.7309,-4.7294,-4.7309,-4.7309,-4.7264,-4.7309,-4.7309,-4.7249,-4.7309,-4.7309,-4.7294,-4.7309,-4.7309,-4.7207,-4.6638,-4.6255,-4.6062,-4.5389,-4.4918,-4.4186,-4.2086,-4.0187,-3.9056,-3.8027,-3.7525,-3.7563,-3.7814,-3.7852,-3.7538,-3.7538,-3.7437,-3.7174,-3.686,-3.6609,-3.642,-3.637,-3.637,-3.642,-3.6533,-3.6671,-3.6395,-3.6747,-3.7337,-3.7902,-3.8404,-3.8981,-3.9534,-3.9697,-3.9697,-3.9697,-3.9697,-3.9697,-3.9697,-3.9697,-3.9697,-3.9697,-3.9697,-3.9697,-3.9697,-3.9697,-4.0364,-4.1232,-4.2185,-4.36,-4.5945,-4.7832,-4.9178,-4.9927,-5.0347,-5.0232,-5.0015,-4.9389,-4.8327,-4.7713,-4.7384,-4.7309,-4.7309,-4.7309,-4.7399,-4.7725,-4.8241,-4.9078,-5.0058,-5.1577,-5.2627,-5.3281,-5.401,-5.4923,-3.8735,-4.0158,-3.9715,-4.033,-4.165,-4.1855,-4.1967,-4.1985,-4.2834,-4.3409,-4.3882,-4.4826,-4.4734,-4.4069,-4.6062,-4.6624,-4.5689,-4.6638,-4.7033,-4.7121,-4.7309,-4.7309,-4.7309,-4.7309,-4.7309,-4.7309,-4.7309,-4.7309,-4.7309,-4.7309,-4.7309,-4.7309,-4.7309,-4.7309,-4.7309,-4.7309,-4.7309,-4.7309,-4.7309,-4.7309,-4.7309,-4.7121,-4.7033,-4.7019,-4.7019,-4.6255,-4.4895,-4.294,-4.0976,-3.9548,-3.8591,-3.8128,-3.8115,-3.8128,-3.8153,-3.8128,-3.8078,-3.7877,-3.7374,-3.7224,-3.6897,-3.6483,-3.637,-3.642,-3.6546,-3.686,-3.6985,-3.6759,-3.7462,-3.7889,-3.8253,-3.9044,-3.9509,-3.9697,-3.9697,-3.9697,-3.9697,-3.9697,-3.9697,-3.9697,-3.9697,-3.9697,-3.9697,-3.9697,-3.9697,-3.9697,-3.989,-4.0655,-4.1835,-4.3047,-4.4883,-4.7232,-4.8883,-5.0214,-5.0753,-5.1061,-5.0657,-5.0301,-4.9583,-4.8701,-4.7878,-4.7519,-4.7369,-4.7396,-4.7609,-4.7905,-4.8166,-4.8941,-5.0195,-5.1477,-5.2908,-5.3904,-5.4679,-5.5518,-5.6376,-4.1797,-4.2216,-4.2985,-4.323,-4.3136,-4.3504,-4.345,-4.3122,-4.3409,-4.4163,-4.4918,-4.5298,-4.5779,-4.6447,-4.6931,-4.7121,-4.6829,-4.7121,-4.7309,-4.7309,-4.7309,-4.7309,-4.7309,-4.7309,-4.7309,-4.7309,-4.7309,-4.7309,-4.7309,-4.7309,-4.7309,-4.7309,-4.7309,-4.7309,-4.7309,-4.7309,-4.7309,-4.7309,-4.7309,-4.7309,-4.7309,-4.7309,-4.7309,-4.7309,-4.7309,-4.6638,-4.5674,-4.479,-4.378,-4.2316,-4.0244,-3.8956,-3.8931,-3.9146,-3.9032,-3.8768,-3.8668,-3.8429,-3.7902,-3.7475,-3.696,-3.6508,-3.6508,-3.6546,-3.6985,-3.7136,-3.7387,-3.7538,-3.7889,-3.8291,-3.8693,-3.9283,-3.9622,-3.9697,-3.9697,-3.9697,-3.9697,-3.9697,-3.9697,-3.9697,-3.9697,-3.9697,-3.9697,-3.9697,-3.9697,-3.9697,-4.0173,-4.0844,-4.2351,-4.3932,-4.6106,-4.837,-4.9486,-5.0605,-5.0918,-5.1214,-5.096,-5.0556,-4.9898,-4.9344,-4.8521,-4.7875,-4.7785,-4.789,-4.8072,-4.8446,-4.8952,-5.0559,-5.2029,-5.3177,-5.4273,-5.5185,-5.606,-5.6946,-5.7297,-4.3054,-4.3638,-4.3885,-4.4174,-4.4434,-4.4687,-4.4659,-4.4591,-4.5024,-4.5689,-4.6151,-4.627,-4.6638,-4.7309,-4.7309,-4.7309,-4.7309,-4.7309,-4.7309,-4.7309,-4.7309,-4.7309,-4.7309,-4.7309,-4.7309,-4.7309,-4.7309,-4.7309,-4.7309,-4.7309,-4.7309,-4.7309,-4.7309,-4.7309,-4.7309,-4.7309,-4.7309,-4.7309,-4.7309,-4.7309,-4.7309,-4.7309,-4.7309,-4.7309,-4.7309,-4.6931,-4.6358,-4.5674,-4.5101,-4.3985,-4.2247,-4.0762,-4.0117,-3.9905,-3.9599,-3.9333,-3.9258,-3.8994,-3.8467,-3.8115,-3.7651,-3.681,-3.696,-3.7086,-3.7387,-3.76,-3.7914,-3.8128,-3.8467,-3.8969,-3.9233,-3.9459,-3.9672,-3.9697,-3.9697,-3.9697,-3.9697,-3.9697,-3.9697,-3.9697,-3.9697,-3.9697,-3.9697,-3.9697,-3.98,-3.9788,-4.0756,-4.1458,-4.35,-4.5133,-4.7088,-4.9016,-5.0027,-5.0783,-5.102,-5.1199,-5.1139,-5.078,-5.0361,-4.9957,-4.9449,-4.882,-4.835,-4.8405,-4.853,-4.9493,-5.0225,-5.2059,-5.3486,-5.4458,-5.5364,-5.6421,-5.7114,-5.7463,-5.7628,-4.4129,-4.4935,-4.4335,-4.4733,-4.5613,-4.5533,-4.5623,-4.5869,-4.6829,-4.7019,-4.7309,-4.7309,-4.7207,-4.7309,-4.7309,-4.7309,-4.7309,-4.7309,-4.7309,-4.7309,-4.7309,-4.7309,-4.7309,-4.7309,-4.7309,-4.7309,-4.7309,-4.7309,-4.7309,-4.7309,-4.7309,-4.7309,-4.7309,-4.7309,-4.7309,-4.7309,-4.7309,-4.7309,-4.7309,-4.7309,-4.7309,-4.7309,-4.7309,-4.7309,-4.7309,-4.7309,-4.6931,-4.6358,-4.5674,-4.5598,-4.4442,-4.3313,-4.2168,-4.0844,-3.9981,-3.9955,-3.9827,-3.9333,-3.8894,-3.8705,-3.8329,-3.7412,-3.7676,-3.7814,-3.7776,-3.8203,-3.8517,-3.873,-3.9019,-3.9546,-3.9685,-3.9685,-3.9685,-3.9697,-3.9697,-3.9697,-3.9697,-3.9697,-3.9697,-3.9697,-3.9697,-3.9697,-3.9697,-3.9697,-3.9788,-4.0083,-4.1145,-4.2396,-4.4443,-4.6196,-4.7919,-4.939,-5.0403,-5.0918,-5.1139,-5.1214,-5.1154,-5.102,-5.069,-5.0421,-5.0152,-4.9598,-4.9087,-4.8813,-4.9146,-5.0133,-5.1387,-5.3035,-5.432,-5.5409,-5.6348,-5.7228,-5.7628,-5.7865,-5.7881,-4.7155,-4.6857,-4.6683,-4.6766,-4.6889,-4.633,-4.641,-4.6976,-4.7207,-4.7309,-4.7309,-4.7309,-4.7309,-4.7309,-4.7309,-4.7309,-4.7309,-4.7309,-4.7309,-4.7309,-4.7309,-4.7309,-4.7309,-4.7309,-4.7309,-4.7309,-4.7309,-4.7309,-4.7309,-4.7309,-4.7309,-4.7309,-4.7309,-4.7309,-4.7309,-4.7309,-4.7309,-4.7309,-4.7309,-4.7309,-4.7309,-4.7309,-4.7309,-4.7309,-4.7309,-4.7309,-4.7309,-4.7121,-4.7019,-4.6829,-4.5779,-4.5115,-4.427,-4.2558,-4.1505,-4.1119,-4.0554,-3.9944,-3.9537,-3.9183,-3.8642,-3.8065,-3.8139,-3.8403,-3.8492,-3.8768,-3.9019,-3.9308,-3.9446,-3.9697,-3.9697,-3.9697,-3.9697,-3.9697,-3.9697,-3.9697,-3.9697,-3.9697,-3.9697,-3.9697,-3.9697,-3.9697,-3.98,-3.9981,-4.0364,-4.101,-4.2145,-4.3574,-4.5595,-4.695,-4.8281,-4.9567,-5.0657,-5.099,-5.1214,-5.1229,-5.1199,-5.1199,-5.096,-5.0921,-5.0573,-5.0257,-4.9944,-5.0035,-5.0316,-5.1152,-5.247,-5.3997,-5.5202,-5.6337,-5.7161,-5.7865,-5.7881,-5.7881,-5.7881,-4.7608,-4.7297,-4.7213,-4.7303,-4.724,-4.6963,-4.6948,-4.7252,-4.7309,-4.7309,-4.7309,-4.7309,-4.7309,-4.7309,-4.7309,-4.7309,-4.7309,-4.7309,-4.7309,-4.7309,-4.7309,-4.7309,-4.7309,-4.7309,-4.7309,-4.7309,-4.7309,-4.7309,-4.7309,-4.7309,-4.7309,-4.7309,-4.7309,-4.7309,-4.7309,-4.7309,-4.7309,-4.7309,-4.7309,-4.7309,-4.7309,-4.7309,-4.7309,-4.7309,-4.7309,-4.7309,-4.7309,-4.7309,-4.7309,-4.7207,-4.6741,-4.6447,-4.5779,-4.4734,-4.3218,-4.2641,-4.1972,-4.1499,-4.1333,-4.1253,-4.0834,-3.9718,-3.9698,-3.9369,-3.9146,-3.9107,-3.9396,-3.9597,-3.9697,-3.9697,-3.9697,-3.9697,-3.9697,-3.9697,-3.9697,-3.9697,-3.9697,-3.9697,-3.9697,-3.9697,-3.9697,-3.98,-3.989,-4.0275,-4.0945,-4.1895,-4.3009,-4.4797,-4.6778,-4.796,-4.9056,-4.9942,-5.099,-5.1065,-5.1229,-5.1229,-5.1229,-5.1229,-5.1278,-5.1146,-5.147,-5.1334,-5.1517,-5.1753,-5.2171,-5.2485,-5.3651,-5.5181,-5.625,-5.715,-5.7521,-5.7865,-5.7881,-5.7881,-5.7881,-4.7309,-4.7309,-4.7309,-4.7309,-4.7309,-4.7309,-4.7324,-4.7309,-4.7309,-4.7309,-4.7309,-4.7309,-4.7309,-4.7309,-4.7309,-4.7309,-4.7309,-4.7309,-4.7309,-4.7309,-4.7309,-4.7309,-4.7309,-4.7309,-4.7309,-4.7309,-4.7309,-4.7309,-4.7309,-4.7309,-4.7309,-4.7309,-4.7309,-4.7309,-4.7309,-4.7309,-4.7309,-4.7309,-4.7309,-4.7309,-4.7309,-4.7309,-4.7309,-4.7309,-4.7309,-4.7309,-4.7309,-4.7309,-4.7309,-4.7309,-4.7222,-4.7222,-4.7121,-4.6358,-4.5312,-4.4456,-4.3882,-4.349,-4.3381,-4.3272,-4.2466,-4.1429,-4.1706,-4.0979,-3.9942,-3.9702,-3.9672,-3.9697,-3.9697,-3.9697,-3.9697,-3.9697,-3.9697,-3.9697,-3.9697,-3.9697,-3.9697,-3.9697,-3.9697,-3.9697,-3.9697,-3.98,-3.9788,-4.0743,-4.1419,-4.2831,-4.3958,-4.5916,-4.7746,-4.8927,-4.9935,-5.0594,-5.1169,-5.1169,-5.1229,-5.1229,-5.1229,-5.1229,-5.1308,-5.1374,-5.2047,-5.2615,-5.2833,-5.3085,-5.3664,-5.4085,-5.5202,-5.5888,-5.6579,-5.7167,-5.7645,-5.7865,-5.7865,-5.7881,-5.7881,-4.7309,-4.7309,-4.7309,-4.7309,-4.7309,-4.7309,-4.7309,-4.7309,-4.7309,-4.7309,-4.7309,-4.7309,-4.7309,-4.7309,-4.7309,-4.7309,-4.7309,-4.7309,-4.7309,-4.7309,-4.7309,-4.7309,-4.7309,-4.7309,-4.7309,-4.7309,-4.7309,-4.7309,-4.7309,-4.7309,-4.7309,-4.7309,-4.7309,-4.7309,-4.7309,-4.7309,-4.7309,-4.7309,-4.7309,-4.7309,-4.7309,-4.7309,-4.7309,-4.7309,-4.7309,-4.7309,-4.7309,-4.7309,-4.7309,-4.7309,-4.7309,-4.7309,-4.7309,-4.7207,-4.7019,-4.6255,-4.5024,-4.349,-4.3773,-4.3975,-4.3773,-4.3202,-4.3258,-4.26,-4.1485,-4.0337,-3.989,-3.9697,-3.9697,-3.9697,-3.9697,-3.9697,-3.9697,-3.9697,-3.9697,-3.9697,-3.9697,-3.9697,-3.9697,-3.9697,-3.9697,-3.9697,-3.98,-4.0945,-4.2012,-4.3451,-4.5086,-4.6998,-4.8543,-4.9652,-5.0481,-5.1005,-5.1229,-5.1229,-5.1229,-5.1229,-5.1229,-5.1229,-5.1308,-5.1635,-5.2649,-5.3483,-5.3897,-5.4237,-5.4906,-5.5263,-5.5638,-5.6141,-5.6718,-5.7183,-5.7679,-5.7831,-5.7881,-5.7881,-5.7881,-4.7309,-4.7309,-4.7309,-4.7309,-4.7309,-4.7309,-4.7309,-4.7309,-4.7309,-4.7309,-4.7309,-4.7309,-4.7309,-4.7309,-4.7309,-4.7309,-4.7309,-4.7309,-4.7309,-4.7309,-4.7309,-4.7309,-4.7309,-4.7309,-4.7309,-4.7309,-4.7309,-4.7309,-4.7309,-4.7309,-4.7309,-4.7309,-4.7309,-4.7309,-4.7309,-4.7309,-4.7309,-4.7309,-4.7309,-4.7309,-4.7309,-4.7309,-4.7309,-4.7309,-4.7309,-4.7309,-4.7309,-4.7309,-4.7309,-4.7309,-4.7309,-4.7309,-4.7309,-4.7309,-4.7309,-4.7207,-4.6358,-4.5779,-4.5689,-4.5598,-4.5207,-4.4734,-4.4442,-4.3948,-4.2738,-4.1604,-4.0743,-4.0844,-4.0083,-3.9788,-3.98,-3.9697,-3.9697,-3.9697,-3.9697,-3.9697,-3.9697,-3.9697,-3.9697,-3.9697,-3.9697,-3.9697,-4.0083,-4.1604,-4.2598,-4.3601,-4.558,-4.7944,-4.9203,-5.0164,-5.0735,-5.1124,-5.1229,-5.1229,-5.1229,-5.1229,-5.1229,-5.1229,-5.1229,-5.1804,-5.3324,-5.4168,-5.4573,-5.5571,-5.6535,-5.6613,-5.6219,-5.6571,-5.7296,-5.7504,-5.764,-5.7797,-5.7881,-5.7881,-5.7881,-4.7055,-4.707,-4.7234,-4.7309,-4.7309,-4.7309,-4.7309,-4.7309,-4.7309,-4.7309,-4.7309,-4.7309,-4.7309,-4.7309,-4.7309,-4.7309,-4.7309,-4.7309,-4.7309,-4.7309,-4.7309,-4.7309,-4.7309,-4.7309,-4.7309,-4.7309,-4.7309,-4.7309,-4.7309,-4.7309,-4.7309,-4.7309,-4.7309,-4.7309,-4.7309,-4.7309,-4.7309,-4.7309,-4.7309,-4.7309,-4.7309,-4.7309,-4.7309,-4.7309,-4.7309,-4.7309,-4.7309,-4.7309,-4.7309,-4.7309,-4.7309,-4.7309,-4.7309,-4.7309,-4.7309,-4.7309,-4.6931,-4.6931,-4.6931,-4.6931,-4.6741,-4.6151,-4.5389,-4.4826,-4.4069,-4.2834,-4.2084,-4.2084,-4.0932,-4.0465,-4.0083,-3.9981,-3.9697,-3.9697,-3.9697,-3.9697,-3.9697,-3.9788,-3.9788,-3.9697,-3.9697,-3.9697,-4.0465,-4.2168,-4.3286,-4.3887,-4.5988,-4.8726,-4.9881,-5.0661,-5.09,-5.1229,-5.1229,-5.1229,-5.1229,-5.1229,-5.1229,-5.1229,-5.1229,-5.2063,-5.3656,-5.4656,-5.5231,-5.6393,-5.7718,-5.7634,-5.7046,-5.751,-5.7881,-5.7831,-5.7797,-5.7831,-5.7881,-5.7881,-5.7881,-4.6396,-4.6426,-4.704,-4.7264,-4.7279,-4.7309,-4.7309,-4.7309,-4.7309,-4.7309,-4.7309,-4.7309,-4.7309,-4.7309,-4.7309,-4.7309,-4.7309,-4.7309,-4.7309,-4.7309,-4.7309,-4.7309,-4.7309,-4.7309,-4.7309,-4.7309,-4.7309,-4.7309,-4.7309,-4.7309,-4.7309,-4.7309,-4.7309,-4.7309,-4.7309,-4.7309,-4.7309,-4.7309,-4.7309,-4.7309,-4.7309,-4.7309,-4.7309,-4.7309,-4.7309,-4.7309,-4.7309,-4.7309,-4.7309,-4.7309,-4.7309,-4.7309,-4.7309,-4.7309,-4.7309,-4.7309,-4.7309,-4.7309,-4.7309,-4.7309,-4.7222,-4.6829,-4.6255,-4.5584,-4.5221,-4.4069,-4.3504,-4.3218,-4.2168,-4.1604,-4.1132,-4.0554,-4.0465,-4.0465,-4.0655,-4.0364,-4.0364,-4.0083,-3.9981,-3.9788,-3.9697,-3.9788,-4.0581,-4.223,-4.3177,-4.3751,-4.6297,-4.904,-5.0284,-5.1035,-5.1079,-5.1229,-5.1229,-5.1229,-5.1229,-5.1229,-5.1229,-5.1229,-5.1229,-5.2485,-5.4084,-5.492,-5.5329,-5.6794,-5.7881,-5.7881,-5.7881,-5.7881,-5.7881,-5.7881,-5.7881,-5.7881,-5.7881,-5.7881,-5.7881,-4.6681,-4.6352,-4.6606,-4.6696,-4.6726,-4.713,-4.7309,-4.7309,-4.7309,-4.7309,-4.7309,-4.7309,-4.7309,-4.7309,-4.7309,-4.7309,-4.7309,-4.7309,-4.7309,-4.7309,-4.7309,-4.7309,-4.7309,-4.7309,-4.7309,-4.7309,-4.7309,-4.7309,-4.7309,-4.7309,-4.7309,-4.7309,-4.7309,-4.7309,-4.7309,-4.7309,-4.7309,-4.7309,-4.7309,-4.7309,-4.7309,-4.7309,-4.7309,-4.7309,-4.7309,-4.7309,-4.7309,-4.7309,-4.7309,-4.7309,-4.7309,-4.7309,-4.7309,-4.7309,-4.7309,-4.7309,-4.7309,-4.7309,-4.7309,-4.7309,-4.7309,-4.7207,-4.6814,-4.6535,-4.6358,-4.5403,-4.4826,-4.427,-4.3504,-4.2834,-4.2655,-4.2363,-4.2168,-4.207,-4.1789,-4.1406,-4.1119,-4.0932,-4.0364,-4.0275,-4.007,-4.007,-4.1,-4.2133,-4.2858,-4.3683,-4.6534,-4.9049,-5.0385,-5.1229,-5.1229,-5.1229,-5.1229,-5.1229,-5.1229,-5.1229,-5.1229,-5.1229,-5.1229,-5.2664,-5.4084,-5.4505,-5.5166,-5.6718,-5.7881,-5.7881,-5.7881,-5.7881,-5.7881,-5.7881,-5.7881,-5.7881,-5.7881,-5.7881,-5.7881,-4.6621,-4.6067,-4.6232,-4.6322,-4.6396,-4.6815,-4.7115,-4.7294,-4.7309,-4.7309,-4.7309,-4.7309,-4.7309,-4.7309,-4.7309,-4.7309,-4.7309,-4.7309,-4.7309,-4.7309,-4.7309,-4.7309,-4.7309,-4.7309,-4.7309,-4.7309,-4.7309,-4.7309,-4.7309,-4.7309,-4.7309,-4.7309,-4.7309,-4.7309,-4.7309,-4.7309,-4.7309,-4.7309,-4.7309,-4.7309,-4.7309,-4.7309,-4.7309,-4.7309,-4.7309,-4.7309,-4.7309,-4.7309,-4.7309,-4.7309,-4.7309,-4.7309,-4.7309,-4.7309,-4.7309,-4.7309,-4.7309,-4.7309,-4.7309,-4.7309,-4.7309,-4.7294,-4.7294,-4.7207,-4.7019,-4.6447,-4.6062,-4.5883,-4.484,-4.4069,-4.3975,-4.3598,-4.3109,-4.2834,-4.293,-4.2641,-4.2363,-4.2084,-4.1319,-4.0743,-4.0831,-4.1319,-4.1828,-4.3057,-4.4747,-4.5624,-4.7593,-4.9679,-5.0579,-5.1229,-5.1229,-5.1229,-5.1229,-5.1229,-5.1229,-5.1229,-5.1229,-5.1229,-5.1479,-5.2575,-5.3671,-5.4269,-5.5426,-5.7055,-5.7881,-5.7881,-5.7881,-5.7881,-5.7881,-5.7881,-5.7881,-5.7881,-5.7881,-5.7881,-5.7881,-4.5948,-4.5439,-4.5992,-4.6247,-4.6202,-4.6322,-4.6726,-4.7264,-4.7309,-4.7309,-4.7309,-4.7309,-4.7309,-4.7309,-4.7309,-4.7309,-4.7309,-4.7309,-4.7309,-4.7309,-4.7309,-4.7309,-4.7309,-4.7309,-4.7309,-4.7309,-4.7309,-4.7309,-4.7309,-4.7309,-4.7309,-4.7309,-4.7309,-4.7309,-4.7309,-4.7309,-4.7309,-4.7309,-4.7309,-4.7309,-4.7309,-4.7309,-4.7309,-4.7309,-4.7309,-4.7309,-4.7309,-4.7309,-4.7309,-4.7309,-4.7309,-4.7309,-4.7309,-4.7309,-4.7309,-4.7309,-4.7309,-4.7309,-4.7309,-4.7309,-4.7309,-4.7309,-4.7309,-4.7309,-4.7309,-4.7121,-4.7004,-4.6726,-4.5958,-4.5403,-4.5024,-4.4456,-4.4163,-4.4055,-4.4149,-4.3962,-4.3693,-4.3409,-4.2751,-4.1887,-4.2461,-4.3163,-4.3396,-4.429,-4.6505,-4.8079,-4.9326,-5.0355,-5.0971,-5.1229,-5.1229,-5.1229,-5.1229,-5.1229,-5.1229,-5.1229,-5.1229,-5.1229,-5.1727,-5.2827,-5.3922,-5.4864,-5.6132,-5.7621,-5.8068,-5.8237,-5.8068,-5.7898,-5.7881,-5.7881,-5.7881,-5.7881,-5.7881,-5.7881,-5.7881,-4.5663,-4.4676,-4.49,-4.499,-4.5125,-4.5963,-4.6696,-4.7234,-4.7309,-4.7309,-4.7309,-4.7309,-4.7309,-4.7309,-4.7309,-4.7309,-4.7309,-4.7309,-4.7309,-4.7309,-4.7309,-4.7309,-4.7309,-4.7309,-4.7309,-4.7309,-4.7309,-4.7309,-4.7309,-4.7309,-4.7309,-4.7309,-4.7309,-4.7309,-4.7309,-4.7309,-4.7309,-4.7309,-4.7309,-4.7309,-4.7309,-4.7309,-4.7309,-4.7309,-4.7309,-4.7309,-4.7309,-4.7309,-4.7309,-4.7309,-4.7309,-4.7309,-4.7309,-4.7309,-4.7309,-4.7309,-4.7309,-4.7309,-4.7309,-4.7309,-4.7309,-4.7309,-4.7309,-4.7309,-4.7309,-4.7309,-4.7309,-4.7309,-4.6829,-4.6535,-4.6447,-4.6358,-4.6166,-4.6151,-4.6151,-4.5584,-4.5207,-4.4932,-4.4363,-4.3409,-4.3409,-4.486,-4.551,-4.6206,-4.8217,-4.9119,-5.0173,-5.049,-5.1109,-5.1199,-5.1229,-5.1229,-5.1229,-5.1229,-5.1229,-5.1229,-5.1229,-5.1229,-5.1987,-5.3165,-5.421,-5.5373,-5.6879,-5.8403,-5.8552,-5.8609,-5.8496,-5.8293,-5.7966,-5.7881,-5.7881,-5.7881,-5.7881,-5.7881,-5.7881,-4.5544,-4.4362,-4.4317,-4.4317,-4.4481,-4.5499,-4.6456,-4.7189,-4.7309,-4.7309,-4.7309,-4.7309,-4.7309,-4.7309,-4.7309,-4.7309,-4.7309,-4.7309,-4.7309,-4.7309,-4.7309,-4.7309,-4.7309,-4.7309,-4.7309,-4.7309,-4.7309,-4.7309,-4.7309,-4.7309,-4.7309,-4.7309,-4.7309,-4.7309,-4.7309,-4.7309,-4.7309,-4.7309,-4.7309,-4.7309,-4.7309,-4.7309,-4.7309,-4.7309,-4.7309,-4.7309,-4.7309,-4.7309,-4.7309,-4.7309,-4.7309,-4.7309,-4.7309,-4.7309,-4.7309,-4.7309,-4.7309,-4.7309,-4.7309,-4.7309,-4.7309,-4.7309,-4.7309,-4.7309,-4.7309,-4.7309,-4.7309,-4.7309,-4.7309,-4.7309,-4.7207,-4.7309,-4.7309,-4.7207,-4.7019,-4.6447,-4.6358,-4.5973,-4.5494,-4.4642,-4.484,-4.631,-4.7448,-4.8679,-4.9965,-5.0385,-5.087,-5.102,-5.1124,-5.1184,-5.1229,-5.1229,-5.1229,-5.1229,-5.1229,-5.1229,-5.1229,-5.1229,-5.2291,-5.3537,-5.4868,-5.6091,-5.7674,-5.9018,-5.9203,-5.9268,-5.8937,-5.8649,-5.8327,-5.809,-5.7881,-5.7881,-5.7881,-5.7881,-5.7881,-4.5484,-4.4362,-4.4272,-4.4257,-4.4392,-4.4975,-4.6007,-4.7219,-4.7294,-4.7309,-4.7309,-4.7309,-4.7309,-4.7309,-4.7309,-4.7309,-4.7309,-4.7309,-4.7309,-4.7309,-4.7309,-4.7309,-4.7309,-4.7309,-4.7309,-4.7309,-4.7309,-4.7309,-4.7309,-4.7309,-4.7309,-4.7309,-4.7309,-4.7309,-4.7309,-4.7309,-4.7309,-4.7309,-4.7309,-4.7309,-4.7309,-4.7309,-4.7309,-4.7309,-4.7309,-4.7309,-4.7309,-4.7309,-4.7309,-4.7309,-4.7309,-4.7309,-4.7309,-4.7309,-4.7309,-4.7309,-4.7309,-4.7309,-4.7309,-4.7309,-4.7309,-4.7309,-4.7309,-4.7309,-4.7309,-4.7309,-4.7309,-4.7309,-4.7309,-4.7309,-4.7309,-4.7309,-4.7309,-4.7309,-4.7309,-4.7121,-4.7121,-4.6829,-4.6447,-4.6254,-4.6727,-4.7718,-4.8623,-4.9868,-5.0661,-5.0855,-5.1065,-5.1094,-5.1184,-5.1184,-5.1229,-5.1229,-5.1229,-5.1229,-5.1229,-5.1229,-5.1229,-5.1229,-5.2837,-5.4151,-5.5425,-5.6923,-5.864,-5.9835,-6.0055,-5.9928,-5.9478,-5.9061,-5.871,-5.8417,-5.8124,-5.7881,-5.7881,-5.7881,-5.7881,-4.4392,-4.3643,-4.3614,-4.3614,-4.3718,-4.4317,-4.5364,-4.6561,-4.707,-4.7309,-4.7309,-4.7309,-4.7309,-4.7309,-4.7309,-4.7309,-4.7309,-4.7309,-4.7309,-4.7309,-4.7309,-4.7309,-4.7309,-4.7309,-4.7309,-4.7309,-4.7309,-4.7309,-4.7309,-4.7309,-4.7309,-4.7309,-4.7309,-4.7309,-4.7309,-4.7309,-4.7309,-4.7309,-4.7309,-4.7309,-4.7309,-4.7309,-4.7309,-4.7309,-4.7309,-4.7309,-4.7309,-4.7309,-4.7309,-4.7309,-4.7309,-4.7309,-4.7309,-4.7309,-4.7309,-4.7309,-4.7309,-4.7309,-4.7309,-4.7309,-4.7309,-4.7309,-4.7309,-4.7309,-4.7309,-4.7309,-4.7309,-4.7309,-4.7309,-4.7309,-4.7309,-4.7309,-4.7309,-4.7309,-4.7309,-4.7309,-4.7309,-4.7207,-4.6858,-4.7228,-4.7715,-4.8462,-4.9434,-5.0272,-5.099,-5.1139,-5.1229,-5.1229,-5.1229,-5.1229,-5.1229,-5.1229,-5.1229,-5.1229,-5.1229,-5.1229,-5.1229,-5.1431,-5.3168,-5.4797,-5.6163,-5.7724,-5.9672,-6.0671,-6.0866,-6.0503,-5.9919,-5.9587,-5.9332,-5.8688,-5.84,-5.8107,-5.7881,-5.7881,-5.7881,-4.3928,-4.3374,-4.3344,-4.3344,-4.3449,-4.4032,-4.496,-4.5933,-4.6636,-4.7025,-4.7294,-4.7309,-4.7309,-4.7309,-4.7309,-4.7309,-4.7309,-4.7309,-4.7309,-4.7309,-4.7309,-4.7309,-4.7309,-4.7309,-4.7309,-4.7309,-4.7309,-4.7309,-4.7309,-4.7309,-4.7309,-4.7309,-4.7309,-4.7309,-4.7309,-4.7309,-4.7309,-4.7309,-4.7309,-4.7309,-4.7309,-4.7309,-4.7309,-4.7309,-4.7309,-4.7309,-4.7309,-4.7309,-4.7309,-4.7309,-4.7309,-4.7309,-4.7309,-4.7309,-4.7309,-4.7309,-4.7309,-4.7309,-4.7309,-4.7309,-4.7309,-4.7309,-4.7309,-4.7309,-4.7309,-4.7309,-4.7309,-4.7309,-4.7309,-4.7309,-4.7309,-4.7309,-4.7309,-4.7309,-4.7309,-4.7309,-4.7309,-4.7309,-4.7534,-4.7833,-4.8401,-4.9119,-4.9927,-5.075,-5.1229,-5.1229,-5.1229,-5.1229,-5.1229,-5.1229,-5.1229,-5.1229,-5.1229,-5.1229,-5.1229,-5.1323,-5.1509,-5.2154,-5.3903,-5.5496,-5.6853,-5.8575,-6.0572,-6.139,-6.1711,-6.1231,-6.0639,-6.0317,-5.9979,-5.9377,-5.8756,-5.8395,-5.8084,-5.7881,-5.7881,-4.3883,-4.3344,-4.3344,-4.3344,-4.3404,-4.3958,-4.4631,-4.5334,-4.5992,-4.6651,-4.7204,-4.7309,-4.7309,-4.7309,-4.7309,-4.7309,-4.7309,-4.7309,-4.7309,-4.7309,-4.7309,-4.7309,-4.7309,-4.7309,-4.7309,-4.7309,-4.7309,-4.7309,-4.7309,-4.7309,-4.7309,-4.7309,-4.7309,-4.7309,-4.7309,-4.7309,-4.7309,-4.7309,-4.7309,-4.7309,-4.7309,-4.7309,-4.7309,-4.7309,-4.7309,-4.7309,-4.7309,-4.7309,-4.7309,-4.7309,-4.7309,-4.7309,-4.7309,-4.7309,-4.7309,-4.7309,-4.7309,-4.7309,-4.7309,-4.7309,-4.7309,-4.7309,-4.7309,-4.7309,-4.7309,-4.7309,-4.7309,-4.7309,-4.7309,-4.7309,-4.7309,-4.7309,-4.7309,-4.7414,-4.7504,-4.7563,-4.7653,-4.7803,-4.8147,-4.8491,-4.8985,-4.9658,-5.0032,-5.0795,-5.1214,-5.1229,-5.1229,-5.1229,-5.1229,-5.1229,-5.1229,-5.1229,-5.1229,-5.1229,-5.1229,-5.1416,-5.1987,-5.2973,-5.4719,-5.6401,-5.7936,-5.9657,-6.1508,-6.189,-6.2032,-6.193,-6.1525,-6.1052,-6.0537,-5.9877,-5.9309,-5.871,-5.8372,-5.8051,-5.7881,-4.3479,-4.3344,-4.3344,-4.3344,-4.3359,-4.3494,-4.4242,-4.5274,-4.5454,-4.6232,-4.7145,-4.7309,-4.7309,-4.7309,-4.7309,-4.7309,-4.7309,-4.7309,-4.7309,-4.7309,-4.7309,-4.7309,-4.7309,-4.7309,-4.7309,-4.7309,-4.7309,-4.7309,-4.7309,-4.7309,-4.7309,-4.7309,-4.7309,-4.7309,-4.7309,-4.7309,-4.7309,-4.7309,-4.7309,-4.7309,-4.7309,-4.7309,-4.7309,-4.7309,-4.7309,-4.7309,-4.7309,-4.7309,-4.7309,-4.7309,-4.7309,-4.7309,-4.7309,-4.7309,-4.7309,-4.7309,-4.7309,-4.7309,-4.7381,-4.7381,-4.7381,-4.7396,-4.7396,-4.7309,-4.7309,-4.7309,-4.7309,-4.7309,-4.7309,-4.7309,-4.7309,-4.7309,-4.7339,-4.7504,-4.7728,-4.7863,-4.8012,-4.8386,-4.876,-4.9194,-4.9643,-4.9987,-5.0331,-5.069,-5.1065,-5.1229,-5.1229,-5.1229,-5.1229,-5.1229,-5.1229,-5.1229,-5.1229,-5.1229,-5.1229,-5.1539,-5.2139,-5.3582,-5.5265,-5.7102,-5.9004,-6.0578,-6.2026,-6.2195,-6.2313,-6.2116,-6.1897,-6.1535,-6.102,-6.0402,-5.9691,-5.9099,-5.8626,-5.8287,-5.8051,-4.3344,-4.3344,-4.3344,-4.3344,-4.3344,-4.3344,-4.4077,-4.514,-4.5289,-4.6052,-4.7189,-4.7309,-4.7309,-4.7309,-4.7309,-4.7309,-4.7309,-4.7309,-4.7309,-4.7309,-4.7309,-4.7309,-4.7309,-4.7309,-4.7309,-4.7309,-4.7309,-4.7309,-4.7309,-4.7309,-4.7309,-4.7309,-4.7309,-4.7309,-4.7309,-4.7309,-4.7309,-4.7309,-4.7309,-4.7309,-4.7309,-4.7309,-4.7309,-4.7309,-4.7309,-4.7309,-4.7309,-4.7309,-4.7309,-4.7538,-4.7764,-4.7624,-4.7609,-4.7764,-4.7679,-4.7452,-4.7396,-4.7452,-4.7679,-4.7679,-4.7694,-4.7764,-4.7467,-4.7467,-4.7309,-4.7309,-4.7309,-4.7309,-4.7309,-4.7309,-4.7309,-4.7309,-4.7309,-4.7414,-4.7878,-4.8222,-4.8521,-4.8895,-4.9299,-4.9733,-5.0077,-5.0316,-5.0631,-5.09,-5.1214,-5.1229,-5.1229,-5.1229,-5.1229,-5.1229,-5.1229,-5.1229,-5.1229,-5.1229,-5.1229,-5.1678,-5.2322,-5.3948,-5.5923,-5.8144,-6.0122,-6.1384,-6.2398,-6.2398,-6.2398,-6.2381,-6.211,-6.1721,-6.1474,-6.0991,-6.0241,-5.9455,-5.8981,-5.8457,-5.8118,-4.3344,-4.3344,-4.3344,-4.3344,-4.3344,-4.3344,-4.4077,-4.5155,-4.5304,-4.6052,-4.7204,-4.7309,-4.7309,-4.7309,-4.7309,-4.7309,-4.7309,-4.7309,-4.7309,-4.7309,-4.7309,-4.7309,-4.7309,-4.7309,-4.7309,-4.7309,-4.7309,-4.7309,-4.7309,-4.7309,-4.7309,-4.7309,-4.7309,-4.7309,-4.7309,-4.7309,-4.7309,-4.7309,-4.7309,-4.7309,-4.7309,-4.7309,-4.7309,-4.7309,-4.7309,-4.7381,-4.7467,-4.7538,-4.7538,-4.7919,-4.8377,-4.8141,-4.8072,-4.821,-4.8377,-4.8157,-4.8157,-4.8543,-4.8692,-4.8475,-4.8625,-4.8543,-4.7919,-4.7679,-4.7764,-4.7779,-4.7764,-4.7679,-4.7679,-4.7381,-4.7396,-4.7411,-4.7411,-4.7534,-4.8072,-4.879,-4.9194,-4.9538,-4.9927,-5.0331,-5.0496,-5.0705,-5.0885,-5.1154,-5.1214,-5.1229,-5.1229,-5.1229,-5.1229,-5.1229,-5.1229,-5.1229,-5.1229,-5.1229,-5.1229,-5.1926,-5.2695,-5.4788,-5.6884,-5.9152,-6.101,-6.1908,-6.2398,-6.2398,-6.2398,-6.2347,-6.2195,-6.1856,-6.1599,-6.1244,-6.0275,-5.9302,-5.9015,-5.8507,-5.8084,-4.3344,-4.3344,-4.3344,-4.3344,-4.3344,-4.3344,-4.4077,-4.5155,-4.5304,-4.6052,-4.7055,-4.7309,-4.7309,-4.7309,-4.7309,-4.7309,-4.7309,-4.7309,-4.7309,-4.7309,-4.7309,-4.7309,-4.7309,-4.7309,-4.7309,-4.7309,-4.7309,-4.7309,-4.7309,-4.7309,-4.7309,-4.7309,-4.7309,-4.7309,-4.7309,-4.7309,-4.7396,-4.7467,-4.7538,-4.7538,-4.7553,-4.7467,-4.7309,-4.7309,-4.7309,-4.7849,-4.8225,-4.8527,-4.9085,-4.9392,-4.9231,-4.8907,-4.8825,-4.8907,-4.915,-4.9311,-4.9327,-4.9631,-4.9694,-4.9551,-4.971,-4.9947,-4.9536,-4.9425,-4.944,-4.9456,-4.936,-4.9168,-4.8876,-4.7764,-4.7553,-4.7643,-4.7617,-4.801,-4.8446,-4.9553,-5.0331,-5.0526,-5.078,-5.0915,-5.096,-5.105,-5.1079,-5.1214,-5.1214,-5.1229,-5.1229,-5.1229,-5.1229,-5.1229,-5.1214,-5.1416,-5.1416,-5.1214,-5.1293,-5.2337,-5.3451,-5.5597,-5.7751,-5.9908,-6.14,-6.2071,-6.2398,-6.2398,-6.2313,-6.215,-6.1981,-6.1728,-6.1163,-6.0672,-5.9734,-5.9049,-5.8829,-5.8524,-5.8068]}]]